GFSSGP_con_mucape_000.txt.gz
CAPE
0 0 0 0 0 0 12 40 63 31 40 75 86 79 97 95 99 166 426 366 645 724 746 839 1055 1349 1444 1470 1412 1370 1396 1288 1066 1014 971 917 795 626 658 822 1004 822 699 546 518 544 523 685 874
0 0 0 0 0 0 8 71 35 27 5 24 58 67 135 338 484 551 416 522 679 759 771 827 1165 1369 1477 1485 1530 1487 1465 1308 1206 1131 1024 880 667 608 636 599 815 446 325 303 343 462 480 503 632
0 0 0 0 0 0 29 57 15 0 0 11 52 35 63 389 467 530 476 704 825 858 899 1025 1177 1324 1462 1501 1558 1599 1645 1603 1481 1154 874 747 593 549 391 316 190 113 109 89 77 86 125 264 377
0 0 0 0 0 3 0 35 47 5 0 9 20 35 147 365 634 866 1009 1085 990 1183 1083 1186 1349 1405 1497 1546 1472 1476 1426 1358 1152 975 830 660 517 343 203 109 42 20 11 16 8 0 0 19 70
0 0 0 36 35 29 34 52 39 0 57 10 0 30 82 528 1074 1180 1180 1050 1236 1475 1299 1500 1405 1474 1523 1564 1472 1338 1304 1227 1175 1195 892 538 375 231 127 64 15 0 0 0 0 0 0 0 0
0 0 4 54 10 9 12 0 0 85 44 7 26 117 211 864 1086 1138 1155 1190 1455 2217 1971 1618 1599 1572 1538 1435 1212 1087 1056 1123 1184 1116 865 512 341 234 119 38 2 0 0 0 0 0 0 0 0
0 0 0 10 1 0 0 0 0 70 117 76 72 97 72 540 987 743 1051 1252 1387 1532 1477 1317 1230 1164 1069 961 856 876 985 972 1007 1013 847 669 436 397 153 20 0 0 0 0 0 0 0 0 0
0 3 1 13 1 0 0 0 17 87 128 93 145 78 40 84 458 557 823 907 1018 972 948 866 797 710 705 709 714 695 648 615 676 748 598 423 311 268 257 159 46 37 0 0 0 0 0 0 0
0 3 2 9 7 12 2 6 1 2 166 118 62 103 64 28 218 437 391 494 494 500 464 419 347 339 420 482 526 646 617 486 439 515 493 333 216 73 46 145 35 207 88 63 84 80 25 0 0
0 0 0 0 0 0 0 1 0 0 38 128 183 166 129 10 9 77 239 303 391 423 311 418 280 92 201 330 432 258 331 251 247 307 338 317 349 315 83 115 262 268 202 245 273 230 155 68 0
0 0 0 0 1 0 0 0 0 0 50 185 228 214 177 95 8 33 99 235 367 544 493 544 481 163 16 117 56 131 255 317 396 530 524 467 513 299 456 189 166 195 142 150 128 96 56 25 0
0 0 0 0 0 0 0 0 0 0 0 184 241 232 177 143 22 0 0 69 285 514 485 563 657 344 155 96 103 171 401 516 618 626 382 249 208 13 19 14 57 13 0 32 82 81 59 8 0
0 0 0 0 0 0 0 0 0 0 0 223 237 252 213 72 0 0 0 0 138 386 285 196 178 209 131 47 287 350 396 626 772 689 456 87 59 5 14 6 2 0 0 5 10 14 7 0 0
0 0 0 0 0 0 0 0 0 0 0 254 281 311 252 169 65 4 2 2 22 431 435 406 269 335 185 195 209 176 205 177 613 394 107 37 21 54 46 30 7 0 12 8 9 2 1 0 0
0 0 0 0 0 0 0 0 0 0 0 315 386 410 291 254 203 114 47 31 28 457 606 564 790 722 250 409 375 213 108 59 107 90 23 30 31 71 77 8 0 0 0 0 0 0 0 0 0
0 0 0 1 0 0 0 0 0 0 0 1 350 418 343 285 305 294 179 92 80 603 802 658 485 481 301 285 339 397 54 35 36 52 53 59 48 78 40 11 1 0 0 0 0 0 0 0 0
1 0 1 0 0 0 0 0 0 0 0 0 0 6 184 301 359 400 341 193 459 736 820 656 379 540 207 212 99 82 96 81 65 41 17 24 50 23 10 5 5 0 0 0 0 0 0 0 0
0 0 0 0 0 0 0 0 0 0 0 0 0 0 0 0 355 380 312 255 587 826 789 820 494 444 111 150 84 97 99 54 15 6 0 1 0 2 0 0 0 0 0 0 0 0 0 0 0
0 0 0 0 1 0 0 0 0 0 0 0 0 0 2 48 146 177 107 162 267 860 759 550 381 194 94 57 63 98 33 19 16 7 2 0 2 0 0 0 0 0 0 0 0 0 0 0 0
2 2 0 0 2 0 0 0 0 0 0 0 0 7 31 51 138 126 111 96 175 204 111 114 39 22 16 40 56 52 44 35 28 10 6 0 0 0 0 0 0 0 0 0 0 0 0 0 0
0 0 0 0 7 0 0 0 0 0 0 0 0 3 53 86 97 123 82 31 80 80 70 37 23 34 48 43 41 45 41 17 5 0 0 0 0 0 0 0 0 0 0 0 0 0 0 0 0
0 2 0 0 15 0 0 0 0 0 0 0 0 0 5 18 14 7 5 2 0 0 0 0 0 0 1 1 0 0 0 0 0 0 0 0 0 0 0 0 0 0 0 0 0 0 0 0 0
0 0 0 0 0 0 0 0 0 0 0 0 0 0 0 0 0 0 0 0 0 0 0 0 0 0 0 0 0 0 0 0 0 0 0 0 0 0 0 0 0 0 0 0 0 0 0 0 2
0 0 7 6 1 7 1 3 0 0 1 1 0 0 0 0 0 0 0 0 0 0 0 0 0 0 0 0 0 0 0 0 0 0 0 0 0 0 0 0 0 0 0 0 0 0 0 0 3
0 13 26 31 23 25 20 10 5 1 1 1 6 0 0 0 0 0 0 0 0 0 0 0 0 0 0 0 0 0 0 0 0 2 10 0 0 2 0 0 0 0 0 0 0 0 0 2 6
0 0 6 17 23 15 0 0 0 0 0 6 0 0 0 0 0 0 0 0 0 0 0 0 0 4 3 0 1 3 9 13 14 13 30 0 3 0 0 0 0 0 0 0 0 0 0 0 0
0 0 0 0 0 0 0 0 0 0 3 5 5 0 0 0 0 0 0 0 0 0 0 2 16 11 0 0 2 4 13 17 23 12 0 0 0 0 0 1 6 0 0 0 0 0 0 0 0
0 0 0 0 0 0 0 0 0 0 3 0 0 0 0 0 0 0 1 3 0 0 14 33 26 19 3 0 0 1 2 2 0 0 0 1 3 5 15 23 0 0 0 0 0 0 0 0 0
0 0 0 0 0 0 0 0 0 0 0 0 0 0 0 0 0 1 6 1 3 8 7 0 0 0 0 0 0 0 0 9 10 0 3 5 3 0 34 11 2 0 0 0 0 0 0 5 0
0 0 0 0 0 0 0 0 0 18 11 11 2 3 5 0 5 3 5 2 7 9 1 0 0 0 0 0 0 0 8 23 23 9 18 15 20 16 7 0 0 0 0 0 0 0 0 0 0

GFSSGP_con_mucape_003.txt.gz
CAPE
0 0 0 0 0 0 0 0 21 11 14 8 44 86 138 163 130 112 338 324 662 669 792 952 1154 1217 1240 1301 1262 1259 1198 869 819 820 811 742 627 595 634 625 489 260 162 125 139 159 182 175 258
0 0 0 0 0 0 2 18 61 76 32 11 8 112 265 432 488 515 391 720 679 722 799 1023 1248 1368 1390 1348 1377 1363 1185 996 940 909 888 705 596 547 466 415 389 182 138 67 48 39 46 75 159
0 0 0 0 0 0 0 60 66 52 26 11 14 9 198 518 652 466 488 786 810 732 861 1221 1276 1404 1498 1502 1505 1420 1430 1377 1188 1044 819 642 553 400 250 166 97 53 24 14 7 0 1 2 16
0 0 0 0 0 0 12 60 63 57 59 41 4 72 318 421 548 543 689 878 828 910 1074 1142 1278 1430 1550 1589 1551 1488 1449 1199 1026 993 693 600 446 272 118 67 15 0 0 0 0 0 0 0 0
0 0 0 0 25 32 2 16 39 75 79 48 15 183 332 998 667 875 1098 943 1020 1009 1153 1222 1307 1366 1440 1496 1474 1390 1200 955 998 945 702 541 394 243 100 23 0 0 0 0 0 0 0 0 0
0 0 0 0 46 44 53 41 93 96 83 73 152 346 573 1051 1132 1230 984 841 951 1209 1451 1327 1323 1251 1302 1349 1183 1088 1042 1071 1108 996 694 498 365 248 125 18 0 0 0 0 0 0 0 0 0
0 0 23 57 9 43 17 118 138 107 107 154 204 307 862 1063 1166 1166 935 1377 1543 2159 2079 1377 1465 1360 1285 1063 896 823 821 913 960 906 797 638 474 348 152 19 0 0 0 0 0 0 0 0 0
0 0 0 4 24 0 0 6 167 173 210 97 149 205 829 1102 1141 1129 1434 1704 1847 1738 1735 1583 1335 1308 1045 818 694 656 690 688 782 790 612 393 263 286 227 138 73 74 15 25 44 23 1 0 0
0 6 31 1 4 1 0 4 173 216 134 160 124 135 635 1071 774 907 990 1080 1253 1188 1038 948 842 741 616 530 521 633 641 548 567 566 471 290 136 67 98 192 167 231 173 133 186 171 146 69 33
0 0 24 17 0 7 0 2 159 253 204 106 65 138 799 336 501 554 554 612 710 642 628 497 428 405 347 379 403 254 260 205 209 235 220 243 282 259 210 126 283 427 375 395 403 400 310 269 45
0 0 0 0 0 0 0 1 1 73 115 113 65 94 307 304 359 125 74 158 158 186 239 193 165 142 160 194 169 62 136 128 148 300 349 357 387 376 325 367 139 177 261 218 175 166 138 91 47
0 0 0 19 5 1 0 0 8 0 124 154 140 127 219 306 210 112 87 153 235 225 313 288 66 9 2 56 21 36 83 269 326 477 588 419 291 116 40 22 1 0 0 0 0 24 42 60 13
0 0 0 0 5 0 0 0 0 0 63 214 144 185 168 159 50 77 222 272 423 458 393 431 314 19 4 35 112 185 237 429 536 531 464 282 118 12 0 0 0 0 0 0 0 0 6 0 0
0 0 0 0 0 0 0 0 0 0 267 215 191 210 199 109 4 2 108 306 399 514 519 507 531 244 156 121 170 222 328 501 674 638 477 358 44 33 3 3 1 0 0 0 0 0 0 0 0
0 0 0 0 0 0 0 0 0 0 308 261 239 261 234 75 33 22 15 6 349 459 563 427 486 271 147 232 286 254 354 308 610 752 539 56 21 26 35 51 6 0 0 0 0 0 0 0 0
0 0 0 0 0 0 0 0 0 0 316 312 326 336 314 192 157 156 112 26 59 338 460 439 564 399 178 295 292 216 114 56 203 251 87 11 26 41 54 39 8 0 0 0 0 0 0 0 0
0 0 1 0 0 0 0 0 0 0 172 328 402 429 453 370 324 250 203 137 88 198 499 701 601 231 104 104 307 118 26 31 31 26 26 29 32 38 9 0 0 0 0 0 0 0 0 0 0
2 3 3 0 0 0 0 0 0 0 0 3 40 256 411 473 431 337 291 278 309 411 599 690 487 232 168 138 105 62 38 52 41 43 38 22 5 7 19 4 2 0 0 0 0 0 0 0 0
0 0 0 0 0 0 0 0 0 0 0 0 0 0 0 23 213 429 466 359 447 546 792 588 344 222 113 88 102 42 82 49 35 48 33 27 25 0 0 0 0 0 0 0 0 0 0 0 0
0 0 2 0 0 0 0 0 0 0 0 0 0 1 22 62 118 221 276 580 729 656 486 260 125 33 45 72 95 88 67 37 11 9 1 0 0 0 0 0 0 0 0 0 0 0 0 0 0
0 0 0 0 0 0 0 0 0 0 0 0 5 36 56 83 94 80 39 32 98 107 96 56 27 45 65 83 25 7 0 0 0 0 0 0 0 0 0 0 0 0 0 0 0 0 0 0 0
0 0 0 0 0 0 0 0 0 0 0 0 0 38 60 34 0 1 0 0 1 0 0 0 0 0 0 0 0 0 0 0 0 0 0 0 0 0 0 0 0 0 0 0 0 0 0 0 0
0 0 0 0 0 0 0 0 0 0 0 0 0 0 0 0 0 0 0 0 0 0 0 0 0 0 0 0 0 0 0 0 0 0 0 0 0 0 0 0 1 0 0 0 0 0 0 0 0
0 1 7 6 2 0 0 0 0 0 0 6 16 0 0 1 0 0 0 0 0 0 0 0 0 0 0 0 0 0 0 0 0 0 0 0 0 0 0 4 0 0 0 0 0 0 0 0 0
0 6 23 26 20 15 7 0 0 0 0 2 4 3 19 23 0 1 0 0 0 0 0 0 0 0 0 0 0 0 0 0 0 0 0 0 6 1 2 0 0 0 0 0 0 0 0 0 0
0 0 15 16 17 0 0 0 0 0 0 0 0 0 0 4 0 0 0 0 0 0 0 0 0 0 0 0 0 0 0 0 0 8 8 0 0 0 0 0 0 0 0 7 0 0 0 0 0
0 0 0 0 0 0 0 0 0 0 0 0 0 0 10 0 0 0 0 0 0 0 0 0 0 0 0 0 0 0 0 0 0 0 0 0 0 0 3 5 14 25 0 5 0 0 0 0 0
0 0 0 0 0 0 0 0 0 0 0 0 0 2 0 0 0 0 0 0 0 0 0 2 10 1 0 0 0 0 0 0 0 0 0 0 1 10 31 27 27 9 0 0 0 0 0 0 0
0 0 0 0 0 0 0 0 0 0 0 0 0 0 0 0 0 5 2 2 0 0 2 1 0 0 0 0 0 0 0 0 0 0 0 0 10 13 30 21 7 0 3 0 0 0 0 0 0
0 0 0 0 0 0 0 0 0 0 0 0 1 0 0 2 10 17 20 4 0 0 0 0 0 0 0 0 0 0 0 0 0 0 0 0 4 6 15 7 4 1 0 0 0 0 0 0 0

GFSSGP_con_mucape_006.txt.gz
CAPE
0 0 0 0 0 0 0 0 1 28 102 105 104 117 160 258 159 100 344 455 641 710 850 823 969 1174 1181 1071 1010 1142 1041 779 749 761 717 545 457 419 357 289 319 154 49 34 24 36 60 88 141
0 0 0 0 0 0 0 0 99 101 79 128 102 75 163 160 500 327 454 826 676 806 907 883 964 1070 1259 1158 1194 1165 1011 837 821 825 676 516 424 280 151 149 239 33 14 9 3 0 0 0 1
0 0 0 0 0 0 1 11 62 76 38 52 55 1 0 303 543 417 660 744 730 850 919 1034 1089 1172 1278 1289 1285 1206 1219 1140 1025 879 618 506 356 191 57 43 22 0 0 0 0 0 0 0 0
0 0 0 0 0 0 0 89 0 12 7 22 11 31 130 281 483 521 890 822 752 880 933 1042 1156 1168 1327 1341 1392 1372 1277 1126 1047 895 584 462 272 127 22 5 0 0 0 0 0 0 0 0 0
0 0 0 0 0 0 1 71 56 38 51 11 3 37 61 811 674 838 872 790 787 841 967 1110 1209 1256 1368 1490 1451 1346 1115 916 956 866 653 433 277 127 10 0 0 0 0 0 0 0 0 0 0
0 0 0 0 7 4 5 67 124 117 87 46 112 217 334 903 926 1086 928 857 875 1053 1084 1171 1182 1163 1204 1301 1252 1084 926 888 948 833 631 412 302 150 0 0 0 0 0 0 0 0 0 0 0
0 0 0 30 29 21 99 143 164 120 106 144 245 374 824 767 1002 1093 996 889 956 1173 1209 1064 1107 1029 1059 1040 979 918 866 898 886 815 662 535 340 153 12 0 0 0 0 6 29 84 48 10 9
0 0 0 33 42 22 81 154 97 61 110 218 168 470 750 966 1170 1059 1359 1455 2095 1696 1583 1877 1387 1039 1029 909 836 754 688 720 766 752 597 347 210 140 84 65 10 101 56 89 176 163 165 128 86
0 0 0 20 31 7 0 140 147 154 166 132 102 442 666 1068 1566 1262 1792 2145 1522 1743 1747 1866 1556 1326 1042 767 619 658 715 658 642 640 507 276 36 8 13 76 190 186 189 194 238 305 269 193 73
0 0 27 24 21 27 1 19 274 212 121 139 86 557 1029 1622 1559 1321 960 916 1270 1145 1510 1437 1213 1036 738 494 480 454 395 335 324 342 285 198 144 142 173 114 168 295 335 432 421 426 415 242 40
0 0 51 5 1 12 0 126 283 193 161 84 332 987 1232 1284 996 627 530 500 596 725 796 789 656 480 378 347 289 132 147 104 127 227 229 240 290 287 267 185 131 33 47 22 3 13 41 9 10
0 0 0 0 0 2 28 47 139 107 58 113 540 1250 1276 629 525 354 300 305 366 455 486 425 272 201 185 129 102 8 55 59 140 353 393 386 335 221 26 14 0 0 0 0 0 0 0 0 0
0 0 0 5 6 7 4 0 32 0 146 117 432 1132 468 252 224 129 27 40 95 194 256 183 82 7 18 18 21 37 87 225 346 458 519 344 171 41 0 1 4 1 0 0 0 0 0 0 0
0 0 0 4 15 0 0 0 0 0 154 172 299 480 214 226 250 84 10 29 95 221 278 328 132 1 0 7 52 138 213 373 586 628 515 367 135 84 19 34 36 10 0 0 0 0 0 0 0
0 0 0 0 0 0 0 0 0 3 272 219 194 265 224 253 195 165 126 196 266 383 460 447 400 223 26 48 68 97 161 399 560 683 659 322 87 27 27 34 47 29 12 0 0 0 0 0 0
0 0 0 0 0 0 0 0 0 102 290 263 227 239 228 237 137 158 168 71 293 338 493 578 509 415 148 157 107 68 88 194 109 232 106 51 39 27 34 41 40 17 0 0 0 0 0 0 0
0 0 0 0 0 0 0 0 0 61 327 293 280 255 256 281 192 181 209 166 67 146 378 475 406 278 90 112 93 25 60 48 117 59 43 30 29 16 9 11 1 0 0 0 0 0 0 0 0
0 0 0 0 0 0 0 0 0 0 359 332 344 343 379 407 333 273 208 191 180 266 547 639 387 205 138 89 89 80 34 27 36 35 19 22 15 15 11 10 4 0 0 0 0 0 0 0 0
0 0 0 0 0 0 0 0 0 0 0 45 196 396 469 532 493 415 338 281 231 391 544 475 282 183 92 41 32 19 15 45 24 0 1 0 0 0 0 0 0 0 0 0 0 0 0 0 0
0 0 0 0 0 0 0 0 0 0 0 0 0 4 35 60 163 272 344 460 502 415 146 45 38 27 8 2 21 25 2 2 0 0 0 0 0 0 0 0 0 0 0 0 0 0 0 0 0
0 0 0 3 0 0 0 0 0 0 0 0 3 8 31 47 81 43 76 96 47 25 6 4 0 0 0 0 0 0 0 0 0 0 0 0 0 0 0 0 0 0 0 0 0 0 0 0 0
1 0 0 0 1 0 0 0 0 0 0 0 12 20 33 1 0 0 0 0 0 0 0 0 0 0 0 0 0 0 0 0 0 0 0 0 0 0 0 0 0 0 0 0 0 0 0 0 0
0 0 0 0 0 0 0 0 0 0 0 0 0 3 4 0 0 1 0 0 0 0 0 0 0 0 0 0 0 0 0 0 0 0 0 0 0 0 0 0 0 0 0 0 0 0 0 0 0
0 0 0 0 0 0 0 0 0 0 0 0 0 0 0 0 0 1 0 0 0 0 0 0 0 0 0 0 0 0 0 0 0 0 0 0 0 0 0 0 0 0 0 0 0 0 0 0 0
0 0 0 0 0 0 0 0 0 0 0 0 0 0 0 0 0 0 5 0 0 0 0 0 0 0 0 0 0 0 0 0 0 0 0 0 0 0 0 0 0 0 0 0 8 1 0 0 0
0 0 0 0 0 0 0 0 0 0 0 0 0 0 0 0 0 7 0 0 0 0 0 0 0 0 0 0 0 0 0 0 0 0 0 0 0 0 0 0 0 3 0 7 6 5 0 0 0
0 0 0 0 0 0 0 0 0 0 0 0 0 0 0 0 0 0 0 0 0 0 0 0 0 0 0 0 0 0 0 0 0 0 0 0 0 0 0 2 5 2 14 7 10 0 0 0 0
0 0 0 0 0 0 0 0 0 0 0 0 0 0 0 0 0 0 0 0 0 0 0 0 0 0 0 0 0 0 0 0 0 0 0 0 0 0 1 11 19 19 2 1 2 0 0 0 0
0 0 0 0 0 0 0 0 0 0 0 0 0 0 0 0 0 0 0 3 4 2 7 10 0 0 0 0 0 0 0 0 0 0 0 0 0 0 10 12 11 1 0 0 0 0 0 0 0
0 0 0 0 0 0 0 0 0 0 0 0 0 0 0 0 2 1 4 18 16 12 2 0 0 0 0 0 0 0 0 0 0 0 0 0 0 0 11 0 1 0 0 0 0 0 0 0 0

GFSSGP_con_mucape_009.txt.gz
CAPE
0 0 0 0 0 0 0 0 0 120 101 67 153 183 186 182 130 185 370 501 753 1007 1014 819 677 898 948 925 1014 1058 1045 749 679 657 525 412 379 297 204 160 355 161 15 3 0 0 0 0 0
0 0 0 0 0 0 0 0 112 136 106 59 85 113 112 68 153 442 603 835 944 1100 1065 780 712 982 1055 1070 1188 1139 1037 785 776 682 489 396 259 137 127 116 226 30 0 0 0 0 0 0 0
0 0 0 0 0 0 0 54 113 67 26 20 21 54 78 94 193 585 782 1038 1182 1198 1070 837 834 992 1191 1281 1252 1200 1138 1097 1039 731 480 359 201 41 40 22 73 0 0 0 0 0 0 0 0
0 0 0 0 0 0 0 140 161 55 22 7 0 35 93 305 632 483 1177 1222 1170 1058 925 763 823 1054 1337 1402 1378 1309 1195 1118 1023 811 524 342 161 40 0 0 0 0 0 0 0 0 0 0 0
0 0 0 0 0 0 0 159 149 114 7 17 0 22 177 778 938 1183 1193 1177 1123 1075 1088 1032 956 983 1316 1529 1539 1307 1129 988 955 830 669 358 191 36 0 0 0 0 0 0 0 0 0 0 0
0 0 0 0 0 1 1 125 87 83 78 31 94 148 393 1110 1295 1247 1165 1163 1012 1124 1231 1308 1037 1020 1339 1463 1308 1019 888 887 841 784 602 353 222 49 0 0 0 0 0 1 0 0 0 0 0
0 0 0 0 2 32 94 147 67 73 112 107 207 312 1109 1080 1200 1230 1094 1224 1275 1236 1236 1401 1462 1372 1185 1082 990 889 778 823 776 709 588 391 221 88 38 35 46 14 11 124 114 62 83 28 65
0 0 0 9 28 70 88 77 82 54 130 273 313 628 888 1205 1397 1271 1218 1277 1190 1420 1324 1521 1470 1323 1252 1193 984 873 743 706 689 594 452 206 146 70 112 39 50 157 175 161 184 250 242 182 103
0 0 0 9 41 26 46 71 146 205 246 287 193 693 885 1241 1434 1269 1384 1011 1528 1479 1286 1064 1153 948 1134 1236 1006 775 686 634 605 506 372 159 153 177 162 101 134 274 200 292 380 363 322 249 64
0 0 5 56 8 5 0 0 218 235 260 149 526 1123 1365 1589 1139 1377 1411 1102 1074 1096 1318 1538 1536 1656 1122 860 835 734 559 428 420 395 494 415 410 387 292 259 127 131 148 293 213 199 213 133 133
0 0 40 50 16 41 5 11 267 212 189 109 865 1380 1453 1835 1757 1310 945 857 884 962 1410 1379 1367 1215 983 748 611 485 385 315 327 436 445 562 535 673 619 481 311 258 38 32 2 22 64 87 23
0 3 46 18 0 63 24 48 377 216 74 118 989 1386 1328 1700 1286 807 788 727 734 830 858 925 893 743 538 405 367 170 177 208 343 488 631 707 705 553 177 108 2 0 0 0 0 0 0 0 0
0 0 0 5 9 17 49 244 195 83 133 358 1058 1289 1501 1495 1199 766 506 443 500 554 683 692 432 317 212 122 56 34 102 213 396 598 622 670 433 189 28 3 1 6 20 0 0 0 0 0 0
0 0 0 0 19 39 47 1 47 1 193 541 1042 1199 1165 843 521 245 127 126 259 365 535 364 167 36 12 8 54 99 108 171 288 305 295 228 175 82 54 7 19 35 47 24 8 0 0 0 0
0 0 0 0 16 4 0 0 0 2 210 324 898 973 970 359 147 155 27 2 40 253 322 323 246 59 13 56 69 44 42 12 32 181 183 139 98 46 43 38 39 45 49 22 0 0 0 0 0
0 0 0 0 0 0 0 0 0 108 241 207 591 710 459 276 303 288 201 75 85 186 370 449 404 266 73 59 5 5 3 1 1 75 45 17 30 31 9 20 8 3 8 0 0 0 0 0 0
0 0 0 0 0 0 0 0 0 102 256 180 218 300 326 296 260 199 184 111 60 441 470 437 448 250 159 50 15 16 25 21 81 62 26 16 16 5 6 2 1 9 8 0 0 0 0 0 0
0 0 0 0 0 0 0 0 0 15 300 269 186 218 241 253 286 252 160 140 168 274 308 370 417 281 125 90 69 59 25 20 17 30 43 35 1 1 0 0 0 0 0 0 0 0 0 0 0
0 0 0 0 0 0 0 0 0 0 239 353 312 298 265 340 373 360 316 296 299 457 556 563 372 225 85 22 0 3 0 0 28 4 0 0 0 0 0 0 0 0 0 0 0 0 0 0 0
0 0 0 0 0 0 0 0 0 0 0 10 53 168 272 362 332 226 275 369 403 316 129 102 42 21 1 0 0 0 0 0 0 0 0 0 0 0 0 0 0 0 0 0 0 0 0 0 0
1 1 0 0 0 0 0 0 0 0 0 0 4 33 91 149 158 140 47 1 0 0 0 0 0 0 0 0 0 0 0 0 0 0 0 0 0 0 0 0 0 0 0 0 0 0 0 0 0
8 3 0 1 1 6 0 2 0 0 10 41 14 18 33 22 0 0 0 0 0 0 0 0 0 0 0 0 0 0 0 0 0 0 0 0 0 0 0 0 0 0 0 0 0 0 0 0 0
0 0 0 0 0 0 0 0 0 4 13 15 22 0 0 0 0 0 0 0 0 0 0 0 0 0 0 0 0 0 0 0 0 0 0 0 0 0 0 0 0 0 0 0 0 0 0 0 0
0 0 0 0 0 0 0 0 0 0 0 0 0 0 0 0 1 0 0 0 0 0 0 0 0 0 0 0 0 0 0 0 0 0 0 0 0 0 0 0 0 0 0 0 7 1 0 0 0
0 0 3 2 0 0 0 0 0 0 0 0 0 0 0 0 0 0 1 2 0 0 0 0 0 0 0 0 0 0 0 0 0 0 0 0 0 0 0 0 0 0 0 7 4 0 0 0 0
0 0 17 0 0 0 0 0 0 0 0 0 0 0 0 0 0 0 2 0 0 0 0 0 0 0 0 0 0 0 0 0 0 0 0 0 0 0 0 0 0 0 7 10 7 0 0 0 0
0 0 0 0 0 0 0 0 0 0 0 0 0 0 0 0 0 0 0 0 0 0 0 0 0 0 0 0 0 0 0 0 0 0 0 0 0 0 0 0 0 8 20 10 0 2 4 4 16
0 0 0 0 0 0 0 0 0 0 0 0 0 0 0 0 0 0 0 0 0 0 0 0 0 0 0 2 0 0 0 0 0 0 0 0 0 0 0 0 8 17 4 0 0 2 12 0 22
0 0 0 0 0 0 0 0 0 0 0 0 0 0 0 0 0 0 0 0 1 2 5 9 2 3 2 0 0 0 0 0 0 0 0 0 0 0 0 6 19 20 7 6 5 3 0 0 15
0 0 0 0 0 0 0 0 0 0 0 0 0 0 0 0 0 0 2 3 6 13 16 23 16 7 0 0 0 0 0 0 0 0 0 0 0 0 0 5 3 13 10 12 0 0 0 0 0

GFSSGP_con_mucape_012.txt.gz
CAPE
0 0 0 0 0 0 0 0 12 516 453 442 469 413 247 217 485 338 578 677 885 1028 863 538 784 921 913 944 1051 1076 1094 822 689 555 422 323 226 134 147 108 194 11 0 0 0 0 0 0 0
0 0 0 0 0 0 1 0 4 558 189 145 180 80 85 25 329 705 678 938 1001 1060 951 736 705 943 1026 1155 1181 1198 1071 847 736 514 368 231 137 103 74 10 115 2 0 0 0 0 0 0 0
0 0 0 0 0 0 0 0 432 295 181 174 191 135 77 53 143 429 752 1062 1199 1218 936 1028 791 811 968 1105 1063 1254 1241 1178 855 607 345 219 69 43 11 0 0 0 0 0 0 0 0 0 0
0 0 0 0 0 0 0 319 409 296 146 83 1 10 8 1 208 491 966 1002 1039 1067 1190 649 683 774 949 1104 1175 1423 1308 1104 910 760 405 217 80 2 0 0 0 0 0 0 0 0 0 0 0
0 0 0 0 0 0 0 500 469 321 119 110 68 22 43 334 690 902 979 822 634 1154 1332 969 737 666 995 1241 1540 1399 1199 1024 906 761 478 258 41 0 0 0 0 0 0 0 0 0 0 0 0
0 0 0 0 0 0 0 422 638 181 45 135 183 230 330 1222 1179 1162 1149 1232 964 1135 1219 1139 691 835 983 1403 1368 1059 954 958 909 671 444 248 39 1 0 0 0 0 0 0 0 0 1 0 0
0 0 0 0 28 73 72 531 384 54 170 174 385 511 1165 1277 1308 1253 1272 1143 1253 1408 1500 1262 1083 835 1130 1204 946 794 819 835 770 664 501 249 98 69 52 47 34 3 1 26 49 48 92 92 66
0 0 0 30 151 485 495 81 12 21 158 485 719 691 1298 1456 1404 1390 1333 1465 1564 1456 1389 1348 1196 1321 1287 1269 891 758 723 696 670 523 355 190 105 104 104 25 109 116 104 98 131 171 195 175 180
0 0 1 142 355 173 136 54 54 73 251 550 312 906 1225 1513 1519 1526 1312 1428 1459 1355 1340 1341 1302 1244 1133 1017 1078 720 702 625 516 436 224 118 151 173 144 89 166 264 268 284 345 325 310 199 212
0 0 4 98 265 93 25 15 100 230 484 274 1167 1460 1771 1844 1801 1595 1575 1351 1306 1336 1373 1262 1425 1304 1154 775 737 580 284 213 251 466 500 381 663 617 413 238 176 119 96 166 19 8 66 70 0
0 0 0 149 64 12 1 33 82 367 596 421 1203 1700 1628 1633 1513 1397 1314 1501 1291 1180 1249 1316 1549 1207 1067 699 485 220 185 262 558 785 859 821 999 939 665 311 191 195 0 63 1 1 0 1 0
0 6 16 57 133 120 47 54 370 450 182 358 1426 1839 1615 1480 1431 1408 1090 631 694 935 944 1147 1362 1149 822 482 194 225 282 471 699 931 1080 1034 963 965 565 276 170 176 80 22 0 0 0 0 0
0 46 0 16 4 74 60 265 366 63 479 1151 1463 1668 1690 1323 1064 636 511 529 555 525 748 932 866 749 684 388 316 404 621 852 984 1047 903 666 661 706 624 311 119 17 26 25 16 2 0 0 0
0 5 0 9 6 29 81 174 126 34 693 1137 1505 1453 1583 1359 897 568 414 367 411 466 862 961 720 597 431 356 504 638 314 132 205 252 171 120 12 114 411 70 5 28 50 47 23 7 0 0 0
0 0 0 6 0 37 6 0 0 24 386 1127 1131 1317 1427 1184 830 394 292 228 244 582 948 937 743 512 554 518 61 37 26 8 36 78 77 75 39 12 18 26 21 35 29 1 0 0 0 0 0
0 0 0 0 0 24 0 0 0 91 345 1024 1086 1082 924 516 379 269 299 259 193 491 984 976 712 640 603 40 37 15 31 17 22 33 55 52 28 10 22 16 0 0 0 0 0 0 0 0 0
0 0 0 0 0 0 0 0 0 222 384 516 761 821 676 383 299 362 384 291 312 678 1153 1105 947 895 551 42 36 8 19 34 53 66 31 20 9 8 0 0 0 0 0 0 0 0 0 0 0
0 0 0 0 0 0 0 10 0 282 421 426 480 539 522 458 301 295 450 611 825 948 1154 1247 827 600 517 202 89 56 49 12 9 25 43 1 0 0 0 0 0 0 0 0 0 0 0 0 0
0 0 0 0 4 64 36 27 13 128 431 526 496 502 484 447 231 447 622 807 948 1028 1066 1157 829 704 581 196 17 0 0 0 0 0 0 0 0 0 0 0 0 0 0 0 0 0 0 0 0
0 0 21 0 0 107 114 147 29 12 198 431 551 585 560 366 409 490 811 997 1113 1129 1077 911 767 624 381 66 0 4 8 0 0 0 0 0 0 0 0 0 0 0 0 0 0 0 0 0 11
20 52 87 56 18 73 150 183 142 34 13 17 166 327 362 434 511 720 779 760 667 630 575 270 62 4 0 0 0 0 0 0 0 0 0 0 0 0 0 0 0 0 0 0 1 0 1 5 5
134 12 23 61 62 89 65 176 239 164 143 163 144 281 325 445 394 146 23 63 4 0 0 0 0 0 0 0 0 0 0 0 0 0 0 0 0 0 0 0 0 0 0 0 3 1 0 0 0
117 12 114 67 139 121 73 158 316 182 211 260 222 241 162 63 1 0 0 0 0 0 0 0 0 0 0 0 0 0 0 0 0 0 0 0 0 0 0 0 0 0 0 1 1 0 0 2 6
3 52 51 56 107 144 108 116 177 302 269 261 205 11 16 0 0 0 0 0 0 0 0 0 0 0 0 0 0 0 0 0 0 0 0 0 0 0 0 0 0 6 7 10 2 0 2 1 0
65 127 157 100 150 164 14 47 99 91 50 272 205 0 0 0 0 0 0 0 0 0 0 0 0 0 0 0 0 0 0 0 0 0 0 0 0 0 0 0 0 5 17 5 9 6 11 5 0
126 130 83 20 122 54 1 25 32 0 0 109 110 0 0 0 0 0 0 0 0 0 0 0 0 0 0 0 0 0 2 2 0 0 0 0 0 0 0 0 0 11 26 7 2 35 32 18 10
0 30 23 53 1 47 15 41 6 0 0 0 20 0 0 0 0 0 0 0 0 0 0 0 0 0 0 0 0 0 0 0 0 0 0 0 0 0 0 6 20 29 21 21 49 44 29 24 14
0 0 8 13 2 0 0 0 0 0 0 0 1 0 0 0 0 0 0 0 0 0 0 0 0 2 0 3 1 0 0 0 0 0 0 0 0 0 0 11 38 54 32 35 38 44 29 16 23
0 0 0 0 0 0 0 0 0 0 0 0 0 0 0 0 0 0 0 0 0 3 1 0 0 6 9 0 0 0 0 0 0 0 0 0 0 0 0 3 30 38 47 30 59 71 20 22 32
0 0 0 0 0 0 0 0 0 0 0 0 0 0 0 0 0 0 0 0 3 5 1 3 9 8 10 0 0 0 0 0 0 0 0 0 0 0 0 2 21 43 54 61 58 47 18 25 33

GFSSGP_con_mucape_015.txt.gz
CAPE
0 0 0 0 0 0 0 8 4 519 544 646 592 542 515 464 804 595 445 794 793 788 422 312 858 958 917 886 1033 1143 1073 677 562 428 317 211 146 166 128 152 187 10 0 0 0 0 0 0 0
0 0 0 0 0 0 16 17 1 729 368 309 254 288 171 432 752 928 722 750 873 853 341 260 782 884 1065 1036 1079 1083 987 682 509 366 245 151 107 52 47 19 56 0 0 0 0 0 0 0 0
0 0 0 0 0 2 51 5 706 488 400 258 120 55 40 63 491 793 741 745 976 858 616 486 740 790 827 870 916 1112 1089 928 644 482 208 114 36 0 0 0 0 0 0 0 0 0 0 0 0
0 0 0 0 7 29 0 392 355 315 212 225 191 24 36 0 61 585 1039 784 886 846 873 444 645 797 741 719 1031 1041 1186 873 756 554 204 56 0 0 0 0 0 0 0 0 0 0 0 0 0
0 0 0 0 8 46 0 289 328 261 59 117 145 3 0 2 111 531 878 888 691 557 610 572 550 638 616 722 929 1166 991 877 735 453 225 34 0 0 0 0 0 0 0 0 0 0 0 3 17
0 0 0 14 57 0 0 332 492 72 9 31 226 72 220 462 525 584 568 138 310 836 852 665 458 632 448 925 1039 982 903 812 700 447 222 15 3 0 0 6 5 0 13 22 20 33 56 54 54
0 0 0 31 17 64 28 558 198 92 0 28 191 383 951 903 1067 1021 270 18 10 339 913 1051 802 536 664 760 688 700 734 715 652 423 218 46 32 38 48 47 42 36 45 73 78 94 140 138 123
0 0 0 31 56 145 286 155 251 105 161 6 220 518 858 1172 1542 1183 790 540 637 468 1275 1236 938 932 1093 975 633 636 638 630 554 318 126 71 78 36 42 51 125 157 148 203 341 348 308 269 293
0 0 3 41 280 487 34 3 21 37 58 164 625 725 1094 1484 1485 1314 1087 994 1164 1199 1144 1088 1007 870 904 924 772 638 664 590 452 355 102 55 177 158 87 87 157 276 204 197 240 133 148 232 315
0 0 20 95 107 252 110 31 12 1 19 341 792 1222 1567 1581 1406 1324 1352 1318 1130 1057 994 975 918 884 759 475 532 324 75 135 256 488 319 248 443 431 19 69 221 209 121 202 142 70 116 100 17
0 3 6 56 45 86 5 0 7 5 93 427 1071 1403 1524 1332 1261 1334 1114 1001 898 1173 1005 1046 1366 1246 524 380 240 104 138 377 675 678 628 661 541 684 476 296 331 309 91 201 115 72 35 26 9
0 0 4 125 0 0 0 18 117 6 0 164 1145 1359 1134 1524 1423 1092 551 379 497 696 1066 968 945 1082 516 279 156 113 346 530 539 794 783 828 686 620 556 316 342 374 227 134 102 88 37 7 0
0 5 3 17 56 25 37 25 4 181 261 738 1583 1308 1065 1191 868 410 320 338 419 455 658 718 776 618 499 256 332 669 741 801 856 930 661 678 773 665 464 648 437 202 98 93 68 47 1 0 0
2 0 0 0 0 26 62 64 4 119 285 724 925 500 437 474 348 268 257 319 325 397 665 663 561 516 327 481 774 536 237 138 103 197 340 504 428 312 133 83 138 39 97 12 13 0 0 0 0
0 0 0 2 0 34 54 0 28 252 385 476 452 448 476 349 269 209 174 282 415 617 868 771 745 533 474 763 321 86 3 29 14 67 237 219 237 91 28 31 16 15 11 0 0 0 0 0 0
0 0 16 9 30 38 33 0 35 157 405 468 567 681 707 545 380 288 296 237 395 815 1360 1089 659 679 823 522 170 15 39 9 0 0 2 8 17 18 2 6 0 0 0 0 0 0 0 0 0
1 0 2 5 4 37 3 0 93 140 368 568 696 889 806 627 521 559 534 416 346 723 1370 1357 1061 1018 705 394 167 307 113 30 9 14 2 6 0 0 0 0 0 0 0 0 0 0 0 0 0
2 6 15 23 0 0 0 6 67 170 214 540 625 813 798 717 676 739 717 599 573 847 1513 1593 1317 1206 612 392 445 338 137 31 5 17 22 0 0 0 0 0 0 0 0 0 0 0 0 0 0
4 2 6 6 0 0 0 18 0 218 243 288 406 626 736 797 773 817 937 1132 1126 1320 1539 1046 1094 1223 794 810 583 73 9 1 0 0 0 0 0 0 0 0 0 0 0 0 0 2 0 0 0
0 2 18 3 0 49 8 72 63 167 253 370 387 438 533 745 742 953 1173 1359 1413 1423 1408 1122 1060 936 913 481 65 21 49 30 0 0 0 0 0 0 0 0 0 0 0 0 0 1 0 0 0
14 4 28 46 68 90 104 178 180 128 232 442 543 583 610 800 914 1126 1354 1455 1367 1307 1269 1184 943 734 288 28 27 48 14 0 0 0 0 0 0 0 0 0 0 0 0 0 0 1 7 0 0
45 67 36 69 155 125 78 95 170 243 204 210 386 573 705 765 914 1201 1260 1189 1035 894 674 359 96 7 1 0 0 1 19 21 0 0 0 0 0 0 0 0 0 0 0 0 0 0 3 6 7
225 108 147 145 121 49 130 121 63 328 272 257 297 393 535 773 950 637 417 246 107 45 8 0 0 0 0 0 0 0 0 0 0 0 0 0 0 0 0 0 0 0 0 1 6 14 14 20 26
129 184 197 193 181 217 82 117 279 414 333 354 406 530 604 606 311 65 1 0 0 0 0 0 0 0 0 0 0 0 0 0 0 0 0 1 0 0 0 0 0 0 0 7 16 21 27 32 23
157 219 215 175 267 209 146 151 142 94 197 330 472 470 437 268 4 0 0 0 0 0 0 0 0 0 0 0 0 0 0 0 0 0 0 0 0 0 0 0 0 0 0 7 14 27 30 58 26
171 176 195 46 152 128 187 101 130 198 63 130 434 345 276 49 0 0 0 0 0 0 0 0 0 0 0 0 0 0 0 7 0 0 0 0 0 0 0 0 0 3 10 17 33 56 76 57 43
138 132 139 219 180 177 53 40 115 108 57 109 412 290 143 2 0 0 0 0 0 0 0 0 0 0 0 0 0 0 3 1 0 0 0 0 0 0 0 0 0 10 19 25 56 65 68 80 52
61 67 65 19 7 34 55 35 12 135 49 69 360 267 92 2 0 0 0 0 0 0 0 0 0 0 0 0 0 0 12 0 0 0 0 0 0 0 0 0 0 5 43 50 54 56 60 47 55
50 0 0 44 103 32 0 17 0 0 9 39 167 240 113 15 0 0 0 0 0 0 0 0 0 2 1 0 0 8 3 0 0 0 0 0 0 0 0 0 0 3 24 40 59 46 63 78 45
49 88 38 0 0 0 21 0 0 0 0 8 37 115 97 34 0 1 0 0 0 0 0 0 3 6 4 2 3 1 0 0 0 0 0 0 0 0 0 0 6 16 21 23 46 58 59 53 51

GFSSGP_con_mucape_018.txt.gz
CAPE
0 0 0 0 0 0 0 0 0 383 839 570 448 439 668 797 952 579 719 710 473 306 192 335 690 752 809 966 1127 1055 989 779 504 288 305 223 126 93 165 198 86 12 0 0 0 0 0 0 0
0 0 0 0 0 0 0 5 312 888 732 402 401 320 388 730 894 704 908 785 514 140 122 316 711 778 945 1139 1185 1069 907 587 440 297 175 206 59 8 23 104 62 34 0 0 0 0 0 0 0
0 0 0 0 0 0 0 21 305 705 439 309 114 256 42 457 834 659 967 901 678 188 199 491 604 540 763 874 710 961 847 610 454 326 155 25 0 0 0 158 125 24 0 0 0 0 0 0 44
0 0 0 0 0 0 0 191 715 481 388 212 86 15 52 39 484 777 882 847 794 575 381 406 386 317 633 751 1057 930 778 595 452 340 233 0 0 0 9 182 136 0 0 0 0 0 11 125 106
0 0 0 0 0 0 1 435 531 328 181 107 119 9 0 43 382 902 675 882 742 340 208 281 248 424 678 1053 1104 888 778 596 486 371 172 39 0 0 56 183 152 29 21 5 0 32 119 148 124
0 0 0 0 0 1 102 354 254 106 103 145 75 0 90 138 436 626 716 710 489 284 361 198 225 527 739 929 845 720 638 574 493 353 154 110 142 146 198 202 212 209 212 220 165 219 219 233 152
0 0 0 0 0 5 549 416 201 79 224 104 32 36 103 373 924 359 101 99 99 306 278 225 403 635 585 538 476 496 525 513 481 348 213 225 225 213 250 290 280 284 290 312 332 366 357 357 313
0 0 0 0 0 321 238 143 76 27 6 24 0 14 472 747 725 162 9 4 5 103 142 278 290 870 614 446 374 377 422 393 361 234 112 101 125 116 141 238 328 293 228 249 279 276 282 362 317
0 0 0 2 123 149 35 66 44 178 78 0 45 334 1012 1261 803 118 52 3 105 52 255 566 782 751 713 485 416 432 461 374 328 122 61 74 69 81 105 167 193 161 100 125 200 86 94 177 175
0 0 0 277 256 78 0 44 23 33 275 376 184 44 1230 1238 955 759 590 184 113 160 511 621 714 789 704 375 353 164 100 93 279 217 134 393 466 132 18 158 194 274 176 163 224 192 189 174 4
0 0 1 144 61 27 93 86 23 3 19 178 471 965 1096 945 1046 687 608 576 574 667 687 809 908 760 416 318 378 60 234 471 649 636 745 748 714 705 433 598 216 281 216 219 111 130 94 50 30
0 0 0 13 109 185 170 35 15 0 0 16 293 847 1172 1091 1001 897 586 816 881 930 897 859 807 1160 377 310 250 339 515 709 808 870 730 936 926 877 596 403 245 203 79 132 71 36 5 5 1
0 0 0 109 5 54 55 22 33 5 4 41 377 591 909 934 411 205 190 318 634 762 871 780 1004 713 540 428 760 660 520 365 500 483 572 531 517 368 188 77 37 120 10 18 1 0 0 0 0
0 2 0 12 56 92 25 13 35 6 156 432 520 477 542 398 124 188 156 266 260 567 553 591 581 563 618 857 600 272 86 32 58 163 385 415 516 299 36 43 6 2 0 0 0 0 0 0 0
0 0 0 3 0 109 31 105 56 72 345 474 229 291 189 168 127 126 244 235 234 511 574 653 612 558 666 669 346 36 3 14 8 38 49 45 128 23 7 0 0 0 0 0 0 0 0 0 0
0 0 0 0 3 33 64 10 31 213 143 169 175 157 153 134 101 152 215 258 329 569 591 642 508 595 839 512 130 104 47 22 0 0 0 0 0 0 0 0 0 0 0 0 0 0 0 0 0
1 0 0 0 0 27 9 0 14 153 96 130 310 206 361 266 176 212 196 194 456 941 932 714 914 895 548 367 201 248 201 54 2 8 0 0 0 0 0 0 0 0 0 0 0 0 0 0 0
0 0 0 1 0 6 0 1 21 70 98 322 351 418 502 453 421 455 379 360 282 1265 1311 1007 1100 811 511 314 339 474 281 34 7 0 0 0 0 0 0 0 0 0 0 0 0 0 0 0 0
0 0 5 3 0 0 4 1 20 54 160 312 425 522 521 532 566 730 878 878 737 1504 1464 1133 902 579 517 436 427 350 19 0 0 0 0 0 0 0 0 0 0 0 0 0 0 0 0 0 0
0 5 2 0 0 0 1 22 0 45 79 222 307 477 598 622 774 848 1075 1290 1442 1590 1512 1037 869 583 706 774 250 4 1 0 0 0 0 0 0 0 0 0 0 0 0 0 0 0 0 0 0
0 23 14 7 0 0 28 16 0 6 98 145 206 302 416 678 779 980 1194 1421 1643 1255 1279 830 819 824 976 255 11 9 0 0 0 0 0 0 0 0 0 0 0 0 0 0 0 0 0 0 0
7 22 9 4 34 27 28 49 91 7 13 63 223 310 376 608 788 1023 1267 1373 1191 976 1149 1045 929 604 120 11 0 0 0 0 0 0 0 0 0 0 0 0 0 0 0 0 0 0 0 0 0
15 6 27 46 29 78 2 53 48 89 56 110 298 465 551 762 847 1042 1278 1304 1184 1081 852 380 143 25 0 0 0 0 0 0 0 0 0 0 0 0 0 0 0 0 0 0 0 0 1 0 2
78 85 115 4 52 133 22 2 111 10 18 163 181 331 506 607 866 945 830 604 342 208 108 9 0 0 0 0 0 0 0 0 0 0 0 2 0 0 0 0 0 0 0 0 0 0 0 0 0
2 1 68 62 75 258 118 61 222 48 64 236 235 336 537 773 674 404 167 30 10 0 0 0 0 0 0 0 0 0 0 0 0 1 14 16 0 0 0 0 0 0 0 0 0 0 0 0 0
129 0 178 0 1 166 18 68 68 221 181 77 326 454 581 506 254 45 3 0 0 0 0 0 0 0 0 0 0 0 0 0 0 2 16 3 0 0 0 0 0 0 0 0 0 0 2 4 8
0 92 63 21 87 250 3 0 107 84 47 5 452 443 429 295 46 0 0 0 0 0 0 0 0 0 0 0 0 0 0 0 4 13 5 0 0 0 0 0 0 0 0 4 8 1 11 33 20
5 0 148 64 9 3 3 1 128 105 33 18 280 422 353 240 15 0 0 0 0 0 0 0 0 0 0 0 0 0 0 1 9 5 0 0 0 0 0 0 0 0 0 16 27 19 29 13 15
29 1 0 0 410 464 210 6 2 0 0 33 94 479 319 165 4 0 0 0 0 0 0 0 0 0 0 0 1 4 8 5 4 0 0 0 0 0 0 0 0 0 0 3 1 0 8 14 22
1 115 0 607 31 415 320 5 0 0 0 0 9 185 285 141 16 0 0 0 0 0 0 0 0 0 0 0 1 5 7 6 0 0 0 0 0 0 0 0 0 0 4 11 7 15 23 38 22

GFSSGP_con_mucape_021.txt.gz
CAPE
0 0 0 0 0 0 0 0 93 744 548 580 705 871 929 1008 1047 486 688 682 338 348 563 590 680 775 899 1035 1061 890 754 413 293 264 283 176 67 0 51 81 41 3 0 0 0 0 0 0 0
0 0 0 0 0 0 0 0 782 861 601 478 492 545 652 937 953 918 827 691 483 286 291 439 735 778 1023 1001 936 728 490 322 309 231 142 154 0 0 17 156 98 39 0 0 0 0 0 0 0
0 0 0 0 0 0 0 71 774 581 362 280 219 401 456 897 914 897 805 703 417 195 345 578 611 696 961 950 842 620 479 365 288 197 131 23 4 30 41 158 102 23 0 0 0 0 0 0 61
0 0 0 0 0 0 0 199 678 523 357 241 205 141 279 487 800 996 554 528 432 350 442 261 313 432 796 965 825 639 432 321 235 155 133 26 41 56 80 185 135 0 0 0 0 0 0 99 97
0 0 0 0 0 0 58 575 752 484 391 275 126 4 9 730 883 760 460 286 379 266 208 115 194 320 672 951 790 577 417 324 212 165 157 147 76 37 116 269 178 27 29 16 21 35 150 176 137
0 0 0 0 0 92 617 342 366 437 254 205 164 226 147 710 630 580 486 349 82 55 64 128 414 198 684 689 560 424 371 305 179 211 203 202 263 289 305 331 335 227 206 233 202 174 108 164 212
0 0 0 0 0 131 588 345 193 189 265 322 163 145 73 505 367 261 221 73 45 111 31 124 212 446 462 374 341 308 334 270 178 196 223 215 224 289 359 364 358 315 240 176 146 85 46 105 159
0 0 0 0 0 135 278 193 196 147 157 127 95 59 131 256 94 125 65 23 110 100 3 83 294 222 290 204 231 192 181 149 113 125 115 97 173 260 298 277 292 197 68 23 24 22 50 71 66
0 0 0 0 331 125 78 214 346 30 51 1 62 402 362 45 6 62 44 17 15 1 1 1 224 257 240 123 151 165 222 132 68 61 38 30 45 20 71 52 138 79 0 0 19 45 40 61 5
0 0 0 170 294 80 33 16 21 24 26 0 0 458 162 29 2 60 6 28 66 2 33 101 234 339 215 129 71 57 106 32 0 130 106 126 86 10 5 29 102 45 27 25 38 86 114 74 0
0 0 85 133 35 30 63 44 0 0 129 174 9 109 327 112 98 18 31 43 55 103 191 284 393 465 244 87 28 112 216 167 202 292 302 232 248 136 140 135 57 42 25 44 37 12 10 0 0
0 0 42 107 113 101 67 46 13 1 67 14 0 246 444 237 147 86 61 39 99 259 356 525 596 447 178 182 107 114 255 328 468 436 432 323 360 188 75 48 40 25 18 8 10 9 10 0 0
0 2 91 48 26 35 64 23 0 0 1 76 280 535 603 530 385 211 137 210 570 603 570 577 662 299 221 209 335 375 426 486 415 391 458 386 320 191 185 31 3 0 1 1 0 0 0 0 0
0 11 136 104 10 0 0 9 2 3 50 336 536 674 717 324 234 639 538 582 592 574 606 689 426 180 303 336 304 302 235 183 47 65 41 143 154 57 0 0 0 0 0 0 0 0 0 0 0
16 5 2 64 53 39 2 0 47 83 400 500 556 714 659 55 130 248 544 501 406 437 499 671 209 386 264 162 155 107 10 0 0 0 0 39 142 15 0 1 1 0 0 0 0 0 0 0 0
0 0 1 9 63 65 2 25 115 225 417 428 329 248 286 93 90 104 93 447 306 304 368 351 227 467 347 316 168 4 15 10 0 0 0 0 0 0 0 0 0 0 0 0 0 0 0 0 0
0 0 0 0 18 5 6 16 205 361 426 322 155 73 88 36 90 80 86 355 338 252 346 313 311 487 350 299 186 19 45 17 0 0 0 0 0 0 0 0 0 0 0 0 0 0 0 0 0
0 0 0 4 5 10 23 0 202 195 96 143 125 125 128 73 58 69 95 177 387 369 360 320 431 509 433 401 62 69 84 28 3 1 0 0 0 0 0 0 0 0 0 0 0 0 0 0 0
0 0 0 0 0 0 0 1 68 165 111 79 173 177 202 253 241 145 107 325 618 754 601 459 508 549 498 211 81 175 64 15 0 0 0 0 0 0 0 0 0 0 0 0 0 0 0 0 0
0 0 0 0 0 0 2 7 10 148 243 258 187 188 272 344 361 400 461 709 983 898 929 600 626 668 573 199 222 158 20 0 0 0 0 0 0 0 0 0 0 0 0 0 0 0 0 0 0
8 14 1 0 0 0 0 0 0 7 60 320 397 231 242 398 552 627 738 827 1254 1124 1039 730 749 677 362 310 342 6 0 0 0 0 0 0 0 0 0 0 0 0 0 0 0 0 0 0 0
0 0 4 2 4 0 0 12 15 20 57 74 218 282 385 573 672 757 950 1003 1280 1242 965 744 673 364 422 530 0 0 0 0 0 0 0 0 0 0 0 0 0 0 0 0 0 0 0 0 0
7 0 0 8 0 2 2 8 22 0 0 8 33 170 350 675 711 855 1055 1184 1165 1053 792 561 430 447 502 0 0 0 0 0 0 0 0 0 0 0 0 0 0 0 0 0 0 0 0 0 0
77 16 15 21 2 4 19 0 12 9 0 0 10 179 327 681 691 891 1087 1176 1007 795 785 745 388 94 36 0 0 0 0 0 0 0 0 0 0 1 0 0 0 0 0 0 0 0 0 0 0
41 13 3 0 0 1 26 2 1 12 10 0 14 127 223 661 785 989 1091 955 853 755 619 530 228 120 54 2 0 0 0 0 0 0 0 0 1 0 0 0 0 0 0 0 0 0 0 0 0
3 4 2 3 0 2 8 9 17 0 13 16 74 74 152 741 801 861 841 659 614 497 301 215 158 38 0 0 0 0 0 0 0 0 0 2 4 0 0 0 0 0 0 0 0 0 0 0 0
9 18 26 7 0 1 50 32 12 34 38 51 20 130 487 662 673 655 597 485 297 81 11 0 0 0 0 0 0 0 0 0 2 4 3 10 2 0 0 0 0 0 0 0 0 1 1 0 0
27 5 63 8 0 7 0 11 31 35 28 59 96 213 530 523 477 376 240 110 28 0 0 0 0 0 0 0 0 3 5 9 12 5 17 12 2 0 0 0 0 0 0 0 0 13 9 7 8
5 0 0 2 0 0 23 0 0 0 6 23 269 321 381 364 296 177 29 0 0 0 0 0 0 0 0 0 0 0 2 4 3 9 28 21 0 0 0 0 0 0 0 0 0 0 0 0 0
1 51 54 0 0 0 0 0 0 0 0 0 17 342 368 320 256 165 41 0 0 0 0 0 0 0 0 0 0 1 0 0 20 30 25 0 0 0 0 0 0 0 0 0 0 0 0 3 0

GFSSGP_con_mucape_024.txt.gz
CAPE
0 0 0 0 0 0 0 0 0 69 576 862 887 954 977 994 971 321 695 624 548 880 737 615 621 763 972 998 895 648 472 326 167 136 133 90 19 18 87 46 58 59 0 0 0 0 0 0 0
0 0 0 0 0 0 0 0 168 727 574 609 557 721 923 1115 1071 835 812 649 553 655 590 459 647 864 1031 942 761 479 283 195 203 132 11 46 10 24 79 143 131 148 13 0 0 0 0 0 14
0 0 0 0 0 0 0 50 813 607 590 566 344 437 848 1176 1069 958 918 708 449 510 405 505 699 920 1047 844 613 422 343 250 200 130 42 31 39 43 74 208 194 162 16 0 0 0 0 20 94
0 0 0 0 0 0 0 0 521 463 490 407 306 504 573 1013 1046 995 973 448 280 283 328 496 759 906 900 777 548 445 280 183 148 107 195 115 83 94 162 272 276 33 19 4 0 0 3 85 136
0 0 0 0 0 213 515 223 513 372 260 309 220 210 620 1006 727 791 689 444 382 253 208 260 521 582 714 683 564 411 302 182 138 139 218 232 183 144 259 323 267 133 42 23 0 10 151 112 199
0 0 0 0 0 496 525 457 377 354 224 198 303 407 705 754 575 535 443 208 196 166 119 162 320 253 405 563 481 363 240 166 144 170 249 283 294 307 343 366 346 307 226 157 78 48 78 101 155
0 0 0 0 0 0 534 278 228 261 276 350 312 388 540 885 675 401 283 28 88 54 100 44 80 95 226 328 301 282 184 148 158 193 215 238 243 283 351 345 341 252 142 28 0 17 39 48 68
0 0 0 0 0 63 266 264 208 255 209 209 193 147 713 620 353 295 214 17 36 55 5 39 116 127 124 170 185 185 129 125 167 176 176 155 222 290 273 225 216 114 9 0 0 28 0 0 85
0 0 0 0 267 103 178 232 268 33 100 112 346 427 330 201 124 99 85 71 26 20 22 119 74 154 138 70 87 135 119 108 108 120 94 29 2 1 16 7 57 13 0 0 1 26 39 44 0
0 0 0 49 157 19 50 126 168 88 35 179 346 277 67 17 47 47 9 5 2 0 0 34 123 112 79 48 55 46 42 9 8 28 33 42 11 5 7 27 19 12 10 40 33 95 0 0 0
0 0 29 139 128 51 3 9 3 119 124 64 177 154 16 51 39 7 54 10 0 0 2 33 132 121 37 20 9 11 4 75 73 56 100 98 60 35 52 25 12 10 3 5 0 0 0 0 0
0 0 52 155 147 84 39 3 9 0 104 26 327 65 20 41 29 14 32 38 4 33 84 147 234 128 46 0 35 70 57 125 256 223 207 206 147 52 30 0 0 0 0 0 0 0 0 0 0
2 2 41 192 139 114 90 37 34 35 14 37 312 128 61 41 57 1 0 4 43 83 152 210 296 266 38 26 120 180 273 318 359 344 262 264 176 116 55 14 0 0 0 0 0 0 0 0 0
1 58 20 16 38 51 55 11 9 43 196 329 404 386 130 87 54 0 0 59 145 274 334 373 430 301 86 91 138 262 378 303 297 312 402 233 111 4 9 3 0 0 0 0 0 0 0 0 0
0 34 129 46 59 34 0 34 39 123 151 377 338 449 470 298 118 39 76 201 553 509 517 564 575 358 192 244 301 330 350 306 10 0 0 0 27 0 0 0 0 0 0 0 0 0 0 0 0
0 0 9 109 88 88 10 72 72 343 328 499 561 635 448 500 238 233 280 556 566 526 639 725 522 201 202 290 258 222 96 0 5 0 0 0 0 0 0 0 0 0 0 0 0 0 0 0 0
0 0 0 25 92 52 1 23 112 575 559 559 615 628 149 484 634 635 575 597 544 474 594 269 316 247 249 199 176 114 23 1 17 0 0 0 0 0 0 0 0 0 0 0 0 0 0 0 0
0 0 0 0 0 8 2 13 255 458 491 495 473 377 367 412 532 726 708 559 350 304 626 273 379 276 217 190 182 67 32 12 12 0 0 0 0 0 0 0 0 0 0 0 0 0 0 0 0
0 0 0 0 1 12 8 26 355 536 463 385 228 124 191 176 240 511 797 570 281 272 475 345 391 316 265 245 217 103 54 98 48 0 0 0 0 0 0 0 0 0 0 0 0 0 0 0 0
0 0 0 0 0 1 1 107 363 385 319 122 159 146 109 152 182 207 507 572 452 404 477 378 357 362 343 369 250 85 88 107 34 0 0 0 0 0 0 0 0 0 0 0 0 0 0 0 0
0 0 0 0 0 0 10 18 292 296 166 181 173 191 161 143 118 105 171 512 553 523 629 500 448 471 466 458 285 123 92 77 0 0 0 0 0 0 0 0 0 0 0 0 0 0 0 0 0
0 0 0 1 0 0 0 0 1 154 143 253 250 221 291 281 259 341 285 561 572 664 758 624 642 597 554 522 210 150 123 0 0 0 0 0 0 0 0 0 0 0 0 0 0 0 0 0 0
0 0 0 3 1 0 0 0 0 0 0 26 290 283 396 246 418 440 759 788 823 785 736 710 724 670 664 213 284 131 0 0 0 0 0 0 0 0 0 0 0 0 0 0 0 0 0 0 0
10 8 0 1 3 0 1 1 0 2 0 3 103 344 336 333 473 591 818 1099 1108 996 885 791 850 790 395 518 437 96 7 4 4 10 0 0 0 1 1 0 0 0 0 0 0 0 0 0 0
34 12 0 0 1 0 5 0 0 2 0 0 1 0 87 396 532 795 933 1113 1214 1059 690 520 503 425 502 579 19 9 18 26 30 3 0 0 0 0 0 0 0 0 0 0 0 0 0 0 0
0 3 0 0 0 2 2 0 0 2 0 1 0 1 169 262 575 868 1069 1134 1139 881 633 480 386 289 202 32 4 16 49 34 1 6 15 1 0 1 0 1 0 0 0 0 0 0 0 0 0
4 0 3 12 0 1 0 0 0 5 49 22 7 18 377 526 706 953 1116 1215 937 756 658 492 315 492 183 126 62 62 54 8 16 29 0 0 0 1 0 0 0 0 0 0 0 0 0 0 0
0 12 36 40 0 0 0 0 1 83 52 64 77 79 387 705 851 1043 1166 976 798 632 521 398 325 124 168 214 51 1 0 0 2 0 0 1 8 5 12 1 0 0 0 0 0 0 1 0 0
4 0 0 21 7 0 1 0 7 32 23 1 0 22 117 730 824 858 785 634 526 390 232 104 68 62 39 5 0 1 6 6 5 6 6 13 18 23 2 1 0 0 0 0 0 0 0 0 0
19 4 20 61 1 0 0 3 0 0 1 1 0 3 32 577 589 558 482 451 410 234 28 0 0 0 0 36 68 20 0 13 8 14 12 7 17 21 0 0 0 0 0 0 0 0 0 0 0

GFSSGP_con_mucape_027.txt.gz
CAPE
0 0 0 0 0 0 0 0 0 0 574 947 923 966 986 1001 793 333 677 574 762 849 855 664 680 815 849 753 591 493 370 121 39 50 80 45 58 16 119 95 92 91 15 0 0 0 0 0 32
0 0 0 0 0 0 0 0 91 196 559 489 432 913 954 1156 1226 934 735 693 853 915 680 488 700 805 852 671 530 387 208 92 70 45 47 51 58 35 146 178 159 155 74 0 0 0 0 0 16
0 0 0 0 0 0 0 132 791 642 480 336 334 690 994 1239 901 859 815 757 910 917 482 498 739 787 789 536 371 298 281 208 165 136 62 62 103 48 86 229 229 197 33 18 12 0 0 42 53
0 0 0 0 0 0 0 0 331 515 452 370 426 515 1042 1187 1187 986 943 724 811 581 458 616 742 757 675 538 467 366 260 172 152 220 277 210 134 74 166 263 235 130 36 30 11 7 73 169 70
0 0 0 0 0 4 538 492 461 463 350 273 210 675 766 1029 960 1122 918 614 637 595 389 569 620 645 618 539 425 308 257 202 232 316 319 339 311 199 341 265 271 226 76 31 27 123 193 172 121
0 0 0 0 0 32 485 523 535 454 290 290 460 559 572 894 779 689 552 422 432 373 263 419 507 392 391 405 350 264 232 235 316 333 338 383 369 343 332 323 334 287 241 188 147 69 106 166 144
0 0 0 0 0 52 522 397 380 363 349 362 395 405 542 794 663 507 326 215 108 72 61 129 58 246 305 214 191 192 230 254 326 314 324 327 317 307 327 327 309 225 134 106 84 80 97 284 162
0 0 0 0 0 80 312 399 394 328 319 337 402 417 385 575 407 468 185 121 31 41 89 43 16 81 165 152 203 196 173 200 274 291 247 232 259 316 296 252 222 96 20 61 97 74 109 42 149
0 0 0 0 3 128 315 240 197 206 178 372 442 359 327 499 566 260 81 15 26 37 31 46 54 200 153 116 161 152 174 175 213 193 145 78 31 7 4 37 37 5 0 19 90 22 7 0 1
0 0 0 5 150 95 222 320 322 183 389 689 402 400 656 378 246 102 55 27 5 1 15 61 86 144 132 110 100 30 47 46 31 17 9 2 0 7 6 18 10 3 37 8 10 0 0 0 0
0 0 0 85 186 97 93 64 226 168 42 316 541 681 295 129 117 56 15 10 19 15 2 75 183 187 123 67 41 13 2 0 0 22 39 9 2 9 0 8 0 0 0 0 0 0 0 0 0
0 0 0 66 188 119 79 52 78 201 99 134 488 50 54 39 42 93 45 28 12 0 0 8 138 216 68 28 4 1 0 26 33 103 85 46 20 75 39 15 0 0 0 0 0 0 0 0 0
3 0 0 53 155 129 130 66 40 35 282 158 132 97 88 100 71 62 28 11 1 23 20 72 217 293 69 0 0 0 128 242 247 136 174 129 78 40 31 5 0 0 0 0 0 0 0 0 0
2 4 63 119 126 167 121 27 35 143 454 290 161 46 13 68 62 23 47 35 36 89 118 191 298 346 63 9 45 138 309 365 311 261 242 206 136 97 32 48 10 1 0 0 0 0 0 0 0
9 75 88 44 18 46 90 64 64 124 457 492 164 98 25 56 54 0 32 31 48 139 190 250 367 430 60 49 145 306 318 329 410 397 363 214 194 47 0 0 0 0 0 0 0 0 0 0 0
11 4 1 64 82 63 29 79 151 197 228 430 450 273 209 133 64 8 3 45 244 317 375 421 468 341 76 65 206 361 375 329 185 1 0 0 0 0 0 0 0 0 0 0 0 0 0 0 0
0 0 0 24 103 74 13 100 161 204 258 393 430 517 429 255 129 55 45 109 327 486 466 464 422 301 179 162 275 373 442 92 0 0 0 0 0 0 0 0 0 0 0 0 0 0 0 0 0
0 0 0 3 46 103 65 24 191 332 357 397 595 563 565 456 300 165 131 265 561 534 510 593 656 606 320 227 332 317 176 31 13 20 1 0 0 0 0 0 0 0 0 0 0 0 0 0 0
0 0 0 0 0 31 46 37 189 504 433 498 606 658 300 552 430 363 425 459 579 503 554 795 561 387 255 274 249 214 143 52 33 29 12 0 0 0 0 0 0 0 0 0 0 0 0 0 0
0 0 0 0 0 0 0 2 121 390 508 491 430 463 367 396 502 581 617 577 542 489 620 692 278 246 294 292 230 185 130 42 60 59 31 0 0 0 0 0 0 0 0 0 0 0 0 0 0
0 0 0 0 0 0 0 0 112 348 316 453 312 219 358 366 451 570 596 616 423 387 598 579 330 314 237 233 236 236 170 64 58 79 49 0 0 0 0 0 0 0 0 0 0 0 0 0 0
0 0 0 0 0 0 0 0 34 309 373 335 279 227 150 288 274 406 525 693 551 322 357 546 363 353 324 304 289 291 203 51 76 118 22 0 0 0 0 0 0 0 0 0 0 0 0 0 0
0 0 0 0 0 0 0 0 0 12 275 245 171 99 156 154 213 311 300 548 619 436 347 354 416 397 359 288 395 364 304 106 107 58 0 0 0 0 0 0 0 0 4 0 0 0 0 0 0
0 0 0 0 0 0 0 5 0 0 10 76 210 121 192 207 165 170 227 319 460 531 481 371 567 498 455 438 438 304 128 112 42 0 0 3 2 1 0 0 0 1 4 0 0 0 0 0 0
0 1 0 0 0 0 0 0 0 0 0 0 0 2 157 260 256 256 548 535 486 564 664 628 647 561 433 574 679 149 254 88 21 34 41 43 35 0 4 6 3 0 0 0 0 0 0 0 0
0 0 0 0 0 0 0 0 0 0 0 0 0 0 0 149 343 390 637 735 709 753 825 803 706 625 670 748 345 413 472 274 49 47 61 39 11 22 5 2 0 4 0 0 0 0 0 0 0
0 1 0 0 0 0 0 0 0 0 2 9 1 0 0 0 112 441 681 937 1027 1087 1071 892 798 741 671 375 463 603 57 69 51 61 68 42 21 13 11 0 0 0 0 0 0 0 0 0 0
35 12 8 4 3 0 0 0 0 10 19 11 11 10 92 151 286 475 684 988 1090 1172 1129 685 577 505 340 282 231 106 14 36 73 54 44 39 41 10 1 5 4 3 3 0 0 0 0 0 0
0 0 6 0 0 0 0 0 0 31 0 0 0 0 62 275 401 539 720 983 1132 1159 908 694 634 460 284 160 35 49 74 92 16 19 23 18 10 5 2 1 0 0 5 0 0 0 0 0 0
0 0 2 0 0 0 0 0 0 0 0 0 0 0 0 292 492 649 861 1034 1108 1176 904 746 563 363 195 175 115 82 50 29 49 26 12 16 15 4 3 0 0 0 0 0 0 0 0 0 0

GFSSGP_con_mucape_030.txt.gz
CAPE
0 0 0 0 0 0 0 0 0 5 833 1057 1093 1015 863 805 541 337 645 669 819 901 789 737 797 768 612 516 439 362 300 215 109 83 91 115 101 141 144 146 120 132 94 5 5 68 141 273 351
0 0 0 0 0 0 0 0 562 597 854 733 771 1033 1012 1071 907 868 754 927 879 891 746 687 829 778 626 517 444 331 253 249 169 138 109 135 153 139 245 202 161 174 167 0 0 0 0 21 275
0 0 0 0 0 1 0 0 484 484 619 498 653 830 967 1043 1004 866 975 961 1141 907 583 603 780 746 662 514 383 308 291 228 200 166 115 109 103 148 176 255 219 278 211 3 4 0 4 33 94
0 0 0 0 0 0 0 145 468 332 442 430 595 826 934 1397 1203 977 1032 1009 1121 789 528 754 606 681 580 526 474 423 312 222 201 218 232 235 223 133 304 280 284 329 242 12 16 0 18 122 90
0 0 0 0 0 0 298 562 540 538 421 334 354 722 655 907 1380 1204 1074 862 790 741 618 522 577 565 619 667 546 408 294 263 345 350 328 356 363 369 415 350 365 337 255 182 71 145 87 57 122
0 0 0 0 0 3 396 574 669 571 464 532 682 566 860 1036 779 1017 977 851 771 621 472 359 539 385 440 527 400 301 307 406 412 420 421 464 461 418 416 405 380 324 234 204 229 290 200 39 96
0 0 0 0 6 63 379 560 495 507 514 521 558 527 622 730 784 856 863 670 658 488 349 232 144 187 303 294 286 274 316 399 439 428 433 425 379 347 355 351 320 270 215 231 200 241 254 39 18
0 0 0 0 21 20 240 552 602 578 505 509 527 639 612 820 580 488 422 437 479 336 161 46 30 12 145 194 237 243 301 325 363 389 289 243 274 323 285 253 260 193 241 247 209 150 217 17 0
0 0 0 0 8 43 379 527 581 503 469 631 689 551 559 370 243 224 161 217 135 162 142 17 46 121 161 178 220 231 304 271 263 244 207 72 49 22 0 43 51 53 58 155 59 1 0 0 0
0 0 0 0 26 153 214 467 314 361 511 700 758 699 587 353 415 109 47 67 69 15 10 15 14 41 81 186 55 49 92 64 39 43 19 0 0 0 0 14 38 61 15 0 0 0 0 0 0
0 0 0 0 37 216 161 246 446 305 197 441 553 618 603 400 173 246 27 34 24 30 2 0 7 8 79 103 26 22 18 4 1 0 0 0 0 0 0 0 2 9 3 0 0 0 0 0 0
0 0 0 1 142 182 119 110 261 199 227 377 420 348 344 392 149 144 34 21 6 0 0 0 32 100 154 59 6 0 0 0 1 3 5 0 0 5 13 25 12 6 0 0 0 0 0 0 0
17 6 0 25 160 252 152 141 104 178 268 352 293 111 64 68 101 104 73 21 4 0 0 0 64 192 83 10 0 0 0 0 1 40 21 0 15 47 50 18 0 0 0 5 0 0 0 0 0
2 13 48 90 195 268 216 115 107 332 329 213 159 81 69 74 76 104 32 0 0 0 0 38 121 319 128 0 0 0 83 68 30 104 162 82 69 52 33 21 6 16 34 17 0 0 0 0 0
1 41 98 117 75 119 141 89 98 403 304 207 133 80 69 79 58 34 3 0 0 0 0 0 175 358 186 0 0 60 269 295 256 225 231 196 183 114 104 68 33 9 0 0 0 0 0 0 0
11 4 2 49 46 88 55 53 82 695 409 249 165 115 73 70 87 17 17 0 13 76 112 157 267 358 249 0 6 134 295 338 359 352 317 233 218 177 63 0 0 0 0 0 0 0 0 0 0
0 3 1 14 46 28 25 16 90 642 604 374 253 207 120 104 115 123 3 20 32 117 201 294 350 410 276 10 74 258 284 231 219 173 75 52 10 0 0 0 0 0 0 0 0 0 0 0 0
0 0 2 1 31 52 44 28 68 214 337 456 446 372 276 204 173 149 43 27 105 233 368 388 419 500 259 22 88 296 310 317 87 20 13 18 0 0 0 0 0 0 0 0 0 0 0 0 0
5 0 0 0 0 24 37 31 9 164 224 423 461 465 551 438 340 180 93 100 272 387 508 506 458 472 276 149 202 294 388 231 71 32 33 28 3 0 0 0 0 0 0 0 0 0 0 0 0
2 0 0 0 0 0 0 19 19 244 257 397 475 517 604 570 531 309 181 178 290 412 494 478 454 464 343 360 211 263 224 114 48 45 29 31 23 0 0 0 0 0 0 0 0 0 0 0 0
0 0 0 0 0 0 0 0 1 157 381 333 443 529 607 462 436 489 344 322 307 376 488 472 464 595 610 506 251 199 174 114 101 28 26 37 48 0 0 0 0 0 0 0 0 0 0 0 0
0 0 0 0 0 0 0 0 0 60 368 356 422 467 459 586 367 432 500 493 462 438 525 480 579 736 470 253 239 231 211 133 69 23 32 43 83 12 0 0 0 0 0 0 0 0 1 0 1
0 0 0 0 0 0 0 0 0 3 201 345 342 482 411 377 437 462 411 491 621 531 544 512 612 727 311 265 294 259 175 187 98 41 81 88 130 8 0 0 0 0 0 0 0 0 6 0 0
0 0 0 0 0 0 0 0 0 0 14 208 300 311 405 334 254 219 368 457 524 550 547 310 329 503 389 269 251 212 217 124 121 72 92 110 69 0 1 10 4 0 1 0 0 0 0 0 0
0 0 0 0 0 0 0 0 0 0 0 0 23 94 166 229 137 177 203 244 401 505 602 429 106 145 460 305 307 233 179 160 309 78 122 46 12 39 53 62 13 2 16 3 1 0 0 0 0
0 0 0 0 0 0 0 0 0 0 0 0 0 0 0 7 156 147 190 240 218 273 400 504 415 188 289 348 379 277 374 451 87 216 65 33 39 39 45 43 25 58 10 1 0 5 0 0 0
0 0 0 0 0 0 0 0 0 0 0 0 0 0 0 0 0 21 175 250 281 264 287 362 463 469 471 495 473 420 504 227 259 322 74 68 80 71 52 24 46 35 9 5 8 2 0 0 0
0 0 0 0 0 0 0 0 0 0 0 0 0 0 0 0 0 7 177 370 381 342 359 448 590 684 657 593 539 616 649 319 432 181 137 128 90 71 57 74 55 34 11 7 5 1 0 0 0
0 0 0 0 0 0 0 0 0 0 5 0 0 0 0 7 14 68 228 372 451 548 636 731 875 919 764 660 679 729 490 481 123 100 89 76 57 55 58 52 22 12 1 3 0 0 0 0 0
0 0 0 0 0 0 0 0 0 0 1 0 0 0 0 0 71 196 300 376 493 671 860 930 1047 838 602 542 582 428 284 140 77 49 21 24 30 36 38 24 14 11 8 0 0 0 0 0 0

GFSSGP_con_mucape_033.txt.gz
CAPE
0 0 0 0 0 0 0 0 0 154 581 938 1180 1089 936 835 704 685 705 809 1064 892 615 734 766 744 700 643 557 443 390 348 285 213 176 148 139 179 178 180 186 258 306 262 309 333 267 165 313
0 0 0 0 0 0 0 0 645 566 634 613 841 1128 1146 1118 784 698 961 1013 1052 878 664 531 749 688 662 578 463 421 399 304 243 244 237 194 279 300 246 207 234 223 299 168 245 406 402 378 567
0 0 0 0 0 0 0 3 494 607 752 613 684 908 1192 907 1015 1116 1037 1214 1161 966 745 605 788 654 646 560 467 353 318 276 252 249 299 303 373 377 332 272 258 263 279 53 34 81 214 328 394
0 0 0 0 0 0 0 164 605 482 553 589 786 1012 1040 956 1188 1174 1239 1273 1173 1126 832 710 729 726 692 552 451 361 258 206 200 238 325 382 402 379 418 362 341 312 268 10 3 46 62 190 224
0 0 0 0 0 0 0 511 713 658 669 629 663 856 747 1248 1255 1231 1244 1213 1099 963 929 910 592 668 698 701 523 333 279 276 260 285 337 403 443 477 462 396 344 321 298 163 29 85 196 169 144
0 0 0 0 0 40 27 677 782 765 727 771 931 759 855 947 1230 1307 1209 1070 912 840 533 664 674 512 485 604 372 277 356 398 362 366 413 530 524 465 443 348 263 273 335 330 238 93 192 151 123
0 0 0 0 49 55 322 634 706 742 695 756 710 757 856 885 1123 1156 1101 910 916 807 473 373 294 84 125 214 292 311 408 444 411 418 461 469 396 385 372 310 245 242 234 304 324 128 124 174 87
0 0 0 5 46 35 271 600 714 676 655 748 665 850 704 756 891 954 1022 879 713 607 381 252 188 43 7 165 333 328 337 360 382 423 338 274 322 327 312 255 252 263 239 271 352 148 54 26 0
0 0 0 44 40 87 340 584 586 522 765 645 752 723 549 762 677 587 605 407 579 435 164 253 123 10 111 166 258 402 400 331 294 250 215 112 62 63 18 53 105 195 101 49 36 0 0 0 0
0 1 0 15 52 84 216 509 400 606 734 664 965 586 512 510 301 304 389 178 333 327 193 113 12 16 118 152 148 230 267 193 155 92 95 67 83 28 24 58 119 26 0 0 0 0 0 0 0
0 0 0 0 34 130 220 362 535 514 374 605 825 605 477 364 250 157 72 65 88 30 53 41 37 2 68 199 86 83 48 77 81 61 49 39 72 58 36 2 0 0 0 0 0 0 0 0 0
0 0 0 0 152 188 223 223 357 258 313 438 707 556 650 376 130 7 10 12 21 4 2 3 4 6 88 172 66 22 45 24 38 0 37 116 77 20 5 8 15 8 0 0 0 0 0 0 0
1 0 1 17 85 302 214 227 253 366 556 703 650 257 119 120 48 77 37 16 1 3 0 6 20 45 142 87 14 14 16 3 4 1 97 85 53 12 22 33 33 6 0 0 2 0 0 0 0
0 0 23 46 176 298 418 441 222 386 454 513 366 216 161 163 198 168 81 15 4 13 1 1 12 110 162 6 0 0 16 20 0 46 59 14 43 48 49 43 36 0 0 0 0 0 0 0 0
0 29 45 81 192 285 165 124 444 491 427 377 299 69 124 171 123 155 141 52 0 0 0 2 48 324 186 0 0 17 81 41 41 71 76 87 88 75 53 38 29 3 0 0 0 0 0 0 0
1 0 0 2 19 98 110 105 503 495 269 194 171 98 70 78 94 135 66 10 0 0 0 8 76 278 310 0 0 46 102 135 141 141 143 119 115 116 114 119 17 0 0 0 0 0 0 0 0
0 0 3 29 90 97 77 72 329 488 357 145 154 98 101 126 133 90 94 17 0 0 0 2 117 354 381 22 13 82 213 310 316 210 184 164 177 202 194 23 0 0 0 0 0 0 0 0 0
2 0 4 45 82 70 56 64 221 570 442 284 220 222 158 131 151 182 89 79 9 26 85 125 285 368 373 75 19 73 257 293 343 266 186 147 44 3 0 0 0 0 0 0 0 0 0 0 0
14 6 1 2 0 55 82 53 78 444 578 623 554 530 486 307 185 196 173 108 123 155 166 282 335 275 391 145 53 138 296 233 180 105 8 10 5 4 0 0 0 0 0 0 0 0 0 0 0
1 7 4 0 0 0 0 0 60 124 389 320 454 536 539 664 548 350 249 148 168 220 259 370 416 332 415 175 65 84 245 261 207 38 16 18 10 9 3 0 0 0 0 0 0 0 0 0 0
0 0 1 0 0 0 0 0 3 34 209 226 259 366 410 525 664 643 333 232 235 297 421 474 457 421 379 232 71 148 251 255 140 46 27 48 23 29 36 0 0 0 0 0 0 0 0 0 0
0 0 3 0 0 0 0 0 0 19 168 306 272 324 413 423 457 612 577 382 302 393 481 516 458 484 428 310 213 218 222 190 129 35 60 67 43 46 63 69 0 0 0 0 0 0 1 1 0
0 0 1 0 0 0 0 0 0 0 102 306 390 337 358 435 492 528 628 637 525 470 545 532 417 445 447 458 310 335 248 152 66 50 75 58 37 75 57 66 0 0 0 0 0 1 17 0 0
0 0 0 0 0 0 0 0 0 0 52 160 308 371 339 434 462 433 503 560 707 569 509 501 371 486 435 460 383 210 307 167 142 117 63 55 45 58 46 17 0 17 28 7 10 15 2 1 0
0 0 0 0 0 0 0 0 8 0 0 0 28 199 286 352 414 436 400 338 554 480 565 553 543 474 350 368 338 259 196 206 246 213 223 251 56 47 47 15 18 28 38 10 13 4 0 0 0
0 0 1 0 0 0 0 0 1 0 0 10 0 0 1 35 241 379 455 398 313 393 444 622 620 248 6 10 81 246 279 252 213 198 210 265 46 27 13 18 46 72 32 15 3 0 0 0 0
0 0 0 0 0 0 0 0 0 0 0 12 0 0 0 0 0 0 122 318 248 369 396 604 610 386 125 160 185 267 311 245 235 315 237 89 63 37 34 48 53 25 38 30 10 0 0 0 0
0 0 1 3 0 0 0 0 0 0 0 0 3 1 1 2 0 0 0 174 201 323 375 468 541 585 574 412 458 404 345 338 321 317 166 121 135 69 58 63 69 68 40 13 9 4 0 0 0
0 0 0 0 0 0 0 0 0 0 0 0 0 0 0 0 14 3 28 320 421 428 406 431 450 435 561 605 633 575 565 517 481 420 198 134 72 58 44 85 45 24 26 14 1 0 6 0 0
0 0 0 7 0 0 0 0 0 0 0 0 0 0 0 0 1 58 182 341 416 433 412 432 435 570 607 677 698 662 575 503 492 360 135 80 70 55 85 50 26 9 4 6 6 5 0 0 0

GFSSGP_con_mucape_036.txt.gz
CAPE
1 0 0 0 0 0 0 0 0 158 171 1226 1672 1427 934 1344 881 844 1080 1285 1416 864 454 808 889 961 946 866 712 580 487 365 259 254 179 171 221 306 263 317 364 529 508 313 254 234 242 47 59
0 0 0 0 0 0 1 0 21 322 720 1034 1177 1630 1480 1362 1068 1040 1162 1041 1308 983 567 248 902 906 867 693 593 511 447 334 290 267 243 323 381 382 403 401 514 713 870 629 315 348 284 172 245
0 0 0 0 0 0 4 0 88 482 808 1139 1098 1626 1197 825 898 952 1296 1362 1343 1115 644 552 914 862 822 651 551 429 361 285 309 308 452 498 482 491 491 427 384 464 700 477 453 483 410 299 312
0 0 0 0 0 0 0 24 825 843 862 904 1323 1311 990 1134 1759 1417 1398 1536 1423 1119 873 746 754 772 746 683 536 414 289 278 264 394 549 568 590 560 547 471 416 364 360 164 278 289 223 259 172
0 0 0 0 0 0 0 130 900 904 1043 1051 1191 1243 1110 1272 1376 1581 1557 1512 1440 1241 1150 802 645 768 786 719 556 397 297 295 338 436 481 557 642 678 610 477 425 359 260 177 116 153 228 220 204
0 0 0 0 0 1 20 550 1056 1143 1140 1298 1378 1315 1074 1076 1257 1371 1315 1270 1290 1134 972 890 672 781 664 583 456 311 320 366 397 468 500 592 629 568 512 462 488 457 280 226 326 268 222 205 51
0 0 0 0 39 59 579 1005 1056 1131 1201 1240 1335 1347 1004 1285 1316 1109 1309 1229 1007 782 611 492 316 132 245 191 321 325 393 415 486 512 563 531 413 316 321 329 346 394 369 242 245 280 241 45 0
0 0 0 5 48 78 568 826 865 1038 1148 1146 1194 1241 981 896 1223 1243 1238 1070 893 639 394 345 386 131 7 112 323 340 379 445 469 475 387 291 281 294 302 294 339 415 475 282 148 196 96 0 0
0 0 6 27 58 59 430 780 801 874 1240 1210 1144 1396 828 907 937 961 971 801 765 577 604 366 254 94 4 21 324 381 435 452 374 307 250 85 20 14 37 142 317 248 271 133 4 0 0 0 0
0 0 0 20 19 11 357 769 828 1091 1260 1144 928 793 619 999 991 571 372 338 597 372 356 311 243 69 2 0 105 355 314 233 230 124 62 50 116 137 46 123 28 24 7 0 0 0 0 0 0
0 14 3 0 5 14 286 615 682 777 1022 1104 1008 712 509 491 413 252 201 139 140 195 168 127 16 9 2 34 119 295 246 251 260 227 150 158 130 174 136 53 0 0 0 0 0 0 0 0 0
0 0 0 0 20 120 409 531 707 714 1028 996 701 683 428 630 219 33 86 83 25 31 48 67 17 5 0 94 157 177 156 132 171 133 156 202 140 216 134 26 5 1 0 0 0 0 0 0 0
0 3 0 12 6 367 327 414 589 948 1131 979 638 401 337 231 26 1 11 0 1 12 13 12 21 5 32 114 61 92 81 88 105 100 43 40 98 273 96 19 14 0 2 0 0 0 0 0 0
0 14 147 37 314 531 577 667 650 903 965 666 530 237 152 153 66 28 9 0 0 2 3 4 0 28 36 46 82 81 120 110 91 141 186 264 215 166 54 28 18 0 0 0 0 0 0 0 0
0 123 80 180 384 473 417 451 824 663 697 733 499 268 215 170 168 117 68 58 2 34 0 0 50 85 60 100 170 70 71 48 102 333 459 406 256 126 41 28 31 1 0 0 0 0 0 0 0
10 49 15 18 143 211 404 413 915 498 375 254 193 223 149 219 309 338 174 31 54 36 24 29 58 162 288 270 165 29 119 118 227 369 463 314 159 63 33 39 33 40 0 0 0 0 0 0 0
11 32 19 72 108 244 336 248 827 666 194 191 132 72 127 195 179 344 106 0 0 1 8 0 98 298 509 528 150 84 243 398 550 544 427 100 79 43 86 59 48 0 0 0 0 0 0 0 0
38 38 58 154 262 225 212 162 807 829 335 239 250 79 105 164 159 150 182 7 0 0 5 31 250 425 636 527 198 72 452 645 688 643 457 189 41 100 128 92 2 0 0 0 0 0 0 0 0
5 26 47 45 18 98 65 95 450 821 709 543 515 477 183 166 211 241 175 116 39 82 163 230 309 550 759 569 136 141 422 568 575 589 374 179 17 64 3 0 0 0 0 0 0 0 0 0 0
18 17 46 19 0 5 38 55 144 748 1026 959 852 835 838 611 260 384 467 240 168 189 245 326 455 661 771 609 190 358 566 550 457 212 124 4 0 0 0 0 0 0 0 0 0 0 0 0 0
22 23 14 8 0 0 8 46 127 238 599 863 808 753 742 756 858 745 680 748 452 267 321 367 561 841 990 719 358 342 524 235 209 169 141 41 2 14 18 15 8 0 0 0 0 0 0 0 0
15 0 0 3 0 28 0 74 64 136 276 419 606 606 762 699 698 831 1069 899 838 576 513 492 554 834 989 866 465 233 227 410 138 103 32 74 30 35 48 39 30 35 0 0 0 0 2 0 0
7 0 6 11 34 32 40 42 39 9 162 256 517 612 634 694 696 813 935 1191 934 756 650 796 785 908 1070 990 730 565 436 582 278 43 57 43 28 49 49 45 81 103 29 0 1 18 12 0 0
0 0 1 13 43 64 37 69 74 65 24 48 170 500 665 694 781 838 899 1051 1231 1082 903 935 962 993 1049 853 400 402 396 505 106 83 73 72 98 84 88 70 59 27 0 2 5 16 8 3 0
0 12 93 49 69 72 36 68 105 51 2 19 55 135 485 732 801 857 929 1073 1258 1391 1351 1233 1136 747 923 582 195 256 326 488 76 68 64 109 189 263 122 81 14 14 13 17 42 15 0 2 4
0 44 81 18 6 31 0 15 56 4 17 41 69 37 59 414 766 840 871 969 1154 1410 1647 1478 1367 755 230 169 251 441 314 370 148 138 173 373 334 143 119 83 41 9 36 32 13 11 0 0 0
1 17 18 96 36 29 23 11 21 0 7 18 63 68 93 90 123 425 757 863 937 1089 1519 1570 1373 999 682 135 17 99 148 143 224 329 352 457 199 140 49 36 39 44 16 16 29 9 3 0 0
9 8 49 105 60 29 29 18 57 1 0 0 0 1 124 240 104 102 193 369 734 857 1198 1367 1445 1407 1089 239 123 156 277 326 342 340 370 288 210 139 51 61 71 48 49 18 8 0 0 0 0
19 32 37 84 93 60 39 43 16 0 0 0 0 1 32 124 394 360 352 387 547 664 945 1100 1299 1407 1411 613 496 461 516 486 339 251 294 173 188 106 58 83 79 48 26 17 15 0 0 1 0
19 22 80 102 38 23 67 35 3 1 0 0 2 0 0 48 201 558 645 763 884 903 916 1028 1110 1178 1288 1301 1169 790 528 357 186 234 84 123 92 93 72 64 66 57 25 0 4 1 8 3 2

GFSSGP_con_mucape_039.txt.gz
CAPE
0 0 0 0 0 0 0 22 61 59 17 233 537 636 113 913 463 321 1259 1617 1378 989 885 1360 1366 1479 1410 1294 1051 856 717 524 456 459 356 259 273 373 455 513 557 588 558 303 175 0 0 0 0
0 0 0 0 0 13 51 12 1 19 274 768 1449 1453 1340 1426 1322 1319 1562 1695 1354 986 918 1469 1220 1256 1213 1043 902 745 640 559 525 416 351 429 469 573 649 840 869 851 825 468 194 27 14 33 68
0 0 0 7 3 10 44 12 19 319 421 804 958 1605 1569 984 854 994 1392 1596 1424 893 692 1230 1017 1063 1056 898 772 600 552 502 402 425 585 600 649 638 752 859 1035 1066 975 565 251 107 54 83 234
0 0 0 0 1 4 4 31 257 411 537 854 1016 1497 1110 467 269 111 1149 1862 1219 596 501 814 797 902 950 878 682 535 466 348 424 534 693 730 729 639 619 519 718 1035 958 559 318 115 75 201 210
0 0 0 39 23 7 0 5 371 561 696 1120 1257 721 1395 1254 1177 969 1551 1942 1320 169 609 887 780 809 963 894 655 485 483 415 579 629 693 694 694 736 644 437 456 533 594 448 209 116 148 241 153
0 0 13 48 20 0 13 261 498 987 1153 1301 1205 1099 1306 903 1128 1212 1679 1712 1218 1028 828 587 782 832 744 613 495 433 444 560 658 710 754 832 836 682 655 565 411 453 479 398 329 299 213 76 0
0 6 56 2 38 170 335 706 859 963 1044 1371 1550 1347 1398 1095 1090 1637 1443 1132 1072 635 476 402 228 458 316 250 247 308 517 621 673 676 725 537 417 425 449 413 332 303 352 353 320 271 143 0 0
0 0 8 19 31 12 532 723 963 1108 1492 1463 1466 1279 1423 1047 1125 1244 1310 1021 706 475 161 239 203 330 374 314 267 340 454 562 614 512 348 273 293 334 338 354 430 348 332 360 281 120 0 0 0
0 1 32 35 54 2 372 753 1117 1082 1274 1528 1647 1881 1224 1037 1009 958 1052 867 724 536 471 432 186 141 95 66 275 374 560 475 325 286 256 119 46 63 119 283 412 355 199 228 159 24 0 0 0
0 35 15 6 27 2 93 564 913 1007 1334 1458 1003 1056 819 875 818 951 950 621 559 466 382 448 262 247 161 7 222 260 379 275 215 154 124 86 201 240 174 157 185 117 17 0 0 0 0 0 0
2 8 2 22 0 5 58 522 789 883 877 1055 1245 800 739 786 1081 811 262 293 326 346 304 287 129 227 97 4 93 124 210 323 298 267 356 377 297 308 248 75 18 1 0 0 0 0 0 0 0
0 4 1 7 0 19 372 618 772 996 1308 1462 1061 702 601 563 595 259 126 179 125 149 227 166 170 60 29 7 28 113 195 288 300 281 344 444 354 495 313 189 113 31 0 0 0 0 0 0 0
1 19 8 23 20 76 411 528 617 979 1173 934 669 492 350 269 364 62 58 3 58 42 29 8 14 32 6 11 3 118 157 208 266 312 313 326 395 550 319 193 92 37 9 0 0 0 0 0 0
1 1 65 39 112 425 471 574 727 1010 868 779 678 492 151 84 33 26 6 1 9 0 21 5 7 4 2 4 17 99 188 202 195 233 227 222 231 671 284 211 85 27 9 0 0 0 0 0 0
0 4 53 75 155 271 406 129 738 749 775 695 195 57 5 87 7 21 1 21 5 0 5 0 0 3 1 0 65 84 125 105 105 104 503 297 323 628 361 241 108 36 13 0 0 0 0 0 0
0 9 91 26 29 103 68 135 635 571 537 412 233 148 79 161 226 28 23 4 2 0 0 0 0 0 82 116 239 131 160 151 111 276 516 511 460 453 349 157 83 14 20 0 0 0 0 0 0
6 28 82 30 0 137 242 11 520 482 173 92 186 151 81 196 239 252 218 7 4 3 18 0 58 62 216 155 174 73 70 154 56 307 596 559 472 372 388 162 71 22 29 0 0 0 0 0 0
36 47 48 105 58 60 130 60 740 572 340 181 51 31 29 103 182 145 51 56 72 14 3 3 104 143 311 259 289 110 61 194 334 627 631 527 359 239 258 150 39 68 0 0 0 0 0 0 0
17 26 36 17 74 52 61 76 97 802 432 363 220 98 90 124 138 190 38 22 3 15 4 42 91 238 359 265 146 77 24 158 529 865 616 546 424 200 249 154 14 42 0 0 0 0 0 0 0
28 43 38 20 0 0 8 50 46 738 686 555 399 356 192 140 153 183 178 33 32 46 34 19 39 153 398 433 122 31 112 208 380 631 670 638 528 204 199 76 0 0 0 0 0 0 0 0 0
35 50 45 30 12 0 0 4 35 179 633 755 517 446 338 235 169 208 206 237 122 167 224 239 302 387 666 571 301 102 294 443 480 483 510 499 405 127 29 10 13 7 6 0 0 0 0 0 0
47 19 14 5 11 43 7 2 20 65 196 620 787 612 440 415 360 263 361 376 300 340 527 412 510 561 827 929 637 220 293 578 614 632 375 255 78 34 21 15 27 41 18 13 11 0 0 0 6
29 29 20 41 80 57 36 22 20 8 37 104 385 605 430 395 430 415 429 518 606 522 718 775 560 580 893 1152 1254 715 449 553 810 557 354 266 15 23 42 33 28 41 26 20 12 2 0 21 10
26 46 49 67 109 121 39 68 8 28 2 25 69 298 461 396 393 393 502 631 594 732 1015 1196 683 561 671 1250 1042 1009 701 741 840 663 298 70 19 39 63 72 37 50 29 72 31 0 0 4 7
15 76 100 121 134 139 75 43 35 14 42 6 12 154 430 477 438 416 419 553 870 1000 1166 1246 832 885 930 1201 1374 879 585 777 856 689 226 85 61 53 93 124 164 120 73 21 3 2 6 3 1
17 96 146 41 216 155 79 14 50 36 6 3 0 29 76 514 528 459 352 681 923 1200 1435 1273 1132 1201 1152 1192 1144 587 274 200 529 886 271 102 74 148 161 219 199 65 25 9 27 38 43 1 3
44 72 108 75 125 175 167 99 42 0 0 1 15 166 239 153 511 582 469 454 905 1174 1671 2145 1537 1438 1288 1316 683 514 542 477 755 501 289 128 190 207 269 159 80 59 28 42 42 39 9 6 0
4 75 121 115 99 142 146 165 144 29 6 0 0 12 192 250 232 307 539 662 754 1067 1353 2308 2060 1720 1509 847 895 505 499 721 690 553 266 190 252 266 292 148 72 85 49 25 30 13 7 9 5
0 76 88 121 148 150 228 188 107 90 24 0 9 1 5 72 383 402 343 411 655 963 1243 1532 1992 1929 1624 1374 1049 327 335 392 444 416 271 192 172 164 108 66 63 75 11 9 37 16 12 4 0
35 28 98 278 127 152 187 189 86 67 35 6 1 1 2 52 157 533 652 670 678 774 992 1314 1713 1875 1834 1738 959 536 773 611 542 674 542 151 69 51 7 31 37 59 36 8 19 17 12 7 0

GFSSGP_con_mucape_042.txt.gz
CAPE
0 0 0 0 0 0 0 0 0 0 25 229 281 253 2 570 175 313 429 5 34 859 1692 1802 1552 1635 1531 1370 1138 980 846 756 718 589 373 314 543 576 583 559 556 758 367 4 0 0 0 0 0
0 0 0 0 0 0 0 0 19 69 356 175 61 264 107 689 381 995 1049 585 1028 1198 1844 1831 1582 1571 1508 1316 1110 935 827 789 692 491 411 578 696 779 859 808 718 719 482 50 0 0 0 0 28
0 0 0 0 0 0 5 0 0 167 168 280 264 281 967 183 73 805 1006 1027 916 1045 1667 1588 1272 1161 1286 1163 980 788 739 637 533 509 658 814 857 1077 1099 1027 892 858 615 84 37 0 0 16 72
0 0 0 0 0 0 8 0 0 117 151 112 193 743 537 809 484 100 623 934 555 574 1365 1054 965 1093 1054 1014 961 821 659 518 498 612 831 906 1044 1082 1191 1098 996 1000 723 112 53 0 3 127 35
0 0 0 0 5 8 27 17 0 179 133 76 287 216 69 710 803 868 367 1248 633 869 1050 1067 863 851 1012 1107 978 791 644 602 700 778 822 806 826 773 829 948 980 973 681 250 78 45 103 107 15
0 0 0 4 11 116 132 1 184 115 316 80 138 181 12 544 913 998 1160 1062 785 558 875 660 727 816 715 719 794 632 684 765 837 838 796 902 737 563 619 663 664 672 443 335 289 215 119 31 0
0 0 0 1 10 87 12 2 72 291 220 94 10 224 715 669 868 1278 1204 833 639 352 489 206 289 560 386 383 432 525 709 781 851 922 841 635 530 436 385 470 557 505 358 311 237 164 63 0 0
0 0 0 5 22 37 56 66 172 470 659 180 727 925 1208 719 861 1179 953 708 657 388 303 70 77 155 162 271 395 478 516 562 549 440 357 277 320 360 317 286 380 376 346 284 211 86 0 0 0
0 0 0 5 22 11 20 180 143 246 543 1147 951 924 1051 734 980 729 939 830 634 377 168 79 75 23 136 328 423 566 600 397 324 276 223 117 69 41 195 296 322 346 291 258 140 0 0 0 0
0 0 6 0 0 0 0 66 220 238 549 581 274 633 888 951 841 890 631 552 620 424 409 249 184 54 98 292 319 350 294 181 203 140 111 103 125 169 212 276 211 191 201 161 22 0 0 0 0
0 0 0 0 0 0 0 20 6 392 669 626 80 621 820 596 502 692 476 396 449 417 387 293 213 126 83 2 80 57 118 90 158 148 209 162 158 160 124 114 53 9 1 0 0 0 0 0 0
0 0 0 0 0 0 0 191 310 749 1070 978 719 654 386 351 564 442 129 132 219 268 312 111 195 46 33 8 43 82 90 157 146 226 272 238 287 200 92 117 98 25 0 0 0 0 0 0 0
0 0 0 3 0 0 16 168 242 1027 729 648 559 502 469 213 88 14 24 65 46 145 91 77 28 44 15 14 15 38 51 126 176 228 309 331 339 424 236 116 88 4 42 0 0 0 0 0 0
1 0 0 7 0 3 117 43 51 433 654 481 461 271 68 14 9 22 5 0 13 26 26 29 43 30 27 5 2 2 2 83 167 210 263 307 376 410 327 334 253 159 35 10 0 0 0 0 0
0 0 0 6 17 61 89 6 0 172 383 133 111 87 7 11 0 0 0 0 0 6 7 9 16 21 28 8 0 1 0 64 45 99 263 297 245 534 456 252 184 127 95 45 0 0 0 0 0
0 0 0 11 40 21 0 0 4 39 197 109 85 22 76 23 1 1 1 3 5 4 0 0 1 2 3 8 3 3 1 24 19 49 324 354 363 477 445 363 201 113 20 0 0 0 0 0 0
0 0 8 42 4 43 25 4 0 119 321 111 75 110 185 130 28 1 0 0 0 0 0 0 3 3 0 0 3 0 15 222 111 67 262 546 474 379 426 304 196 74 23 0 0 0 0 0 0
0 5 3 50 38 17 62 8 0 51 93 67 62 4 76 133 133 55 0 0 0 0 0 0 0 0 0 0 23 38 143 110 75 81 328 310 430 484 463 305 124 58 25 18 0 0 0 0 0
0 0 6 60 43 37 87 227 172 423 160 56 0 0 0 42 53 156 12 0 0 0 0 0 0 0 0 16 58 102 30 79 112 352 338 505 458 388 296 254 110 68 50 11 0 0 0 0 0
0 0 12 8 21 0 0 12 394 468 406 228 24 0 0 19 76 20 10 0 0 0 0 0 0 0 45 82 3 58 14 25 136 460 597 556 444 272 253 247 98 57 24 0 0 0 0 0 0
0 0 3 28 3 7 0 0 7 536 343 397 299 128 5 2 156 43 25 9 2 0 0 0 0 21 95 140 90 31 34 15 98 260 521 503 442 283 166 210 80 19 11 2 4 1 0 0 0
0 0 3 8 12 3 21 47 4 288 245 402 356 261 128 64 72 142 71 16 13 16 0 0 0 0 121 274 392 38 0 14 255 410 320 382 498 361 116 51 6 2 13 11 12 27 2 1 2
0 0 23 2 3 68 43 16 3 18 29 423 591 521 363 247 117 132 178 163 59 110 144 99 75 157 232 308 536 368 101 302 611 459 476 283 281 255 86 17 20 33 46 36 29 27 16 10 30
11 6 24 11 0 43 54 23 40 24 17 55 235 587 540 332 316 238 262 285 281 182 236 334 321 363 416 558 610 577 331 504 509 387 336 302 155 98 50 19 29 52 76 93 78 31 54 37 1
0 11 14 15 68 108 52 32 84 38 41 33 58 36 543 456 327 324 258 333 419 399 357 439 495 515 548 729 786 858 737 631 497 310 269 281 136 77 54 58 37 76 131 117 64 42 59 11 11
0 0 33 19 0 64 69 59 53 30 5 0 0 1 146 516 417 385 296 388 430 600 617 547 528 498 539 804 897 872 839 613 501 419 295 230 189 80 90 60 127 151 97 51 17 56 15 20 23
15 2 16 29 0 0 17 35 10 34 0 0 0 3 91 133 452 454 286 260 601 723 877 915 843 644 701 689 1094 917 770 717 594 396 331 248 242 126 103 98 159 222 55 89 56 15 25 0 14
0 5 105 70 60 60 23 21 59 26 0 0 0 7 146 164 146 339 211 408 343 893 1104 1216 1014 769 915 1040 1267 1020 812 623 464 359 517 424 257 275 161 128 72 140 74 157 62 42 46 36 4
0 0 24 102 125 125 82 82 5 0 17 23 0 1 30 94 249 301 284 284 472 584 874 1390 1387 1308 1179 1225 1229 1059 726 468 539 676 630 478 311 184 133 138 122 85 90 31 81 50 29 23 23
0 2 13 131 61 169 374 38 77 61 5 53 35 28 6 3 52 400 537 468 443 549 942 1772 1848 1665 1317 1418 1252 995 645 296 362 413 409 376 302 229 241 99 21 11 12 29 63 48 47 18 6

GFSSGP_con_mucape_045.txt.gz
CAPE
0 0 0 0 0 0 0 0 0 0 144 236 250 258 323 536 828 762 859 258 79 188 96 777 1508 1646 1627 1492 1193 988 944 888 688 585 712 859 765 743 905 736 178 181 103 0 0 0 0 0 0
0 0 0 0 0 0 0 0 0 317 341 215 257 258 230 491 250 796 897 467 51 1 4 736 1075 1666 1653 1309 1070 1014 1005 831 637 692 819 821 809 831 896 629 272 276 149 0 0 0 0 0 9
0 0 0 0 0 0 0 0 6 235 282 298 342 715 715 262 156 455 637 664 786 941 549 989 1246 1510 1413 1184 982 924 877 637 639 808 941 952 1014 1011 961 732 392 407 203 0 0 0 0 0 6
0 0 0 0 0 0 0 19 147 184 214 100 640 572 364 359 836 770 617 915 905 1023 805 1061 1030 1246 1258 1119 957 884 661 541 729 887 1003 1215 1257 1177 1074 858 587 523 183 0 0 0 0 8 0
0 0 0 0 0 0 15 0 28 335 302 270 146 56 255 526 711 815 745 827 789 653 280 592 532 715 844 911 974 804 666 722 870 945 1168 1326 1435 1327 1158 1002 673 451 222 18 0 0 0 0 0
0 0 0 0 0 44 5 4 11 88 333 161 80 51 16 468 599 706 905 970 761 560 518 590 488 383 615 681 626 740 756 873 878 906 953 1139 1206 1229 1224 1090 677 435 262 222 112 34 0 0 0
0 0 0 0 0 40 10 29 22 159 240 167 42 55 50 470 389 719 801 709 593 654 646 411 462 458 353 239 383 682 746 801 803 804 713 657 670 781 950 885 650 451 320 189 106 53 0 0 0
0 0 0 0 0 25 1 51 0 237 325 271 165 306 129 404 650 864 813 479 453 481 467 246 275 300 199 185 187 542 633 614 516 452 330 259 329 530 618 571 427 331 251 178 83 0 0 0 0
0 0 0 0 1 7 16 77 88 35 493 334 577 520 481 1076 567 713 824 645 534 416 266 101 26 85 71 35 306 613 681 369 262 222 182 43 27 50 124 281 324 319 228 145 56 0 0 0 0
0 0 0 0 0 0 29 70 36 55 53 38 381 578 605 619 800 687 776 611 501 550 232 25 13 19 15 38 305 363 253 74 107 72 21 17 73 63 102 197 260 245 190 94 27 0 0 0 0
0 0 0 0 0 0 0 36 5 1 0 70 52 369 892 880 372 366 395 331 510 396 288 240 46 11 0 12 14 166 72 86 34 50 43 128 114 57 26 45 72 82 52 2 0 0 0 0 0
0 0 0 0 0 0 10 64 371 368 568 572 317 269 269 309 74 149 318 283 196 302 241 131 168 70 31 0 2 23 81 86 52 88 92 161 48 35 49 39 27 21 11 0 0 0 0 0 0
0 0 0 0 0 0 17 142 200 264 378 274 428 345 246 97 24 17 35 169 271 175 147 73 33 3 30 20 18 47 77 60 134 134 129 147 65 48 77 66 12 15 4 0 0 0 0 0 0
0 0 0 0 0 1 6 42 27 87 397 306 183 89 55 27 18 22 35 38 84 55 42 125 59 12 32 15 15 0 42 58 140 168 188 225 200 126 95 60 42 16 0 0 0 0 0 0 0
0 0 0 0 0 0 2 16 0 2 131 248 168 40 20 22 2 16 1 0 71 23 24 18 6 9 16 4 6 0 1 36 52 54 32 125 211 257 130 142 74 43 0 1 0 0 0 0 0
0 0 0 0 0 7 42 0 0 0 1 45 11 70 22 2 0 0 0 1 3 9 15 10 15 27 15 4 7 6 0 0 8 0 111 110 116 237 319 114 108 52 6 0 0 0 0 0 0
0 0 0 0 2 2 6 10 28 5 36 106 26 73 24 31 5 0 1 0 0 0 0 7 3 4 9 4 2 5 3 1 5 1 17 146 99 303 212 225 120 44 1 0 0 0 0 0 0
0 0 0 2 1 27 30 44 28 5 105 98 25 72 73 37 19 0 0 0 0 0 0 0 1 1 0 4 10 3 43 1 3 0 0 145 179 192 251 236 75 29 0 0 0 0 0 0 0
0 0 0 0 3 16 106 46 53 2 88 1 40 12 119 80 16 0 0 0 0 0 0 0 0 0 0 0 0 0 0 0 12 0 98 43 59 144 318 221 112 78 0 23 0 0 0 0 0
0 0 0 0 5 6 13 56 64 50 136 1 4 0 0 66 26 0 0 0 0 0 0 0 0 0 0 0 2 2 0 0 0 4 10 8 13 120 267 158 92 70 66 6 1 1 0 0 0
0 0 0 0 8 5 0 3 73 130 190 156 116 48 0 0 29 0 0 0 0 0 0 0 0 0 0 0 3 5 19 6 0 0 51 17 191 242 187 145 105 74 50 10 9 24 18 9 0
0 0 0 0 1 0 0 0 120 174 208 205 223 179 43 6 3 0 0 0 0 0 0 0 0 0 0 0 0 0 0 0 0 5 99 199 276 267 240 150 129 135 43 26 34 31 22 1 12
0 0 0 0 0 0 0 0 4 270 189 215 259 192 105 14 0 0 0 0 0 0 0 0 0 0 0 0 0 0 0 0 0 5 89 217 275 347 272 147 95 100 29 31 40 58 53 38 26
0 1 0 0 1 0 0 2 9 115 46 211 246 210 139 49 40 24 22 0 2 0 0 0 0 0 0 0 4 42 111 0 4 67 123 187 201 333 317 165 64 44 19 14 23 55 19 50 46
0 1 0 0 0 0 13 22 11 23 11 175 60 295 271 148 103 92 100 79 26 23 0 0 0 0 0 0 34 34 84 149 49 130 193 164 151 191 172 122 56 35 28 19 37 40 61 16 5
0 0 0 0 0 0 0 1 24 4 1 0 21 297 346 289 162 117 105 110 110 86 99 57 0 0 0 23 48 69 80 90 95 156 216 179 150 124 55 149 91 53 41 72 71 130 69 27 44
0 0 0 4 1 0 0 0 17 5 12 0 0 0 206 361 298 131 85 88 117 158 189 215 200 128 79 233 287 240 248 307 302 238 292 248 203 164 128 158 133 103 49 116 169 4 51 34 37
0 0 17 19 0 0 29 15 36 2 0 0 0 0 0 91 279 209 162 144 158 160 206 193 278 269 249 193 368 436 451 362 447 357 356 351 271 175 180 187 176 125 102 117 126 115 42 55 31
0 0 0 16 6 10 0 3 5 18 1 12 0 0 17 58 139 189 228 192 197 337 414 313 225 234 163 185 326 523 606 545 425 476 546 463 268 168 221 219 244 161 143 138 197 117 45 53 34
0 0 0 0 1 46 13 0 17 17 7 4 0 0 0 1 86 203 302 330 167 281 382 276 338 357 280 274 391 668 583 614 347 478 555 431 454 436 581 368 321 285 193 94 69 69 39 47 16

GFSSGP_con_mucape_048.txt.gz
CAPE
0 0 0 0 0 0 0 0 0 7 58 109 204 276 497 722 878 981 778 298 744 1237 1074 650 963 1225 1446 1308 1107 1032 890 746 1051 1023 1152 1261 917 616 475 334 152 8 0 0 0 0 1 6 17
0 0 0 0 0 0 0 0 0 52 205 167 463 502 467 318 665 1021 722 417 969 902 948 999 906 890 1403 1276 1077 995 828 833 1101 1076 1211 1317 1101 632 535 350 139 24 0 0 0 0 0 0 4
0 0 0 0 0 0 0 0 2 99 212 330 804 760 617 380 380 465 667 642 581 260 356 411 44 305 965 1260 1119 821 652 791 958 939 1160 1345 1165 792 655 380 201 98 13 0 0 0 0 0 0
0 0 0 0 0 0 0 0 189 173 275 401 657 592 417 422 508 960 509 926 799 365 232 166 44 262 958 1175 1048 658 589 687 800 869 1139 1343 1233 891 741 478 334 189 0 0 0 0 0 3 5
0 0 0 0 0 0 0 1 177 312 272 195 147 80 297 192 745 893 836 1003 1036 712 205 185 92 229 618 1068 817 656 673 769 820 977 1097 1187 1267 976 782 554 352 172 8 0 0 0 14 0 8
0 0 0 0 0 0 1 13 61 252 241 122 25 7 13 432 416 570 669 847 665 601 564 559 421 339 412 517 481 607 715 903 1056 1125 1195 1252 1213 1014 803 569 369 257 168 45 0 0 19 5 0
0 0 0 0 0 0 2 22 102 179 152 99 42 81 27 391 344 511 985 856 584 465 534 545 233 369 62 64 144 641 733 930 975 1131 1189 1162 1077 985 768 603 418 250 120 53 0 0 0 18 0
0 0 0 0 0 9 21 50 48 42 333 497 562 644 153 348 348 731 657 658 561 432 419 361 223 118 15 24 30 300 617 576 502 633 664 740 812 793 623 392 318 189 127 63 0 0 0 0 0
0 0 0 0 0 2 59 57 18 83 249 229 337 330 341 383 497 785 607 830 517 450 243 232 109 33 71 60 75 153 422 365 274 390 417 375 319 236 78 170 212 184 85 65 0 0 0 0 0
0 0 0 0 0 25 53 23 28 0 2 67 153 276 285 832 296 416 498 516 542 383 159 120 93 25 11 18 15 177 287 144 71 121 129 104 95 55 86 126 143 107 77 64 12 0 0 0 0
0 0 0 0 0 8 26 63 52 31 248 64 0 121 207 312 325 249 333 421 339 340 347 229 130 57 3 0 5 70 96 44 1 2 6 12 7 36 30 19 25 38 60 23 1 0 0 0 0
0 0 0 0 0 3 39 224 233 48 143 158 51 198 107 377 144 179 192 189 344 339 291 253 135 74 5 1 0 48 25 0 0 0 8 1 0 6 7 4 3 2 0 0 0 0 0 0 0
0 0 0 0 0 27 53 187 169 258 346 153 121 212 99 23 50 103 174 224 263 249 211 206 52 98 11 6 4 57 2 0 1 19 11 0 0 4 7 0 5 10 10 1 0 0 0 0 0
0 0 0 0 0 0 3 7 17 114 153 148 61 86 64 30 35 42 33 144 202 89 100 131 45 48 23 10 16 11 0 9 11 48 20 0 6 9 4 0 3 7 16 0 0 0 0 0 0
0 0 0 0 0 0 0 0 0 193 207 104 42 42 23 3 3 13 17 49 51 69 105 155 36 36 40 23 12 16 10 6 41 77 41 16 16 28 17 17 27 24 10 3 0 0 0 0 0
0 0 0 0 0 0 1 5 0 157 95 221 27 27 17 0 0 1 1 0 6 13 32 75 23 17 11 25 16 8 10 28 43 61 83 87 102 99 104 103 71 32 29 1 0 0 0 0 0
0 0 0 0 0 0 1 0 0 0 65 65 19 50 12 0 0 0 0 1 0 6 17 2 46 8 12 20 8 15 14 7 15 18 32 48 74 159 161 119 113 69 27 0 0 0 0 0 0
0 0 0 0 3 3 0 0 0 6 0 16 53 37 0 0 0 0 0 0 2 0 0 14 17 6 17 19 4 16 10 3 0 2 1 1 70 82 168 144 94 62 26 0 0 0 0 0 0
0 0 0 0 0 26 1 0 0 7 0 14 81 16 0 0 0 0 0 0 0 0 0 0 4 1 0 4 2 1 1 0 2 4 2 3 14 70 144 126 103 47 5 0 9 0 0 0 0
0 0 0 0 1 19 21 8 6 0 15 64 35 21 0 8 0 0 0 0 0 0 0 0 0 0 0 0 5 0 0 0 3 0 0 0 0 41 94 141 94 71 3 44 19 25 11 0 0
0 0 0 0 0 1 0 0 0 6 9 24 31 40 0 7 8 0 0 0 0 0 0 0 0 0 0 0 0 0 1 3 0 0 0 0 0 0 16 51 132 68 39 27 49 48 14 13 29
0 0 0 0 0 0 0 0 0 0 26 53 90 96 37 31 7 0 0 0 0 0 0 0 0 0 0 0 0 0 0 0 0 0 0 0 5 14 18 64 109 62 60 48 62 52 30 41 38
0 0 0 0 0 0 0 0 0 0 41 119 129 148 147 92 12 0 0 0 0 0 0 0 0 0 0 0 0 0 0 0 0 0 0 2 30 31 103 139 177 127 97 40 36 10 21 41 34
0 0 0 0 0 0 0 0 0 46 59 148 190 197 226 201 81 6 1 0 0 0 0 0 0 0 0 0 0 0 0 0 0 0 0 0 46 82 115 164 206 112 91 94 36 24 23 35 37
0 0 0 0 0 0 0 0 0 0 35 82 131 201 268 296 190 87 38 14 5 0 0 0 0 0 0 0 0 0 0 0 0 0 0 0 26 86 123 170 124 87 84 85 46 42 43 41 25
0 0 0 0 0 0 0 0 0 0 0 0 33 146 205 337 300 220 83 81 58 21 1 0 0 0 0 0 0 0 0 15 13 7 4 0 13 43 164 207 149 110 63 68 52 28 26 44 50
0 0 0 0 0 0 0 0 0 0 0 0 0 70 174 268 272 333 281 179 147 129 77 75 9 0 0 0 0 5 20 28 55 117 225 31 53 134 145 229 188 131 115 78 52 42 64 96 66
0 0 0 0 0 0 0 0 0 0 0 0 0 2 60 115 211 306 352 337 247 197 186 155 151 138 60 12 0 0 18 35 54 69 140 184 76 177 163 135 85 78 117 89 115 54 54 86 56
0 0 0 2 0 0 0 0 0 0 0 1 0 0 0 107 176 226 269 329 348 277 239 243 215 169 207 149 56 8 12 39 100 105 107 170 215 266 320 261 227 148 119 133 249 64 167 36 17
0 0 0 0 0 0 0 0 0 0 0 0 0 1 1 40 114 170 160 193 253 295 294 219 211 239 259 272 252 120 130 174 169 168 188 269 185 317 257 263 232 168 219 215 160 124 59 34 9

GFSSGP_con_mucape_051.txt.gz
CAPE
0 0 0 0 0 0 0 0 0 0 29 52 144 288 451 549 727 544 679 425 1213 1435 1523 1449 1467 1475 1308 1253 1222 1044 1257 1406 1507 1170 991 922 766 562 349 210 253 420 378 78 59 48 34 17 8
0 0 0 0 0 0 0 0 0 10 117 164 352 378 307 240 833 940 542 445 1414 1439 1334 1244 1445 1464 1396 1230 1118 1107 1381 1525 1560 1260 1009 871 704 470 258 183 281 418 379 46 12 4 0 0 48
0 0 0 0 0 0 0 0 0 11 64 157 532 558 518 329 384 556 690 907 1439 1320 963 678 920 1137 903 1206 1175 1015 1230 1342 1457 1293 988 805 674 508 279 141 279 472 378 26 1 0 0 7 4
0 0 0 0 0 0 0 0 3 27 25 167 512 401 353 465 872 1056 813 524 1266 1301 1061 943 905 1100 853 702 1016 970 1266 1182 1385 1337 909 862 732 531 335 150 338 561 207 0 0 0 0 17 0
0 0 0 0 0 0 0 0 0 53 35 39 76 44 361 472 723 973 838 789 739 1193 832 592 356 718 723 563 452 668 1181 1092 1245 1145 801 812 696 589 374 178 160 128 8 0 0 0 154 37 0
0 0 0 0 0 0 0 0 26 82 71 33 17 8 0 457 439 669 740 868 932 643 281 316 265 283 538 584 348 573 970 980 874 1035 813 820 685 529 406 262 139 37 0 3 0 0 18 0 0
0 0 0 0 0 0 0 1 29 33 62 161 155 94 32 363 329 663 695 919 731 582 584 161 180 91 124 85 148 208 864 799 740 891 881 731 580 422 360 178 30 0 0 0 0 0 0 3 0
0 0 0 0 0 0 0 14 30 29 88 339 367 645 129 251 620 714 793 692 468 471 694 456 163 60 16 32 18 209 656 687 708 938 992 630 505 410 214 28 0 0 0 0 0 0 13 1 4
0 0 0 0 0 0 4 14 8 17 92 171 298 295 316 395 653 838 877 788 710 347 416 349 42 44 13 17 19 94 629 642 707 805 900 414 170 53 0 6 0 0 0 0 0 0 4 10 0
0 0 0 0 0 0 0 3 0 0 0 75 52 174 225 182 249 486 575 655 662 347 331 136 51 100 7 7 7 52 139 364 493 535 549 177 18 0 0 0 0 0 0 0 0 0 0 0 0
0 0 0 0 0 0 0 0 3 12 2 5 0 91 25 55 123 125 486 473 394 307 220 110 53 17 16 0 0 0 8 98 293 392 316 101 0 0 0 0 0 0 0 0 0 0 0 0 0
0 0 0 0 0 0 0 21 29 2 7 7 0 33 32 36 28 132 64 445 253 167 125 78 49 52 65 18 0 1 28 14 126 225 213 38 0 0 0 0 0 0 0 0 0 0 0 0 0
0 0 0 0 0 0 0 104 24 88 136 14 22 58 48 26 10 18 34 112 229 69 172 116 148 154 74 9 0 0 12 1 111 169 58 0 0 0 0 0 0 0 0 0 0 0 0 0 0
0 0 0 0 0 2 15 18 0 3 131 39 29 62 37 1 9 31 42 53 99 80 31 75 97 131 55 17 16 5 0 45 33 5 2 0 0 0 0 0 2 0 0 0 0 0 0 0 0
0 0 0 0 0 0 0 0 0 0 91 21 9 16 14 0 0 0 7 22 17 78 63 30 30 47 54 13 1 26 1 0 5 0 0 0 0 0 0 1 1 12 14 3 1 0 0 0 0
0 0 0 0 0 0 0 0 0 36 43 18 5 0 9 1 0 1 0 7 7 13 33 48 26 64 95 43 21 62 2 3 40 2 1 1 1 0 0 0 2 28 37 11 8 0 0 0 0
0 0 0 0 0 0 0 0 0 109 99 83 0 0 6 0 0 0 0 3 11 3 16 34 15 50 20 45 20 8 25 30 67 26 14 26 33 27 22 61 54 71 78 31 5 0 0 0 0
0 0 0 0 0 0 0 0 0 69 8 62 0 0 4 0 0 0 0 0 2 0 1 15 2 18 20 52 12 23 15 66 82 41 47 53 61 88 94 114 142 96 93 54 31 12 0 0 0
0 0 0 0 0 0 0 0 0 0 0 0 0 0 0 0 0 0 0 0 1 3 3 8 0 11 11 12 14 14 1 80 74 62 63 50 68 112 190 184 119 139 121 48 18 22 0 0 0
0 0 0 0 0 0 0 0 0 0 0 0 0 0 0 0 0 0 0 0 0 0 0 0 0 1 0 1 7 12 52 21 58 40 1 3 29 11 95 166 202 195 133 66 53 18 0 0 0
0 0 0 0 0 0 9 0 0 0 1 0 0 0 0 0 0 0 0 0 0 0 0 0 0 0 0 0 2 8 32 49 0 23 3 15 5 5 12 130 160 139 87 71 49 33 18 10 32
0 0 0 0 0 0 0 0 0 0 0 0 6 0 0 0 0 0 0 0 0 0 0 0 0 0 0 0 1 0 0 0 0 0 1 5 4 1 0 1 35 115 163 107 85 49 41 32 39
0 0 0 0 0 0 0 0 0 0 0 0 0 4 11 34 4 0 0 0 0 0 0 0 0 0 0 0 0 0 0 0 0 0 0 0 0 0 0 0 8 9 109 70 60 46 38 44 48
0 0 0 0 0 0 0 0 0 0 0 0 0 12 22 58 84 17 0 0 0 0 0 0 0 0 0 0 0 0 0 0 0 0 0 0 0 0 0 5 58 67 75 84 76 31 36 46 34
0 0 0 0 0 0 0 0 0 0 0 0 0 10 65 111 130 146 22 0 0 0 0 0 0 0 0 0 0 0 0 0 0 0 0 0 0 0 0 15 41 40 100 117 94 91 53 46 31
0 0 0 0 0 0 0 0 0 0 0 0 0 18 57 126 173 198 161 51 11 0 0 0 0 0 0 0 0 0 0 0 0 0 0 0 0 0 0 11 12 43 56 90 29 85 81 42 55
0 0 0 0 0 0 0 0 0 0 0 0 0 3 63 107 143 205 253 206 70 30 14 1 0 0 0 0 0 0 0 0 6 1 2 2 5 0 3 6 23 21 66 99 52 59 55 61 59
0 0 0 0 0 0 0 0 0 0 0 0 0 0 4 56 80 136 229 282 255 130 63 89 62 25 0 0 0 0 0 0 8 4 24 26 27 1 44 105 71 70 97 104 116 73 70 53 113
0 0 0 0 0 0 0 0 0 0 0 0 0 0 0 17 65 107 155 248 252 264 213 132 120 63 31 12 1 0 0 0 0 0 0 1 26 42 55 104 52 136 158 185 94 118 58 148 65
0 0 0 0 0 0 0 0 0 0 0 0 0 0 0 0 0 72 91 150 227 231 290 363 216 173 119 85 75 32 24 1 0 0 3 17 39 57 79 45 121 97 124 146 113 98 105 188 64

GFSSGP_con_mucape_054.txt.gz
CAPE
0 0 0 0 0 0 0 0 0 0 0 10 118 143 216 354 284 226 585 846 1363 1423 1482 1391 1464 1459 1352 1315 1323 1350 1437 1340 1333 1207 1049 999 813 510 541 500 476 495 439 88 59 49 35 16 11
0 0 0 0 0 0 0 0 0 0 1 23 125 283 179 182 632 740 563 613 1511 1523 1462 1322 1457 1477 1445 1395 1379 1461 1677 1436 1324 1190 1115 955 693 669 663 545 446 540 587 187 162 145 42 18 27
0 0 0 0 0 0 0 0 0 0 0 11 142 332 327 142 286 581 622 527 1731 1511 1453 1243 1361 1459 1471 1454 1468 1526 1598 1228 1207 1135 1091 877 687 701 729 479 483 566 386 131 93 84 57 13 24
0 0 0 0 0 0 0 0 0 0 0 1 242 239 137 296 607 834 846 837 2023 1562 1372 1173 1156 1373 1616 1518 1582 1559 1574 1144 994 957 994 773 612 758 630 424 444 479 124 9 43 105 0 0 0
0 0 0 0 0 0 0 0 0 11 0 0 0 0 168 182 507 709 863 525 1445 1523 1207 948 1151 1186 1411 1510 1516 1443 1436 1178 929 826 753 632 516 538 546 455 384 157 24 5 5 13 0 0 0
0 0 0 0 0 0 0 0 0 8 44 39 0 0 0 302 350 432 688 724 680 1294 785 724 1035 1037 831 868 875 884 1088 1074 823 677 751 564 432 402 486 272 66 22 83 300 279 51 0 0 0
0 0 0 0 0 0 0 0 0 2 43 12 19 22 11 242 199 272 637 561 835 539 513 359 394 405 290 213 34 316 654 792 785 693 681 528 457 290 250 101 8 1 52 231 87 0 0 0 0
0 0 0 0 0 0 0 0 0 9 3 184 41 362 38 140 309 552 791 822 764 608 292 128 160 124 96 75 21 41 468 609 600 655 649 465 409 285 86 0 0 0 0 14 55 0 0 0 0
0 0 0 0 0 0 0 0 0 4 34 141 261 170 201 375 641 566 980 735 499 487 305 189 127 87 34 16 10 10 162 213 427 629 484 334 217 73 0 0 0 0 0 0 0 4 0 0 0
0 0 0 0 0 0 0 0 0 0 0 41 57 51 156 141 330 321 276 492 485 345 331 137 7 10 26 1 4 44 30 153 300 432 338 217 132 7 0 0 0 0 0 0 4 28 18 0 0
0 0 0 0 0 0 0 0 0 0 0 0 10 16 63 100 329 300 125 141 312 238 181 165 0 0 2 0 0 7 0 77 225 357 317 202 72 72 0 0 0 0 0 0 0 0 0 0 0
0 0 0 0 0 0 0 0 0 0 3 30 10 22 51 55 55 53 193 128 203 232 142 101 17 1 1 0 0 3 0 29 100 244 279 148 78 36 1 0 0 0 0 0 0 0 0 0 0
0 0 0 0 0 0 0 0 0 0 34 15 38 77 50 36 38 69 120 133 92 118 120 33 51 9 29 23 0 0 6 41 95 136 177 141 64 11 0 0 0 0 0 0 0 0 0 0 0
0 0 0 0 0 0 0 0 0 0 70 19 44 98 58 23 2 1 47 89 74 43 59 95 43 44 28 67 1 0 4 1 48 79 135 113 28 6 7 3 1 0 0 0 0 0 0 0 0
0 0 0 0 0 0 0 0 0 0 74 45 19 50 113 96 0 0 1 31 84 29 18 17 51 30 62 30 4 0 1 3 4 35 77 91 7 12 14 6 5 0 6 3 0 0 0 0 0
0 0 0 0 0 0 0 0 0 0 75 35 6 10 22 44 30 2 1 0 8 7 65 23 21 36 25 15 8 0 0 3 6 38 51 76 8 21 24 13 12 11 24 14 7 4 0 0 0
0 0 0 0 0 0 0 0 0 0 41 28 0 0 0 0 6 1 0 1 0 1 25 28 25 16 19 7 8 5 12 27 18 13 88 43 14 31 25 21 21 31 44 26 42 18 0 0 0
0 0 0 0 0 0 0 0 0 3 12 40 38 7 0 0 0 0 0 0 0 1 1 7 37 26 7 157 23 3 73 89 58 40 26 25 30 17 17 11 29 46 47 47 67 50 13 0 0
0 0 0 0 0 0 0 0 0 0 0 21 13 3 0 0 0 0 0 0 0 0 1 9 13 15 14 23 27 3 0 47 56 55 36 50 64 73 53 104 81 63 78 93 60 41 23 0 0
0 0 0 0 0 0 0 0 0 0 0 0 0 0 0 0 0 0 0 0 0 1 1 0 11 11 33 22 15 4 7 28 26 117 71 86 104 134 137 105 164 138 77 105 84 66 65 28 3
0 0 0 0 0 0 0 0 0 0 0 0 0 0 0 0 0 0 0 0 0 0 0 0 0 8 0 9 2 6 2 6 12 48 68 94 50 55 52 79 128 139 128 110 77 82 53 29 19
0 0 0 0 0 0 0 0 0 0 0 0 0 0 0 0 0 0 0 0 0 0 0 0 0 0 2 5 7 10 0 2 0 41 41 37 10 9 12 23 62 101 112 101 99 68 44 29 32
0 0 0 0 0 0 0 0 0 0 0 0 0 0 0 0 0 0 0 0 0 0 0 0 0 0 0 8 8 5 26 38 4 32 14 10 1 14 7 1 0 5 23 98 131 111 80 33 39
0 0 0 0 0 0 0 0 0 0 0 0 0 0 0 0 1 1 0 0 0 0 0 0 0 0 1 2 0 2 0 0 1 17 15 4 4 0 3 1 0 0 0 18 27 102 105 64 39
0 0 0 0 0 0 0 0 0 0 0 0 0 0 0 0 7 44 16 0 0 0 0 0 0 0 0 0 2 2 0 0 0 0 0 0 0 0 0 0 0 0 0 12 58 81 109 97 52
0 0 0 0 0 0 0 0 0 0 0 0 0 0 0 3 17 48 94 46 0 0 0 0 0 0 0 0 0 0 0 0 0 0 0 0 0 0 0 0 0 0 0 13 23 56 69 34 56
0 0 0 0 0 0 0 0 0 0 0 0 0 0 0 0 28 38 86 136 98 17 12 0 0 0 0 0 0 0 0 0 0 0 0 0 0 0 0 0 1 4 3 10 19 15 60 19 4
0 0 0 0 0 0 0 0 0 0 0 0 0 0 0 0 20 42 49 93 142 148 66 40 5 0 0 0 0 0 0 0 0 0 0 0 0 0 0 0 0 0 5 12 13 18 50 75 49
0 0 0 0 0 0 0 0 0 0 0 0 0 0 0 0 0 3 21 47 88 134 207 172 98 56 37 1 0 0 0 0 0 0 0 0 9 6 13 2 0 5 15 73 75 37 49 78 111
0 0 0 0 0 0 0 0 0 0 0 0 0 0 0 0 0 7 19 53 74 82 102 161 201 172 132 74 49 11 12 0 0 0 0 0 0 0 2 6 23 41 61 86 95 79 141 110 91

GFSSGP_con_mucape_060.txt.gz
CAPE
0 0 0 0 0 0 0 0 0 0 0 0 38 61 95 161 104 166 763 923 1140 1306 1504 1164 1402 1842 2054 1918 1854 1819 1775 1699 1498 1557 1512 1529 1435 1322 1071 800 624 602 612 106 19 12 28 21 8
0 0 0 0 0 0 0 0 0 0 0 5 58 80 184 124 291 765 847 1042 945 1518 1615 1242 1498 1753 2097 2045 1955 1882 1921 1753 1611 1636 1511 1508 1269 1059 833 554 404 414 357 28 21 16 13 17 41
0 0 0 0 0 0 0 0 0 0 0 2 19 146 217 282 253 673 701 795 989 1559 1266 1240 1482 1514 2000 1993 1994 1898 1824 1663 1617 1500 1388 1302 1128 903 669 344 199 252 159 12 13 18 25 24 40
0 0 0 0 0 0 0 0 0 0 0 0 26 66 313 420 536 815 905 872 1349 1456 1234 1253 1484 1540 1951 2051 2071 1930 1703 1533 1481 1288 1342 1319 1175 904 643 301 337 492 273 9 14 20 21 23 17
0 0 0 0 0 0 0 0 0 0 0 15 25 0 33 395 465 536 884 934 1284 1346 1807 1361 1358 1237 1625 2100 2119 1909 1689 1509 1287 1231 1249 1231 1195 1041 617 458 432 519 206 62 12 15 15 16 1
0 0 0 0 0 0 0 0 0 0 0 51 51 29 19 348 395 613 743 961 1218 1360 1088 1473 1139 1044 1495 1717 1751 1624 1469 1377 1170 1179 1185 1220 1104 875 728 635 587 484 234 94 43 36 5 0 0
0 0 0 0 0 0 0 0 0 0 2 26 49 13 160 361 433 826 946 993 1172 1199 923 823 595 300 513 738 1205 894 1232 1190 1072 1073 1084 1008 817 704 594 551 612 488 176 114 47 5 0 0 0
0 0 0 0 0 0 0 0 0 0 0 94 82 22 38 646 612 896 922 781 1107 970 821 727 605 360 229 110 369 588 683 894 851 964 892 612 587 521 260 226 410 405 191 65 72 0 0 0 0
0 0 0 0 0 0 0 0 0 2 1 80 279 273 494 424 461 714 855 760 911 1071 830 831 427 314 181 146 181 639 792 669 616 861 640 546 513 268 96 83 299 326 89 54 72 0 0 0 0
0 0 0 0 0 0 0 0 0 0 0 22 93 384 494 421 374 557 588 734 404 587 367 396 196 218 126 95 117 141 318 408 524 589 747 423 533 233 8 187 285 181 96 98 59 0 0 0 0
0 0 0 0 0 0 0 0 0 0 0 0 1 75 442 472 385 197 352 434 287 387 248 166 196 72 119 97 62 95 66 67 100 168 421 473 372 130 87 285 305 220 47 11 0 0 0 0 0
0 0 0 0 0 0 0 0 0 0 0 16 7 93 413 373 127 100 133 219 173 137 234 55 151 28 68 87 10 30 52 83 82 65 166 282 133 151 137 168 159 125 62 53 6 1 8 0 0
0 0 0 0 0 0 0 0 0 0 2 20 51 120 329 165 17 5 28 11 76 86 106 51 28 27 0 19 38 43 26 51 74 42 154 252 191 139 53 82 106 125 171 155 51 34 21 0 0
0 0 0 0 0 0 0 0 0 0 0 94 102 159 202 140 23 0 6 6 29 74 65 41 86 89 3 35 71 71 6 8 14 60 223 247 175 133 54 40 1 11 90 122 40 22 19 0 0
0 0 0 0 0 0 0 0 0 0 40 72 147 190 184 128 1 0 5 11 3 36 42 29 45 2 1 6 8 3 2 9 13 66 230 211 156 145 90 27 20 5 17 13 8 8 9 3 1
0 0 0 0 0 0 0 0 0 0 28 49 107 125 167 142 0 0 2 1 12 22 4 5 0 20 1 3 4 0 3 14 84 118 181 155 136 117 89 40 29 8 0 0 5 3 9 3 0
0 0 0 0 0 0 0 0 0 0 0 0 55 131 127 66 5 0 0 6 1 1 46 1 0 13 10 13 1 0 4 40 53 101 140 135 101 106 82 50 97 50 0 0 0 0 0 0 0
0 0 0 0 0 0 0 0 0 0 3 19 29 115 206 123 13 0 0 3 8 18 3 5 1 25 17 12 19 2 8 5 8 43 171 121 90 108 76 58 118 84 28 22 10 0 0 0 0
0 0 0 0 0 0 0 0 0 0 0 17 74 129 186 193 31 0 0 3 11 8 11 2 23 7 22 17 19 9 2 0 0 40 69 131 108 142 138 119 132 108 99 94 76 32 17 0 0
0 0 0 0 0 0 0 0 0 0 0 0 55 131 204 251 62 0 0 1 4 13 23 1 10 32 7 53 3 2 9 4 0 30 40 108 150 132 134 150 119 106 147 156 130 94 71 29 15
0 0 0 0 0 0 0 0 0 0 0 0 14 53 127 248 162 9 0 0 3 6 3 26 2 4 10 12 1 4 2 1 0 6 0 56 153 198 118 139 174 167 153 196 207 169 160 133 63
0 0 0 0 0 0 0 0 0 0 0 0 0 46 69 168 147 37 1 0 0 1 11 22 0 32 0 0 0 4 0 0 0 0 34 87 124 162 157 131 192 251 236 203 269 268 242 266 235
0 0 0 0 0 0 0 0 0 0 0 0 0 0 43 77 142 72 18 0 0 0 7 11 0 0 0 0 0 2 0 1 2 1 0 98 79 114 146 167 231 286 285 261 293 244 217 245 264
0 0 0 0 0 0 0 0 0 0 0 0 0 0 0 22 87 99 31 0 0 0 1 8 0 0 0 0 0 1 6 0 0 0 1 1 36 83 106 142 246 279 208 119 54 156 296 306 238
0 0 0 0 0 0 0 0 0 0 0 0 0 0 0 10 70 110 69 18 10 0 0 1 2 0 0 0 0 1 15 0 6 0 8 3 41 37 41 77 197 135 89 70 50 181 382 414 312
0 0 0 0 0 0 0 0 0 0 0 0 0 0 0 1 62 125 105 56 36 0 0 0 2 5 0 0 0 0 26 14 0 2 7 0 0 16 0 0 84 89 49 75 198 162 141 186 235
0 0 0 0 0 0 0 0 0 0 0 0 0 0 0 0 66 135 149 112 61 7 0 0 0 0 12 0 0 0 24 24 18 1 0 2 2 4 8 5 6 80 80 97 104 176 96 244 288
0 0 0 0 0 0 0 0 0 0 0 0 0 0 0 0 35 129 204 163 118 35 0 0 0 0 0 8 17 17 19 18 25 37 23 8 23 17 2 4 13 23 34 46 60 127 137 237 335
0 0 0 0 0 0 0 0 0 0 0 0 0 0 0 0 76 195 213 195 169 111 42 16 9 1 0 1 5 7 8 11 26 21 30 22 25 9 8 7 9 15 26 33 84 70 61 151 264
0 0 0 0 0 0 0 0 0 0 0 0 0 0 15 0 4 105 258 268 156 156 97 79 89 79 39 6 0 2 5 7 9 11 7 36 30 39 18 20 24 17 30 78 84 132 27 154 276

GFSSGP_con_mucape_063.txt.gz
CAPE
0 0 0 0 0 0 0 0 0 0 0 0 0 0 13 0 4 98 1016 1147 1478 1651 1765 1303 1501 1924 2173 1962 1798 1797 1799 1724 1560 1542 1528 1653 1469 1399 1337 1015 914 986 861 383 375 248 101 42 39
0 0 0 0 0 0 4 0 0 0 0 0 0 0 0 30 41 121 956 1259 1252 1627 1605 1347 1421 1810 1887 1797 1765 1865 1930 1813 1681 1778 1815 1744 1673 1455 1154 940 887 918 683 103 159 121 33 5 27
0 0 0 0 0 0 0 0 0 0 0 0 0 0 0 18 217 494 1038 1133 1249 1691 1723 1484 1459 1614 1897 1822 1921 1861 1900 1688 1750 1787 1903 1843 1652 1378 1083 797 722 767 490 19 30 54 23 2 0
0 0 0 0 0 0 0 0 0 0 0 0 0 0 79 464 470 935 904 960 1131 1672 1764 1475 1329 1492 1770 1758 1823 1575 1732 1586 1654 1757 1842 1738 1522 1262 952 698 649 561 301 55 18 28 8 0 0
0 0 0 0 0 0 0 0 0 0 0 0 1 0 23 532 476 579 768 957 1118 1604 1954 1373 1117 1404 1743 1790 1450 1419 1420 1559 1560 1625 1528 1450 1267 997 655 436 339 300 200 158 36 20 0 0 0
0 0 0 0 0 0 0 0 0 0 0 7 4 17 19 548 329 678 788 859 1139 1430 1672 1752 1309 1060 1068 1208 1091 790 1051 1409 1365 1440 1341 1356 1020 772 647 658 394 190 119 104 89 12 0 0 0
0 0 0 0 0 0 0 0 0 0 0 1 16 1 30 514 582 727 936 1180 1126 1253 1360 1575 1624 602 285 149 28 346 1049 1138 1236 1250 1191 1092 854 713 773 672 356 190 131 117 51 5 0 0 0
0 0 0 0 0 0 0 0 0 0 0 10 0 0 25 997 820 925 894 944 976 1135 846 1175 922 384 373 286 176 69 197 848 1035 1096 991 835 817 957 847 453 305 254 165 100 30 2 0 0 0
0 0 0 0 0 0 0 0 0 0 0 0 3 23 303 658 519 745 912 982 1035 1112 1030 1070 471 305 157 158 42 85 129 264 703 944 762 800 582 702 545 270 245 161 70 47 7 0 0 0 0
0 0 0 0 0 0 0 0 0 0 0 0 1 3 303 432 420 445 501 497 967 545 1041 783 568 445 262 152 121 40 35 276 666 1112 897 427 746 813 316 307 180 99 35 0 0 0 0 0 0
0 0 0 0 0 0 0 0 0 0 0 2 0 0 28 487 524 405 330 344 467 524 399 569 496 541 258 98 131 169 62 208 851 687 693 474 751 509 382 585 219 109 0 0 0 0 0 0 0
0 0 0 0 0 0 0 0 0 0 0 0 0 0 26 427 412 257 206 121 513 238 127 238 193 169 139 206 32 23 55 76 165 242 190 162 303 251 294 335 180 12 0 0 0 0 16 0 0
0 0 0 0 0 0 0 0 0 0 0 0 0 34 120 391 239 189 91 93 144 123 84 86 168 111 122 138 115 97 34 12 31 59 57 91 167 282 251 331 266 68 107 32 0 18 3 1 1
0 0 0 0 0 0 0 0 0 0 0 0 18 46 176 325 192 205 61 52 57 62 73 43 1 38 30 45 61 99 38 39 25 15 32 51 169 203 261 298 278 206 209 132 40 50 12 2 1
0 0 0 0 0 0 0 0 0 0 0 0 40 81 198 294 217 179 3 100 57 110 57 1 1 47 18 1 2 10 8 21 15 2 14 52 162 238 309 334 397 309 264 241 147 39 17 2 0
0 0 0 0 0 0 0 0 0 0 0 0 24 79 188 397 293 140 0 51 41 114 29 0 0 14 28 1 1 19 44 23 8 25 52 10 170 206 271 237 232 194 239 160 82 20 14 7 0
0 0 0 0 0 0 0 0 0 0 0 0 8 63 122 252 269 129 0 8 134 68 214 15 0 0 1 0 0 3 3 13 8 12 56 95 195 180 217 180 220 218 139 169 117 104 69 32 2
0 0 0 0 0 0 0 0 0 0 0 0 4 17 99 220 178 120 0 0 62 116 56 10 12 0 5 2 3 1 0 5 4 11 84 148 108 140 162 167 207 90 73 55 101 108 47 24 0
0 11 10 0 0 0 0 0 0 0 0 0 1 13 61 260 219 80 0 0 18 74 37 6 6 0 10 26 0 1 0 0 0 26 57 140 68 144 183 192 261 264 128 97 213 78 54 0 0
0 0 0 0 0 0 0 0 0 0 0 0 3 15 37 149 266 50 0 5 52 39 10 17 2 7 19 20 25 3 13 0 1 11 58 107 137 208 258 270 266 269 247 288 237 240 81 24 6
0 0 0 0 0 0 0 0 0 0 0 0 0 0 9 57 291 123 0 0 26 49 8 11 8 7 45 7 14 4 3 1 1 0 0 50 85 172 224 309 280 255 340 297 327 363 294 155 60
0 0 0 0 0 0 0 0 0 0 0 0 0 0 0 6 146 286 55 9 16 8 8 35 30 1 0 0 0 0 0 0 0 0 0 2 25 155 154 138 153 295 250 270 327 302 293 309 212
0 0 0 0 0 0 0 0 0 0 0 0 0 1 3 0 45 269 174 45 10 21 14 7 22 14 0 0 3 1 19 1 13 3 2 0 1 75 75 112 93 158 331 279 394 390 383 351 260
0 0 0 0 0 1 0 0 0 3 1 3 0 0 0 0 0 172 219 128 16 11 25 10 9 19 13 0 0 0 0 0 0 0 0 0 1 44 125 115 101 96 180 232 287 312 394 342 327
0 0 0 0 0 0 0 0 0 0 0 0 0 0 0 0 0 113 248 169 31 11 29 8 5 5 11 5 0 0 0 1 3 2 0 1 0 16 112 132 157 170 170 131 183 323 359 400 336
0 0 0 0 0 2 4 0 0 3 0 0 0 0 0 0 1 92 236 254 78 19 27 16 0 4 5 0 0 0 0 0 0 4 4 3 1 21 70 164 148 156 115 81 170 187 183 197 295
0 0 0 0 18 18 12 2 1 0 0 0 0 0 0 0 0 63 178 311 184 48 36 29 0 1 3 13 2 0 0 0 0 1 5 2 10 55 95 93 124 136 160 178 136 78 53 134 96
0 1 0 0 0 0 9 46 26 0 1 7 0 7 1 0 0 59 198 343 303 119 37 27 1 2 5 5 20 21 20 34 8 12 23 1 2 82 71 100 59 55 38 41 114 73 51 94 163
0 0 0 0 0 0 0 9 23 0 13 31 31 11 5 0 17 71 225 343 411 302 113 44 7 0 23 23 4 17 15 34 32 26 63 31 38 43 37 1 10 24 22 36 44 93 106 112 154
17 0 0 0 0 0 0 0 0 0 0 0 0 29 41 5 1 160 301 397 460 438 310 118 49 8 14 51 52 97 97 96 101 168 154 270 106 46 68 94 2 7 12 32 37 44 61 132 119

GFSSGP_con_mucape_066.txt.gz
CAPE
0 0 0 0 0 0 0 0 0 0 0 0 0 0 0 0 0 329 975 1196 1443 2004 1705 1384 1806 2158 1961 1888 1831 1791 1726 1636 1505 1566 1515 1407 1360 1291 1266 1255 1148 1140 1120 684 573 379 247 329 429
0 0 0 0 0 0 0 0 0 0 0 0 0 0 0 2 37 34 1284 1134 1183 1457 1796 1579 1606 2001 2055 1902 1803 1857 1872 1797 1627 1613 1666 1499 1477 1585 1343 1169 1048 1121 1112 625 504 334 137 166 233
0 0 0 0 0 0 0 0 0 0 0 0 0 0 0 8 67 92 1073 1041 1188 1399 1776 1683 1522 1742 2043 1871 1730 1861 1807 1672 1593 1630 1784 1572 1675 1573 1365 1096 999 1015 993 472 323 93 44 54 14
0 0 0 0 0 0 0 0 0 0 0 0 0 0 34 203 27 748 617 746 952 1340 1700 1550 1360 1632 2010 1965 1779 1684 1741 1520 1562 1660 1745 1874 1679 1552 1260 980 835 839 790 321 98 29 4 1 0
0 0 0 0 0 0 0 0 0 0 0 0 0 0 21 406 311 376 507 769 965 1463 2062 1459 1449 1451 1759 1703 1611 1119 938 1405 1342 1764 1755 1639 1519 1333 1080 913 714 526 368 326 93 7 0 0 0
0 0 0 0 0 0 1 0 0 0 0 0 1 2 14 603 143 810 727 686 1031 1183 1903 1894 1203 1279 1196 1225 874 470 588 900 1154 1667 1569 1473 1231 971 869 696 539 393 212 163 86 9 0 0 0
0 0 0 0 0 0 0 0 0 0 0 0 6 0 22 431 500 708 770 1254 1466 1444 1500 1721 1866 1187 717 680 573 191 125 72 828 1264 1226 1088 775 644 684 619 461 378 228 127 39 0 0 0 0
0 0 0 0 0 0 1 0 0 0 0 0 0 0 89 766 875 801 1001 1287 857 1325 1358 1108 1231 1032 696 437 214 199 60 61 162 847 765 602 627 798 609 350 318 293 184 79 4 0 0 0 0
0 0 0 0 0 0 0 0 0 0 0 0 0 0 374 917 450 679 862 1060 1075 1243 1158 1134 928 549 442 319 131 47 9 0 3 664 464 449 521 557 306 143 193 197 67 53 16 0 0 0 0
0 0 0 0 0 0 0 0 0 0 0 0 0 7 520 202 287 359 360 1127 1126 798 1136 1147 625 312 144 106 118 142 44 2 4 367 322 367 485 398 277 153 111 78 7 4 10 0 0 0 0
0 0 0 0 0 0 0 0 0 0 0 0 0 0 65 490 370 415 448 268 1045 755 807 697 404 331 198 178 216 108 1 12 195 304 259 405 425 249 199 49 19 0 0 0 0 0 0 0 0
0 0 0 0 0 0 0 0 0 0 0 0 0 0 0 150 326 289 163 184 632 423 332 337 250 216 164 111 135 49 35 2 152 201 196 275 233 126 161 0 0 0 0 0 0 0 0 0 0
0 0 0 0 0 0 0 0 0 0 0 0 0 0 8 99 160 135 158 200 184 148 36 146 61 40 37 85 69 37 2 22 52 129 117 130 117 126 96 0 0 0 0 0 0 0 0 0 0
0 0 0 0 0 0 0 0 0 0 0 0 0 0 28 86 159 73 164 42 188 147 50 49 52 9 19 41 41 29 2 49 69 26 50 40 74 134 129 21 0 2 0 0 0 0 0 0 1
0 0 0 0 0 0 0 0 0 0 0 0 0 0 10 415 151 90 55 113 154 47 154 3 14 11 5 28 23 20 9 0 23 11 6 25 33 118 114 105 29 21 0 13 0 16 0 1 0
0 0 0 0 0 0 0 0 0 0 0 0 0 0 12 239 216 88 3 60 82 137 94 0 1 0 0 0 3 1 9 3 22 14 3 23 26 80 105 89 110 97 33 92 20 8 0 3 0
0 0 0 0 0 0 0 0 0 0 0 0 0 10 28 171 354 184 0 10 95 91 85 8 0 3 0 0 1 0 16 48 26 8 7 4 12 52 75 68 106 135 95 117 49 25 3 3 3
0 0 0 0 0 0 0 0 0 0 0 0 0 0 51 62 216 216 5 0 89 82 89 1 26 5 4 1 0 0 0 1 7 19 8 3 4 65 69 49 82 77 27 98 54 63 67 10 6
0 0 0 0 0 0 0 0 0 0 0 5 0 0 4 72 162 200 10 0 23 102 7 160 6 9 0 0 0 2 4 0 15 1 1 0 12 35 48 56 72 77 72 67 45 77 22 18 7
0 0 0 1 0 0 0 0 0 0 0 2 3 11 4 34 204 205 10 0 16 92 14 9 6 1 0 3 25 1 4 0 1 4 3 3 9 0 29 37 85 113 105 71 62 18 7 1 2
0 0 1 0 0 0 0 0 0 0 0 0 0 0 5 31 163 207 24 0 2 133 0 3 2 13 1 16 16 0 0 0 3 2 0 0 0 6 16 89 93 88 177 140 118 148 42 36 8
0 0 0 0 0 0 0 0 0 0 0 0 0 0 0 0 50 239 75 1 11 38 7 1 5 5 9 19 1 13 0 0 0 0 2 1 0 3 16 80 84 98 151 176 165 161 166 126 22
0 5 0 0 0 0 0 0 0 0 0 0 0 0 0 0 3 291 130 11 5 22 19 0 1 2 0 9 0 0 0 0 4 3 5 5 0 16 44 97 140 193 119 146 125 126 151 179 106
0 0 0 0 0 0 0 0 0 0 0 0 2 2 0 0 2 79 238 51 6 20 17 5 1 5 2 0 0 0 0 0 0 0 1 1 2 1 22 61 75 82 120 114 93 59 62 142 105
0 0 0 0 0 0 0 0 0 0 0 0 0 0 0 0 4 6 228 121 2 23 42 2 6 11 13 3 0 0 0 4 0 0 8 0 0 2 0 27 46 28 33 109 91 59 57 60 73
0 0 0 0 0 0 0 0 0 1 0 0 0 0 0 2 14 0 160 214 32 10 35 20 0 4 7 0 3 0 0 0 0 3 4 6 1 2 2 2 3 26 30 46 81 52 24 2 0
0 0 0 0 0 0 1 0 21 0 0 0 0 0 0 0 0 0 69 294 124 4 15 12 2 0 5 13 1 4 0 0 0 0 0 13 3 4 4 1 5 20 41 40 14 14 8 1 5
0 0 0 0 0 0 45 12 14 22 0 0 0 7 7 2 7 5 26 378 272 23 14 41 0 0 0 8 8 1 3 4 0 0 0 0 4 4 10 9 18 17 32 37 26 21 2 8 12
0 0 0 0 0 0 0 17 167 19 39 40 19 6 14 14 5 45 67 364 415 202 31 42 15 0 3 0 5 6 3 3 2 0 3 3 0 0 0 1 0 19 38 35 12 0 3 7 4
0 0 0 0 0 0 0 0 4 0 0 2 4 18 24 44 0 59 216 314 469 399 133 47 22 3 7 11 6 0 6 7 44 10 1 2 0 0 0 0 0 1 0 9 13 11 15 15 4

GFSSGP_con_mucape_069.txt.gz
CAPE
0 0 0 0 0 0 0 0 0 0 0 0 0 0 0 0 45 443 921 1031 1752 1657 1457 1836 1839 1696 1765 1814 1781 1739 1536 1665 1757 1674 1499 1292 1257 1208 1030 1067 1325 1338 1282 874 184 225 319 477 705
0 0 0 0 0 0 0 0 0 0 0 0 0 0 0 0 713 1086 1074 1044 1372 1757 1608 1608 2028 1852 1834 1816 1794 1815 1767 1778 1831 1735 1567 1456 1469 1516 1500 1353 1249 1278 1160 841 479 338 256 520 498
0 0 0 0 0 0 0 0 0 0 0 0 0 0 0 31 16 812 914 923 1135 1186 1676 1495 1842 1976 1913 1845 1801 1793 1763 1657 1767 1675 1625 1614 1716 1733 1531 1293 1083 1209 1179 807 484 313 352 386 334
0 0 0 0 0 0 0 0 0 0 0 0 0 0 32 2 221 816 653 694 1068 1064 1454 1622 1527 2088 2027 1906 1835 1827 1735 1498 1609 1651 1678 1814 1846 1733 1408 1152 1155 1229 1196 597 353 251 236 51 35
0 0 0 0 0 0 0 0 0 0 0 0 0 0 60 373 447 347 591 593 772 1135 1487 1586 1481 1927 1960 1718 1898 1586 1576 1478 1574 1633 1643 1632 1740 1574 1232 1006 1032 1077 954 661 283 158 26 0 17
0 0 0 0 0 0 0 0 0 0 0 0 0 0 105 146 169 443 449 544 747 1620 1564 1411 1318 1516 1513 1595 1436 1106 842 1007 1076 1159 1273 934 1361 1178 1021 852 848 806 503 274 187 52 23 14 2
0 0 0 0 0 0 0 0 0 0 0 0 0 0 149 120 466 421 455 726 1005 1315 1302 1440 1312 1109 1036 970 880 519 378 311 288 587 479 761 898 866 867 730 592 520 321 161 72 24 3 0 0
0 0 0 0 0 0 0 0 0 0 0 0 0 0 100 275 315 363 763 906 949 1080 1055 1014 1272 1138 771 617 528 332 167 168 17 30 330 511 679 636 657 557 490 329 183 68 54 3 0 0 0
0 0 0 0 0 0 0 0 0 0 0 0 0 0 324 532 544 363 741 770 617 861 858 663 951 984 956 657 323 217 168 140 29 9 5 359 421 340 312 253 285 181 63 53 38 0 0 0 0
0 0 0 0 0 0 0 0 2 0 0 0 0 397 812 658 407 359 644 679 700 776 908 759 596 370 404 291 187 86 36 42 3 0 23 163 251 115 156 158 139 75 31 15 0 0 0 0 0
0 0 0 0 0 0 0 0 0 0 0 0 0 321 407 224 134 100 99 321 830 651 785 681 371 191 137 83 50 11 18 8 0 0 6 199 138 80 60 27 19 1 3 0 0 0 0 0 0
0 0 0 0 0 0 0 0 0 0 0 0 0 34 151 204 127 104 116 572 717 533 433 356 270 96 49 50 10 0 0 1 0 0 39 190 104 63 4 2 1 0 0 0 0 0 0 0 0
0 0 0 0 0 0 0 0 0 0 0 0 0 0 0 129 70 75 93 231 299 211 245 167 45 161 164 0 0 4 1 2 2 17 57 133 85 23 0 0 0 0 0 0 0 0 0 0 0
0 0 0 0 0 0 0 0 0 0 0 0 0 0 0 1 62 46 60 42 83 102 84 42 13 132 0 0 0 0 0 1 31 79 92 91 90 28 0 0 0 0 0 0 0 0 0 0 0
0 0 0 0 0 0 0 0 0 0 0 0 0 0 0 0 66 30 18 45 96 80 21 7 11 2 3 0 0 6 1 12 39 67 73 56 64 44 0 0 0 0 0 0 0 0 0 0 0
0 0 0 0 0 0 0 0 0 0 0 0 0 0 0 2 87 32 0 51 63 25 13 51 32 7 0 1 2 0 0 0 44 57 37 55 56 38 3 0 0 0 0 0 0 0 0 0 0
0 0 0 0 0 0 0 0 0 0 0 0 0 0 0 40 89 43 19 36 21 11 4 14 36 0 0 0 5 0 0 9 18 7 2 18 29 26 15 2 0 14 0 0 0 0 0 0 0
5 0 0 0 0 0 0 0 0 0 0 0 0 0 2 61 112 65 63 14 0 8 0 0 15 11 0 0 1 6 0 4 40 22 20 12 25 16 17 42 32 77 7 18 4 3 9 0 0
10 0 0 0 0 0 0 0 0 0 0 0 0 0 0 25 149 121 107 63 20 4 0 3 6 3 1 0 0 0 10 0 17 31 9 3 3 3 32 32 38 71 60 59 66 41 24 0 0
4 0 0 0 14 2 0 0 0 0 0 0 0 0 0 13 134 153 74 27 21 0 0 1 13 12 8 0 0 3 5 0 0 5 10 4 11 3 19 27 36 34 50 59 49 36 20 10 9
1 0 0 0 12 0 0 0 0 0 0 0 0 1 0 8 84 59 35 9 26 0 0 0 1 8 8 1 0 1 1 0 0 0 13 4 8 8 14 12 6 9 18 9 1 47 9 7 6
0 0 0 0 2 0 0 0 0 0 0 0 0 0 0 0 66 25 48 34 26 10 0 0 0 4 4 5 3 0 0 0 0 4 10 14 5 9 28 2 3 15 3 3 61 63 24 15 5
0 11 0 0 0 0 0 0 0 0 0 0 0 0 0 0 67 55 49 50 19 4 0 14 0 4 3 1 5 0 0 0 0 2 11 15 2 6 4 15 19 4 29 54 57 72 47 25 0
0 0 0 0 0 0 0 0 0 0 0 0 0 0 0 0 58 72 47 57 47 13 13 6 5 0 2 11 2 1 0 0 0 0 0 4 10 5 1 3 40 44 32 102 76 70 66 77 68
0 0 0 0 0 0 0 0 0 0 0 0 0 0 0 0 25 55 81 97 51 26 2 0 0 0 1 6 0 2 0 0 0 0 0 2 0 4 16 6 30 71 56 50 102 83 74 62 61
0 0 0 0 0 0 0 0 0 0 0 0 0 0 0 0 96 123 137 100 64 33 0 0 0 0 0 0 2 2 0 0 0 0 0 7 13 0 8 7 23 24 39 43 69 72 62 44 44
0 0 0 0 0 0 0 0 0 1 1 0 0 0 0 0 50 164 140 120 91 45 0 0 0 0 0 1 4 0 0 0 0 0 0 0 1 10 10 6 7 17 28 33 34 50 48 45 31
0 0 0 0 0 0 0 3 0 0 12 0 0 0 0 2 2 109 128 115 104 80 33 0 0 0 0 0 2 2 0 0 0 0 0 0 0 2 2 16 10 8 12 14 31 26 31 21 22
0 0 0 0 0 0 0 2 0 0 5 1 4 5 10 4 2 1 142 122 113 104 95 24 0 0 0 0 0 0 2 0 0 0 0 0 0 0 0 6 2 11 12 13 11 5 2 9 6
0 0 0 0 0 0 1 21 0 0 0 0 2 5 1 0 0 0 173 152 127 127 133 97 10 0 0 0 0 0 2 0 0 0 5 1 0 0 0 0 0 0 0 0 0 0 4 0 4

GFSSGP_con_mucape_072.txt.gz
CAPE
0 0 0 0 0 0 0 0 0 0 0 0 0 0 0 1 18 11 813 1408 1532 1497 1697 1557 1591 1739 1768 1788 1687 1581 1818 1822 1700 1599 1475 1421 1307 1246 1067 941 1040 1274 1327 899 641 726 728 740 728
0 0 0 0 0 0 0 0 0 0 0 0 0 0 0 395 947 959 927 1508 1601 1416 1708 1704 1608 1728 1831 1816 1770 1629 1851 1828 1761 1595 1474 1448 1382 1255 1404 1273 1122 1248 1299 821 630 814 669 766 660
0 0 0 0 0 0 0 0 0 0 0 0 0 0 0 346 1004 954 902 1481 1615 1522 1594 1841 1620 1688 1862 1831 1792 1630 1764 1820 1734 1558 1567 1561 1462 1686 1732 1491 1392 1291 975 771 524 683 660 677 479
0 0 0 0 0 0 0 0 0 0 0 0 0 2 3 28 737 742 836 1079 1483 1440 1340 1717 1777 1720 1860 1866 1863 1699 1680 1623 1576 1527 1643 1776 1836 1868 1667 1395 1352 1363 1213 1026 816 760 762 461 299
0 0 0 0 0 0 0 0 0 0 0 0 0 0 0 356 616 746 632 895 688 1154 1390 1561 1894 1800 1876 1976 1918 1696 1574 1556 1544 1554 1601 1770 1872 1802 1440 1306 1229 1164 1058 958 869 706 358 170 40
0 0 0 0 0 0 0 0 0 0 0 0 0 6 10 468 547 516 487 673 979 1167 1428 1554 1574 1918 1940 1821 1500 1326 1375 1406 1325 1436 1605 1676 1574 1418 1383 1256 1010 965 790 670 614 207 91 19 0
0 0 0 0 0 0 0 0 0 0 0 0 0 0 88 287 308 521 436 605 1402 1394 1312 1265 1235 1494 1709 1723 1348 1067 808 288 353 316 643 343 677 767 1098 1149 1046 729 577 507 278 94 21 11 0
0 0 0 0 0 0 0 0 0 0 0 0 0 7 84 129 398 360 591 847 1100 1157 1107 1267 1174 1058 1069 1004 1041 856 516 285 193 156 65 66 280 502 799 871 727 534 412 304 181 53 18 3 0
0 0 0 0 0 0 0 0 0 0 5 1 0 2 0 249 396 654 768 783 788 743 669 780 1094 843 1058 771 698 614 360 303 205 125 32 29 195 319 508 368 410 354 185 120 77 19 6 0 0
0 0 0 0 0 0 0 0 0 0 0 0 7 520 265 374 342 637 701 679 626 534 517 487 743 811 642 1225 546 322 139 154 79 12 0 0 1 208 231 261 225 172 88 64 37 1 0 0 0
0 0 0 0 0 0 0 0 0 0 0 0 0 602 496 468 432 333 609 615 605 623 715 595 550 421 598 434 583 483 126 95 30 16 1 1 0 126 170 124 45 42 65 23 0 0 0 0 0
0 0 0 0 0 0 0 0 0 0 0 0 2 653 660 653 390 292 356 551 581 642 679 655 452 195 97 67 71 49 0 0 8 9 2 0 25 115 64 24 1 4 1 0 0 0 0 0 0
0 0 0 0 0 0 0 0 0 0 0 0 23 555 558 244 148 150 141 441 712 558 379 491 369 212 94 36 0 0 0 0 2 0 0 38 69 33 11 0 0 0 0 0 0 0 0 0 0
0 0 0 0 0 0 0 0 0 0 0 0 0 206 145 123 178 141 385 593 434 142 188 263 240 282 68 49 0 2 3 3 1 0 0 10 31 0 1 0 0 0 0 0 0 0 0 0 0
0 0 0 0 0 0 0 0 0 0 0 0 0 7 103 288 112 76 142 153 93 43 87 164 199 59 37 0 0 1 0 0 1 0 3 75 37 9 0 0 0 0 0 0 0 0 0 0 0
0 0 0 0 0 0 0 0 0 0 0 0 0 0 0 17 70 61 35 48 28 4 75 80 52 0 0 0 0 0 0 4 12 9 2 5 52 7 0 0 0 0 0 0 0 0 0 0 0
0 0 0 0 0 0 0 0 0 0 0 0 0 0 0 0 61 89 53 49 19 0 22 64 27 1 2 5 1 2 5 12 34 18 46 14 11 5 0 0 0 0 0 0 0 0 0 0 0
0 0 0 0 0 0 0 0 0 0 0 0 0 0 0 0 116 117 96 53 10 0 1 1 2 2 0 0 7 0 4 25 17 27 38 56 38 45 0 0 0 0 0 0 0 0 0 0 0
0 0 0 0 0 0 0 0 0 0 0 0 0 0 0 11 80 146 103 69 53 0 0 0 1 0 0 0 0 2 0 0 11 24 24 16 28 45 13 0 0 0 0 0 0 0 0 0 0
0 0 0 0 0 0 0 0 0 0 0 0 0 0 0 18 95 173 126 107 97 47 0 0 0 2 1 3 0 7 0 9 13 20 33 52 58 45 38 3 6 14 0 0 10 4 0 1 0
0 0 0 0 0 0 0 0 0 0 0 0 0 0 0 14 122 202 165 149 114 60 8 0 0 0 3 5 0 0 24 2 0 21 36 8 27 26 9 4 9 67 37 21 45 27 16 15 4
0 0 0 1 0 0 0 0 0 0 0 0 0 0 0 0 75 220 192 162 101 65 15 0 0 0 4 4 0 0 0 1 1 27 30 20 10 15 7 4 13 64 70 51 58 66 49 19 0
0 0 0 0 0 0 0 0 0 0 0 0 0 0 0 0 21 134 217 166 94 57 23 0 0 0 0 4 0 0 0 0 9 0 17 22 1 7 25 10 41 44 53 63 52 63 47 26 25
0 0 0 0 0 0 0 0 0 0 0 0 0 0 0 1 16 77 137 136 100 63 26 0 0 0 0 1 0 0 0 0 0 2 0 3 6 17 9 23 19 37 31 49 42 30 14 20 59
0 0 0 0 0 0 0 0 0 0 0 0 0 0 0 0 5 24 83 105 97 81 37 0 0 0 0 0 4 0 0 0 0 0 0 0 1 2 1 3 3 18 13 3 5 0 0 8 55
0 0 0 0 0 0 0 0 0 0 0 0 0 0 0 0 0 18 79 97 102 79 38 0 0 0 0 0 2 0 0 0 0 0 0 0 0 0 7 8 6 7 20 1 6 22 11 48 63
0 0 0 0 0 0 0 0 0 0 0 0 0 0 0 0 0 13 82 120 133 105 54 12 0 0 0 0 1 1 3 0 0 0 0 0 5 10 3 2 17 13 13 25 24 69 77 63 79
0 0 0 0 0 0 0 0 0 0 0 2 0 0 0 8 16 20 108 173 164 121 73 32 0 0 0 0 0 0 2 4 0 0 0 0 0 0 7 21 22 15 3 30 40 27 35 48 51
0 0 0 0 0 0 0 0 2 0 0 0 0 0 0 0 7 71 148 210 192 167 117 68 3 0 0 0 1 0 0 2 2 0 0 0 0 0 0 12 15 11 17 18 7 17 15 17 22
0 0 0 0 0 3 0 0 0 0 0 0 0 5 0 0 0 68 139 151 183 186 165 145 116 17 0 0 0 0 0 0 2 2 0 0 1 0 0 0 1 6 5 12 16 18 20 17 15

GFSSGP_con_mucape_075.txt.gz
CAPE
0 0 0 0 0 0 0 0 0 0 0 0 0 0 0 0 0 0 582 931 1237 1295 1325 1324 1503 1715 1721 1575 1569 1713 1773 1793 1852 1753 1690 1643 1553 1478 1415 1401 1499 1508 1486 1173 1009 1140 1059 881 1004
0 0 0 0 0 0 0 0 0 0 0 0 0 0 0 20 783 742 910 1338 1355 1387 1347 1353 1540 1699 1830 1743 1646 1833 1917 1897 1852 1786 1670 1618 1515 1446 1427 1391 1427 1426 1495 1338 1202 1143 974 895 893
0 0 0 0 0 0 0 0 0 0 0 0 0 0 0 143 921 851 790 1519 1327 1520 1440 1363 1556 1653 1820 1843 1716 1865 1864 1846 1760 1720 1712 1646 1557 1419 1429 1446 1413 1456 1439 1364 1175 1105 838 808 545
0 0 0 0 0 0 0 0 0 0 0 0 0 0 0 279 788 951 985 1551 1445 1356 1592 1495 1475 1599 1847 1908 1771 1854 1847 1666 1593 1619 1711 1686 1596 1685 1552 1389 1457 1414 1108 1360 1287 1043 802 516 283
0 0 0 0 0 0 0 0 0 0 0 0 0 0 0 131 771 949 1265 1543 1532 1317 1460 1682 1417 1524 1843 1995 1891 1793 1794 1670 1530 1571 1549 1528 1803 1822 1632 1395 1302 1177 1232 1251 1133 804 626 392 135
0 0 0 0 0 0 0 0 0 0 0 0 0 0 14 222 671 870 1086 1425 1318 1283 1173 1386 1688 1525 1778 1905 1764 1357 1581 1619 1554 1554 1545 1531 1704 1445 1548 1454 1249 1045 886 849 694 496 412 167 42
0 0 0 0 0 0 0 0 0 0 0 0 0 2 42 524 749 719 760 704 945 1130 1262 1364 1680 1956 1769 1792 1660 1235 1067 989 917 665 359 380 637 794 1054 1053 918 912 853 641 413 305 42 86 11
0 0 0 0 0 0 0 0 0 0 0 0 0 40 79 492 587 562 566 1179 1131 1122 1262 1354 1303 1480 1517 1856 1540 1187 889 527 308 109 24 4 270 367 381 586 748 599 725 426 268 58 42 60 2
0 0 0 0 0 0 0 0 0 0 0 0 0 62 26 398 589 591 787 1043 1129 1134 1139 1130 1085 1057 1062 1231 1274 1119 773 468 182 178 132 71 149 200 222 472 566 407 366 254 122 12 4 6 0
0 0 0 0 0 0 0 0 0 0 0 0 0 227 164 406 607 577 681 808 899 863 733 698 865 945 721 426 1039 958 764 463 332 96 58 41 118 116 143 246 322 253 220 153 47 3 4 0 0
0 0 0 0 0 0 0 0 0 0 0 0 0 57 412 480 634 591 687 692 711 473 381 500 462 680 485 307 595 698 602 159 112 84 57 53 27 139 245 126 194 138 135 4 0 0 0 0 0
0 0 0 0 0 0 0 0 0 0 0 0 0 50 512 576 627 623 678 633 537 474 431 419 431 427 314 706 409 424 334 214 66 95 53 30 55 42 99 95 94 85 51 8 0 0 0 0 0
0 0 0 0 0 0 0 0 0 0 0 0 0 511 627 597 525 466 489 536 574 549 551 443 338 246 141 171 226 229 195 101 60 42 39 30 2 55 141 65 66 22 30 3 0 0 0 0 0
0 0 0 0 0 0 0 0 0 0 0 0 0 636 682 636 596 608 281 419 576 628 472 485 157 119 76 7 11 0 0 0 0 11 35 44 21 133 99 40 3 2 13 5 0 0 0 0 0
0 0 0 0 0 0 0 0 0 0 0 0 0 96 680 684 662 330 281 230 550 645 278 224 166 126 109 29 1 0 0 0 0 2 1 12 26 147 72 41 4 0 0 0 0 0 0 0 0
0 0 0 0 0 0 0 0 0 0 0 0 0 0 188 480 370 222 240 354 647 389 76 117 89 143 51 1 0 1 2 4 7 13 10 4 53 83 52 75 6 0 0 0 0 0 0 0 0
0 0 0 0 0 0 0 0 0 0 0 0 0 0 0 157 225 306 220 399 397 66 60 83 98 53 8 0 0 3 0 2 22 8 0 0 11 11 28 85 1 0 0 0 0 0 0 0 0
0 0 0 0 0 0 0 0 0 0 0 0 0 0 0 6 124 278 135 197 109 41 68 51 14 5 2 0 0 1 8 6 23 2 7 5 62 56 62 73 0 0 0 0 0 0 0 0 0
0 0 0 0 0 0 0 0 0 0 0 0 0 0 0 0 2 115 114 90 75 44 63 30 1 0 3 0 4 9 0 3 28 10 0 12 49 91 81 27 0 0 0 0 0 0 0 0 0
0 0 0 0 0 0 0 0 0 0 0 0 0 0 0 0 0 14 109 94 70 66 58 19 0 0 0 0 0 2 6 87 61 55 40 48 50 19 21 4 0 0 0 0 0 0 0 0 0
0 0 0 0 0 0 0 0 0 0 0 0 0 0 0 0 0 21 112 100 85 79 82 49 0 0 0 0 2 1 2 53 49 63 60 65 14 14 37 6 0 0 0 0 0 0 0 0 1
0 0 0 0 0 0 0 0 0 0 0 0 0 0 0 0 0 40 109 112 118 107 115 78 3 0 0 0 1 0 0 0 43 42 34 56 78 30 27 33 7 18 1 6 4 14 12 5 11
0 0 0 0 0 0 0 0 0 0 0 0 0 0 0 0 0 13 121 155 128 127 123 94 22 0 0 0 0 0 0 0 0 4 0 48 45 45 43 55 2 24 2 7 50 82 52 57 47
0 0 0 0 0 0 0 0 0 0 0 0 1 0 0 0 0 4 85 151 153 142 132 92 31 2 0 0 0 0 1 0 0 3 4 10 2 20 34 22 9 11 5 38 25 97 93 104 61
0 0 0 0 0 0 0 0 0 0 0 0 0 0 0 0 0 0 40 108 137 166 138 94 30 1 0 0 0 0 0 0 0 1 0 3 21 9 35 19 11 9 10 15 44 59 87 81 51
0 0 0 0 0 1 0 0 0 0 0 0 0 0 0 0 0 0 9 74 125 187 154 100 35 0 0 0 0 0 0 0 0 0 0 0 0 17 5 6 14 10 8 7 40 47 55 31 33
0 0 0 0 0 0 0 0 0 0 0 0 0 0 0 0 0 0 5 54 105 224 159 108 39 0 0 2 1 0 0 0 0 0 0 7 8 1 4 19 10 14 40 26 15 22 15 21 27
0 0 0 0 0 0 0 0 0 0 0 0 0 0 0 0 0 0 7 54 121 228 148 118 48 0 0 1 4 0 0 0 0 0 0 0 0 0 0 8 10 13 27 19 16 14 17 29 2
0 0 0 0 0 0 0 0 0 0 1 0 0 0 0 0 2 1 9 46 122 159 148 112 59 18 0 0 2 3 0 0 0 0 0 0 0 0 0 9 4 18 28 14 17 20 10 1 0
0 0 0 0 0 0 0 0 0 0 0 0 0 0 0 0 7 6 12 55 119 165 136 157 103 30 0 0 0 4 0 0 0 1 0 0 0 0 0 0 3 1 0 5 6 12 13 20 11

GFSSGP_con_mucape_078.txt.gz
CAPE
0 0 0 0 0 0 0 0 0 0 0 0 0 0 0 0 0 0 272 1035 1187 1059 1187 1303 1503 1617 1602 1656 1610 1825 2022 2175 2188 2090 2025 1957 1884 1701 1642 1718 1617 1657 1715 1605 1573 1279 1114 1080 1071
0 0 0 0 0 0 0 0 0 0 0 0 0 0 0 0 399 470 701 960 1219 1148 1139 1282 1518 1641 1643 1664 1750 1759 2125 2205 2230 2161 2066 1982 1886 1740 1573 1545 1682 1641 1620 1686 1326 1348 1182 1052 1068
0 0 0 0 0 0 0 0 0 0 0 0 0 0 0 0 607 588 781 1067 1296 1366 1215 1275 1524 1603 1720 1681 1784 1806 1926 2053 2063 2033 2089 2033 1937 1848 1851 1523 1662 1714 1726 1697 1498 1372 1208 1063 808
0 0 0 0 0 0 0 0 0 0 0 0 0 0 0 0 493 704 745 1451 1490 1434 1308 1297 1493 1597 1783 1745 1838 1837 1827 1777 1855 1892 1999 2045 1974 1935 1903 1655 1668 1665 1695 1717 1523 1388 1094 745 589
0 0 0 0 0 0 0 0 0 0 0 0 0 0 0 9 458 783 1440 1579 1407 1557 1279 1271 1489 1609 1812 1847 1918 1872 1767 1655 1695 1824 1862 1891 1886 1849 1758 1592 1576 1627 1621 1605 1287 1137 788 492 342
0 0 0 0 0 0 0 0 0 0 0 0 0 0 0 9 454 855 1597 1577 1430 1396 1492 1562 1476 1573 1764 1806 1720 1605 1595 1630 1617 1712 1707 1470 1211 1082 1180 1431 1473 1350 1479 1189 1067 808 498 326 166
0 0 0 0 0 0 0 0 0 0 0 0 0 0 0 25 404 948 1472 1517 1489 1376 1287 1529 1996 1646 1748 1783 1640 1262 1201 1281 1378 1127 630 445 275 546 760 1005 1309 1221 1037 981 787 531 294 174 59
0 0 0 0 0 0 0 0 0 0 0 0 0 0 0 28 469 993 1207 1096 880 1112 1238 1325 1651 2426 1674 2370 1701 1399 1098 793 412 237 221 26 4 114 318 539 687 775 841 776 555 307 218 90 33
0 0 0 0 0 0 0 0 0 0 0 0 0 0 1 34 626 645 934 889 943 1066 1269 1415 1430 1892 2053 2079 1848 1325 992 728 478 195 117 39 9 144 142 301 317 600 369 492 170 152 133 22 0
0 0 0 0 0 0 0 0 0 0 0 0 0 2 32 187 581 549 781 858 1008 1119 1201 1264 1290 1301 1339 1277 1300 1291 917 699 532 255 61 62 47 19 64 102 222 220 194 175 92 120 29 1 0
0 0 0 0 0 0 0 0 0 0 0 0 0 0 36 214 515 588 678 649 891 999 1064 1104 1191 970 848 933 518 666 624 656 788 143 69 46 52 49 84 74 120 119 127 83 31 1 0 0 0
0 0 0 0 0 0 0 0 0 0 0 0 0 0 5 164 418 608 670 650 666 801 825 532 840 1143 622 489 302 426 718 620 444 340 176 73 52 72 85 85 76 70 70 12 4 1 0 0 0
0 0 0 0 0 0 0 0 0 0 0 0 0 0 0 55 326 555 618 621 632 649 590 535 870 552 298 230 248 398 355 544 151 151 68 55 79 73 95 86 86 48 55 3 0 0 0 0 0
0 0 0 0 0 0 0 0 0 0 0 0 0 0 0 70 312 522 651 691 688 592 554 499 602 271 538 101 108 285 401 301 330 43 16 41 38 55 69 81 87 47 54 0 0 4 1 0 0
0 0 0 0 0 0 0 0 0 0 0 0 0 0 0 282 450 556 564 589 658 555 626 680 520 258 65 79 39 77 174 138 88 238 45 32 28 44 86 78 74 62 50 0 2 5 0 0 0
0 0 0 0 0 0 0 0 0 0 0 0 0 0 0 290 597 589 490 452 416 537 623 605 416 27 38 39 2 15 0 0 0 2 7 46 73 100 157 99 42 47 46 0 0 0 0 0 0
0 0 0 0 0 0 0 0 0 0 0 0 0 0 0 0 354 573 517 576 361 396 614 468 337 192 41 40 6 53 26 0 1 0 1 1 22 35 100 63 26 69 47 31 0 0 0 0 0
0 0 0 0 0 0 0 0 0 0 0 0 0 0 0 0 0 85 477 526 296 403 616 94 309 76 58 0 7 0 13 2 4 15 0 14 9 8 39 53 35 69 22 25 0 0 0 3 1
0 0 0 0 0 0 0 0 0 0 0 0 0 0 0 0 0 6 126 322 313 540 302 81 122 71 3 1 3 0 8 6 4 8 32 4 7 1 46 54 70 67 17 20 0 0 0 0 0
0 0 0 0 0 0 0 0 0 0 0 0 0 0 0 0 0 0 66 194 341 445 137 73 62 53 18 5 5 0 8 1 6 31 19 14 16 20 7 5 41 104 23 9 0 0 0 0 2
0 0 0 0 0 0 0 0 0 0 0 0 0 0 0 0 0 0 25 109 259 245 107 77 78 57 0 2 28 4 4 6 42 39 26 7 19 8 6 65 65 50 0 0 0 0 0 0 6
0 0 0 0 0 0 0 0 0 0 0 0 0 0 0 0 0 0 15 70 151 144 92 86 102 46 0 0 1 1 1 6 52 116 29 7 25 8 8 4 1 16 0 0 0 2 0 1 0
0 0 0 0 0 0 0 0 0 0 0 0 0 0 0 0 0 6 14 84 107 102 96 96 113 72 1 1 0 0 0 0 23 63 59 74 13 3 4 0 0 6 0 0 6 9 5 15 27
0 0 0 0 0 0 0 0 0 0 0 0 0 0 0 0 0 0 20 69 89 96 96 110 127 82 3 5 2 0 0 1 0 7 36 26 27 46 29 23 4 0 0 10 26 19 31 44 47
7 0 0 0 0 0 0 0 0 0 0 0 0 0 0 0 0 0 19 62 54 90 101 114 132 89 4 2 6 0 0 0 0 0 0 2 8 29 19 17 10 2 0 5 2 0 15 66 87
0 0 0 0 0 0 0 0 0 0 0 0 0 0 0 0 0 0 1 6 34 66 127 128 147 93 3 2 4 0 0 0 0 0 0 2 1 9 9 14 11 26 0 3 0 1 0 52 50
2 0 0 0 0 0 0 0 0 0 0 0 0 0 0 0 0 0 0 25 26 55 146 156 153 95 2 4 4 0 0 0 0 0 0 0 0 4 31 14 5 7 11 23 17 2 0 21 28
7 1 0 0 0 0 0 0 0 0 0 0 0 0 0 0 0 0 0 7 24 50 100 140 145 75 0 2 2 3 3 0 0 0 0 0 0 0 1 8 10 10 30 21 15 4 6 28 7
0 0 0 0 0 0 0 0 20 16 6 2 5 0 0 1 5 0 0 8 34 42 75 147 121 60 1 0 0 4 5 4 0 0 0 0 0 1 3 0 14 16 22 30 34 48 14 4 22
28 0 0 0 0 0 0 0 32 39 9 5 2 0 0 0 4 0 0 14 48 42 70 187 101 37 0 0 0 3 2 3 0 0 0 0 0 0 0 0 0 10 10 28 17 12 15 25 33

GFSSGP_con_mucape_084.txt.gz
CAPE
0 0 0 0 0 0 0 0 0 0 0 0 0 0 0 0 0 0 312 1477 1535 1763 2022 1488 1126 1489 1794 1857 1894 2091 2233 2251 2206 2172 2199 2234 2255 2249 2132 2018 1991 2015 2071 2018 1673 1651 1643 1583 1542
0 0 0 0 0 0 0 0 0 0 0 0 0 0 0 0 0 57 998 1389 1630 1748 2068 2035 1081 1443 1830 1966 2078 2231 2341 2410 2371 2391 2346 2348 2335 2246 2027 1968 1947 2027 2119 2187 1841 1822 1724 1605 1394
0 0 0 0 0 0 0 0 0 0 0 0 0 0 0 0 140 148 439 1405 1786 1786 1906 2051 1234 1397 1820 1954 2054 2207 2287 2332 2274 2393 2512 2464 2351 2186 2068 1956 1977 2137 2283 2248 1886 1656 1803 1466 1179
0 0 0 0 0 0 0 0 0 0 0 0 0 0 0 0 184 307 627 1549 1713 1815 1853 1632 1126 1435 1756 1856 2047 2040 1962 2245 2218 2322 2477 2475 1620 1740 2080 1958 2060 2200 1997 2060 1851 1654 1512 1145 958
0 0 0 0 0 0 0 0 0 0 0 0 0 0 0 0 173 812 958 1544 1672 1965 2018 2084 1219 1235 1530 1895 1992 1987 1844 1894 2159 2249 1768 1775 1502 1969 1617 1576 1374 1999 1777 1651 1477 1489 1260 997 831
0 0 0 0 0 0 0 0 0 0 0 0 0 0 0 0 247 939 1439 1675 1898 2213 2366 2231 1449 1331 1424 1751 1741 1796 1797 1775 1799 1999 1644 1698 1839 1312 972 1031 1018 1304 1236 1058 1143 1204 1095 883 733
0 0 0 0 0 0 0 0 0 0 0 0 0 0 0 0 264 1516 1788 1897 2335 2378 2401 2166 2145 1839 1272 1245 1611 1419 1672 1670 1532 1844 1629 1164 975 827 806 688 723 577 703 836 1126 1111 902 756 527
0 0 0 0 0 0 0 0 0 0 0 0 0 0 0 0 52 1633 2119 2357 2504 2728 2472 2012 2131 2199 1988 1666 1407 1458 1382 1430 1464 1565 1393 879 662 652 532 447 438 238 670 843 950 771 635 537 457
0 0 0 0 0 0 0 0 0 0 0 0 0 0 0 0 173 1497 2166 2348 2244 2536 2669 2638 2059 2142 2386 2325 1944 1479 1518 1292 1117 1041 938 815 1049 947 358 254 289 416 521 775 784 573 449 451 333
0 0 0 0 0 0 0 0 0 0 0 0 0 0 0 0 0 489 1661 1874 2045 2105 2509 2504 2135 2287 2215 2328 2238 2155 2224 1978 1686 1409 929 1105 1082 709 415 197 255 340 406 539 428 322 313 329 463
0 0 0 0 0 0 0 0 0 0 0 0 0 0 0 0 0 16 552 1508 1556 1715 2073 2181 1952 2370 2517 1916 1908 2057 1831 1699 1727 1461 1047 1006 979 504 193 167 269 694 278 247 248 248 568 401 356
0 0 0 0 0 0 0 0 0 0 0 0 0 0 0 0 0 0 2 548 1443 1647 1988 1903 1754 1997 2121 1662 1665 1552 1158 1408 1281 1315 1223 618 718 659 398 107 137 253 148 140 179 746 527 411 290
0 0 0 0 0 0 0 0 0 0 0 0 0 0 0 0 0 0 0 0 651 1673 1974 1804 1894 1896 1474 1999 1792 1582 1727 1115 1012 1104 912 596 454 467 203 139 332 415 201 165 204 573 417 317 214
0 0 0 0 0 0 0 0 0 0 0 0 0 0 0 0 0 0 0 0 53 1179 1843 1911 1754 1782 1782 1883 1067 1329 1323 1063 746 787 666 332 267 415 242 305 458 250 87 114 128 298 288 263 210
0 0 0 0 0 0 0 0 0 0 0 0 0 0 0 0 0 0 0 0 140 909 1622 1954 1745 1613 1636 1537 1454 1091 838 800 692 450 444 231 335 520 414 495 441 195 184 87 104 271 325 177 172
0 0 0 0 0 0 0 0 0 0 0 0 0 0 0 0 0 0 0 0 175 981 1552 1888 1395 1497 1475 1387 1079 877 513 585 578 409 460 182 198 249 184 269 395 236 115 152 99 301 180 170 162
0 0 0 0 0 0 0 0 0 0 0 0 0 0 0 0 0 0 0 0 338 1186 1544 1840 1435 1504 1587 1055 623 610 267 211 180 232 271 159 142 78 163 468 460 195 82 201 65 197 191 171 143
0 0 0 0 0 0 0 0 0 0 0 0 0 0 0 0 0 0 0 0 559 1160 1599 1759 1514 1591 1201 615 397 302 294 131 234 229 171 159 354 259 222 184 201 76 57 45 45 141 193 185 138
0 0 0 0 0 0 0 0 0 0 0 0 0 0 0 0 0 0 0 0 696 1201 1656 1678 1373 1436 796 335 372 251 310 153 176 47 243 70 38 177 95 74 72 59 62 28 33 165 175 145 144
0 0 0 0 0 0 0 0 0 0 0 0 0 0 0 0 0 0 0 8 745 1148 1579 1567 1250 1135 787 526 300 140 50 90 128 69 247 207 109 143 67 50 54 58 28 46 18 125 149 152 134
0 0 0 0 0 0 0 0 0 0 0 0 0 0 0 0 0 0 0 0 701 994 1498 1209 1022 1094 508 461 213 159 91 24 37 109 232 121 75 56 36 38 20 12 41 20 14 109 157 150 151
0 0 0 0 0 0 0 0 0 0 0 0 0 0 0 0 0 0 0 0 520 882 1342 970 965 1000 382 299 193 112 33 15 80 66 23 89 5 18 19 3 8 9 22 38 27 24 137 126 133
0 0 0 1 0 0 0 0 0 0 0 0 0 0 0 0 0 0 0 0 342 789 1312 912 606 655 298 143 247 73 58 45 100 40 28 6 0 6 1 16 30 20 16 15 34 43 174 169 159
5 0 0 0 0 0 0 0 0 1 4 2 5 3 0 1 27 1 0 0 223 738 1210 669 772 390 229 226 261 81 70 57 43 41 3 15 4 3 6 6 12 9 24 29 4 71 128 100 153
16 0 0 0 0 0 0 0 0 4 13 6 7 4 31 203 400 323 124 181 362 900 745 733 534 371 161 466 163 27 54 41 18 28 2 4 4 6 9 1 0 10 14 30 43 48 34 68 138
7 0 0 0 0 0 16 0 50 20 33 19 6 1 1 68 405 457 158 349 457 851 482 346 298 322 137 279 57 7 14 24 19 3 10 9 13 11 11 3 9 32 32 53 31 0 4 50 126
32 0 28 2 0 0 0 17 29 15 30 1 0 0 1 5 16 554 166 483 518 668 303 442 275 230 121 122 5 8 12 14 7 1 4 33 51 47 6 0 0 2 30 9 4 1 5 1 64
68 58 7 62 0 0 0 12 44 39 20 0 0 0 0 2 16 160 252 412 603 366 94 417 418 169 123 114 2 3 8 11 6 5 25 26 30 27 24 4 13 0 8 4 1 1 0 0 0
100 72 63 45 39 0 0 35 103 10 2 0 0 0 0 11 140 240 322 321 322 306 183 484 208 144 150 92 3 5 6 7 10 2 0 21 28 7 31 2 6 3 0 1 9 3 3 6 3
60 71 75 32 0 13 0 36 153 54 0 0 0 0 0 11 169 162 97 231 144 50 256 416 103 153 171 43 0 5 18 14 4 0 11 29 33 31 31 19 0 1 16 2 6 1 4 13 1

GFSSGP_con_mucape_087.txt.gz
CAPE
0 0 0 0 0 0 0 0 0 0 0 0 0 0 0 0 0 66 321 1323 1373 1514 1610 1372 1334 1680 1824 1855 1881 2108 2260 2263 2181 2214 2282 2139 2192 1956 2248 2176 2265 2360 2454 2104 1725 1601 1506 1616 1679
0 0 0 0 0 0 0 0 0 0 0 0 0 0 0 0 0 116 471 1093 1313 1363 1884 1714 1279 1633 1898 2013 2119 2277 2545 2485 2350 2308 2344 2364 2392 2276 1945 1949 2153 2358 2398 2303 1837 1753 1875 1780 1573
0 0 0 0 0 0 0 0 0 0 0 0 0 0 0 0 0 1 862 1119 830 719 1520 2056 1239 1598 1935 2046 2195 2327 2470 2473 2414 2360 2438 2464 2503 2428 1735 1662 1983 2317 2415 2448 1989 1841 1773 1591 1333
0 0 0 0 0 0 0 0 0 0 0 0 0 0 0 0 33 52 831 934 882 981 1321 1753 1070 1483 1888 2064 2190 2390 2355 2387 2333 2325 2414 2524 1890 1856 1606 1477 1767 2270 2186 2350 1965 1943 1591 1271 1118
0 0 0 0 0 0 0 0 0 0 0 0 0 0 0 0 0 147 586 909 1151 1404 1578 2081 1056 1395 1793 2076 2203 2204 2084 2269 2280 2332 2295 1991 1867 1649 1523 1411 1758 1750 1742 1422 1379 1332 1284 1121 959
0 0 0 0 0 0 0 0 0 0 0 0 0 0 0 0 0 110 528 1089 1300 1644 2015 2314 1243 1306 1535 1773 1961 1956 2005 2087 2298 2188 1904 1903 1670 1600 1340 1142 1016 919 503 635 905 1076 1169 1012 899
0 0 0 0 0 0 0 0 0 0 0 0 0 0 0 0 68 628 599 1288 1693 1959 2286 2441 2077 1652 1190 1493 1569 1779 1868 1958 2007 1778 1654 1496 1222 1043 1017 873 940 871 692 622 861 951 946 931 645
0 0 0 0 0 0 0 0 0 0 0 0 0 0 0 0 0 710 1245 1513 2095 2354 2558 2563 2465 2247 2053 1840 1426 1402 1738 1830 1853 1747 1429 1162 1017 912 724 707 746 614 428 624 754 639 728 622 428
0 0 0 0 0 0 0 0 0 0 0 0 0 0 0 0 0 597 1406 2068 2389 2461 2491 2590 2387 2390 2282 2110 1845 1444 1404 1494 1580 1451 1244 1123 1132 1153 653 514 421 353 298 513 741 527 369 352 351
0 0 0 0 0 0 0 0 0 0 0 0 0 0 0 0 0 0 1033 1933 2216 2149 2562 2781 2574 2485 2545 2034 2502 2024 1845 1781 1758 1448 1507 1244 1235 1140 861 440 251 238 251 401 524 368 280 282 569
0 0 0 0 0 0 0 0 0 0 0 0 0 0 0 0 0 0 36 1166 1738 1836 2165 2579 2608 2621 2515 2301 2621 2249 2118 2396 2183 2153 1830 1606 1581 1482 972 474 315 370 308 283 389 274 423 525 661
0 0 0 0 0 0 0 0 0 0 0 0 0 0 0 0 0 0 0 24 1148 1567 1857 2420 2571 2256 2446 2117 1978 1946 2445 2486 2130 1837 1790 1823 1654 1380 1027 754 375 354 716 473 271 268 469 669 460
0 0 0 0 0 0 0 0 0 0 0 0 0 0 0 0 0 0 0 0 61 1228 1674 2390 2252 2400 2337 2157 2032 1971 2160 2015 1831 1892 1659 1858 1547 1243 897 506 519 569 739 181 46 108 336 578 426
0 0 0 0 0 0 0 0 0 0 0 0 0 0 0 0 0 0 0 0 0 410 1474 2406 2286 2297 2240 2254 1858 1911 1765 1620 1522 1436 1485 1450 1463 1211 975 755 629 758 668 299 45 116 158 574 423
0 0 0 0 0 0 0 0 0 0 0 0 0 0 0 0 0 0 0 0 0 0 646 2296 2453 2301 2284 2158 2142 1499 1654 1184 1194 1202 1425 1202 1052 841 952 805 887 378 402 438 77 102 109 285 229
0 0 0 0 0 0 0 0 0 0 0 0 0 0 0 0 0 0 0 0 0 0 85 1888 2292 2222 2302 2153 2007 1800 1157 1290 1127 1271 1151 1026 729 693 698 704 656 596 314 261 61 103 80 103 167
0 2 2 0 0 0 0 0 0 0 0 0 0 0 0 0 0 0 0 0 0 0 235 1494 2459 2137 2249 2113 1912 1575 1328 1004 1025 1119 920 692 650 521 630 616 509 346 299 237 147 65 67 128 125
11 1 0 0 0 0 0 0 0 0 0 0 0 0 0 0 0 0 0 0 0 1 520 1550 2490 2110 2172 2067 1533 1181 815 716 611 495 620 681 490 313 313 176 196 130 261 265 182 86 85 139 142
0 0 0 0 0 0 0 0 0 0 0 0 0 0 0 0 0 0 0 0 0 99 1014 1706 2330 2069 2358 1703 1067 911 637 610 347 280 320 350 383 268 215 194 157 60 192 140 151 93 64 68 85
0 0 0 0 0 0 0 0 0 0 0 0 0 0 0 0 0 0 0 0 0 481 1314 1809 2182 2066 2005 1327 1263 946 771 465 588 507 266 164 120 211 294 172 73 73 75 51 85 70 58 84 152
0 0 0 0 0 1 1 0 0 0 0 0 0 0 0 0 0 0 0 0 15 540 1286 1739 2071 2047 1843 1404 1230 868 571 353 377 221 184 691 502 431 305 181 103 64 85 45 38 21 37 41 94
0 0 0 0 1 0 50 0 0 0 0 0 0 0 0 0 0 0 0 0 8 580 1171 1619 1921 1875 1758 1466 1121 782 495 292 284 207 263 391 276 223 195 172 101 76 35 55 41 15 45 69 143
0 7 11 32 40 0 0 1 0 0 0 13 0 1 2 0 0 0 0 0 0 425 998 1645 1718 1642 1607 1336 1040 772 472 242 164 197 219 118 27 4 23 16 21 21 35 8 35 32 38 50 170
11 30 42 16 38 0 0 2 0 68 41 20 30 23 48 57 47 19 17 16 8 137 1162 1810 1541 1607 1199 1275 1022 817 486 175 128 237 281 14 11 0 0 0 0 7 20 8 14 41 17 71 123
8 17 0 0 0 0 34 0 39 104 43 41 31 25 23 17 42 427 224 59 17 345 1201 1716 1416 1504 1038 1149 1057 710 401 167 87 233 109 7 0 0 2 0 2 14 13 11 26 25 44 113 102
49 67 0 0 0 0 2 0 120 139 2 4 17 12 10 9 4 28 598 342 276 377 1222 1235 897 955 732 1035 1008 594 215 114 62 216 29 2 0 0 5 6 5 4 12 34 42 11 35 75 128
2 0 40 0 0 0 0 1 239 83 22 22 13 2 2 2 1 13 156 445 633 903 1181 982 571 922 833 1185 854 377 194 69 60 148 94 48 11 2 4 5 0 4 6 12 12 8 9 20 94
55 49 12 76 0 0 0 0 186 75 10 6 9 0 0 0 0 78 289 535 804 983 879 719 531 800 732 966 550 156 86 37 54 75 71 97 82 17 17 3 4 3 7 9 33 44 26 1 2
53 89 46 67 65 0 0 86 178 57 9 3 0 0 0 0 0 278 333 448 792 745 532 351 792 701 539 531 204 101 50 49 44 35 43 24 46 30 49 23 0 6 0 6 3 6 1 0 0
62 42 74 74 4 69 106 69 155 61 24 6 0 0 0 0 0 253 581 519 574 436 338 347 516 260 480 208 168 64 99 50 10 52 10 8 18 27 4 46 3 0 10 0 0 1 3 4 1

GFSSGP_con_mucape_090.txt.gz
CAPE
0 0 0 0 0 0 0 0 0 0 0 0 0 0 0 0 51 186 750 1155 1976 1343 1509 1454 1554 1800 1905 1952 2042 2160 2037 2158 2187 2256 2281 2324 2310 2295 2255 2235 2322 2449 2185 2202 1940 1753 1696 1576 1682
0 0 0 0 0 0 0 0 0 0 0 0 0 0 0 0 3 233 742 1112 1594 1366 1313 1462 1514 1728 1908 1950 2024 2211 2369 2372 2273 2348 2407 2323 2267 2220 2078 2015 2237 2365 2115 2128 1928 1804 1826 1785 1568
0 0 0 0 0 0 0 0 0 0 0 0 0 0 0 0 0 195 839 1226 1424 1505 1429 1543 1405 1664 1927 1964 2043 2172 2405 2394 2294 2308 2465 2346 2244 2125 1944 1610 2044 2326 2154 1955 1934 1830 1937 1540 1303
0 0 0 0 0 0 0 0 0 0 0 0 0 0 0 0 46 178 889 956 854 1435 1847 1199 1261 1566 1881 1999 2103 2211 2357 2344 2257 2290 2448 2448 2320 2108 1866 1594 1892 1731 1702 1949 2120 1909 1627 1250 1124
0 0 0 0 0 0 0 0 0 0 0 0 0 0 0 0 0 507 798 752 1157 2031 2087 1446 1209 1503 1830 2040 2172 2219 2240 2271 2351 2282 2358 2456 2151 1898 1737 1601 1697 1453 1015 1045 1110 1081 1196 1173 1073
0 0 0 0 0 0 0 0 0 0 0 0 0 0 0 0 0 303 816 1376 2126 2391 2723 1729 1271 1485 1642 1860 1916 1979 2010 1695 2117 2700 2308 2361 2039 1605 1426 1438 1219 954 722 443 616 483 985 1060 996
0 0 0 0 0 0 0 0 0 0 0 0 0 0 0 0 95 600 1066 2012 2605 2695 3034 2252 1663 1520 1407 1461 1632 1794 1896 1705 2414 2240 2229 2108 1791 1503 1283 1051 951 928 503 237 306 701 455 776 748
0 0 0 0 0 0 0 0 0 0 0 0 0 0 0 12 14 542 1201 2042 2866 3267 3399 2835 2369 1866 1632 1511 1326 1599 1756 1849 1728 1893 1884 1816 1543 1233 1067 938 857 755 618 414 605 801 810 608 547
0 0 0 0 0 0 0 0 0 0 0 0 0 0 0 0 0 499 998 1933 2557 2974 3000 3272 2839 2415 2349 2165 1517 1289 1596 1709 1768 1794 1591 1442 1493 1232 828 649 635 702 585 567 789 712 523 399 389
0 0 0 0 0 0 0 0 0 0 0 0 0 0 0 0 0 16 589 1488 2285 2676 2916 2918 2703 2771 2550 1789 1887 1695 1709 1657 1739 1717 1352 1625 1553 1297 955 599 414 261 293 322 348 392 318 307 277
0 0 0 0 0 0 0 0 0 0 0 0 0 0 0 0 0 0 0 443 1958 2467 2501 2801 2392 2302 2304 1942 2278 1883 1985 1768 1769 1825 1731 1310 1348 1275 958 655 339 201 231 277 302 224 223 337 389
0 0 0 0 0 0 0 0 0 0 0 0 0 0 0 0 0 0 0 0 482 2049 2249 2835 2599 2150 2316 2185 2135 2336 2152 2154 2217 2057 1929 1661 1362 1126 1041 777 440 186 133 171 163 193 218 272 381
0 0 0 0 0 0 0 0 0 0 0 0 0 0 0 0 0 0 0 0 3 1047 2027 2468 2734 2408 2536 2574 2060 2116 2326 2419 2191 2113 1865 1654 1281 1079 951 912 584 298 306 208 197 184 84 124 311
0 0 0 0 0 0 0 0 0 0 0 0 0 0 0 0 0 0 0 0 0 23 1470 2480 2654 2513 2415 2473 2214 2127 2131 2058 2099 2050 1772 1530 1245 1056 956 771 567 400 376 209 147 120 46 70 151
0 0 0 0 0 0 0 0 0 0 0 0 0 0 0 0 0 0 0 0 0 0 256 2579 2429 2506 2236 2324 1953 1561 1711 1577 1572 1588 1680 1347 1175 974 748 618 504 417 349 152 47 53 24 44 137
0 0 0 0 0 0 0 0 0 0 0 0 0 0 0 0 0 0 0 0 0 0 0 2577 2402 2392 2362 2088 1955 1439 1345 1559 1473 1266 1325 1300 1122 853 767 530 467 439 311 166 48 48 36 89 121
0 0 0 0 0 0 0 0 0 0 0 0 0 0 0 0 0 0 0 0 0 0 0 2522 2430 2417 2386 2176 2291 1817 1428 1295 1191 1196 1167 1027 1006 836 685 523 469 337 303 159 44 34 25 63 52
0 0 0 0 0 0 0 0 0 0 0 0 0 0 0 0 0 0 0 0 0 0 0 2521 2493 2387 2365 2209 2164 1791 1438 1046 1096 1239 1002 892 894 742 593 446 389 337 147 79 52 44 48 28 57
0 0 0 0 0 0 0 0 0 0 0 0 0 0 0 0 0 0 0 0 0 0 0 2598 2485 2271 2188 2098 1821 1519 1103 810 739 766 787 717 722 512 377 304 267 250 120 85 59 45 33 38 76
0 0 0 0 0 0 0 0 0 0 0 0 0 0 0 0 0 0 0 0 0 0 190 2456 2551 2170 2076 2140 1751 1260 968 722 490 569 499 697 598 323 236 196 235 278 128 95 55 77 22 43 34
0 0 0 0 0 0 0 0 0 0 10 0 0 0 0 0 0 0 0 0 0 105 1428 2256 2460 2034 2028 1941 1614 1107 829 728 622 445 367 514 562 291 197 134 226 297 94 95 70 53 44 0 42
0 0 0 0 0 0 2 0 0 0 0 1 1 7 0 0 0 0 0 0 0 259 1354 1891 2364 1944 2012 1729 1382 1038 763 519 469 324 249 315 353 155 85 87 108 74 103 128 81 56 39 19 24
0 0 0 0 0 0 0 0 0 1 10 40 123 84 75 66 5 0 0 0 0 221 1223 1540 2173 1928 1879 1662 1514 1109 788 527 350 390 341 361 458 191 142 183 131 75 54 73 79 53 73 27 10
0 0 1 0 0 0 0 0 0 1 152 161 89 19 11 37 37 105 136 26 0 163 1036 1521 2010 1838 1848 1576 1536 1067 858 509 341 282 304 152 43 142 70 1 38 87 55 41 34 64 49 21 15
26 7 0 0 0 0 0 10 1 125 150 45 51 14 13 12 5 11 83 230 171 68 1056 1594 1878 1747 1778 1523 1381 1075 916 616 407 353 207 65 80 13 0 2 0 1 7 10 32 35 32 26 19
22 28 0 0 0 0 5 1 38 203 80 45 38 0 0 0 0 0 63 133 74 533 1532 1725 1714 1555 1564 1462 1251 1099 758 380 291 302 98 34 2 0 0 0 8 23 1 23 6 32 21 32 6
0 27 3 48 0 0 0 0 7 20 66 46 16 0 0 1 0 0 0 43 278 815 1631 1759 1361 1454 1407 1223 1191 1103 604 286 234 261 69 50 23 0 0 0 0 0 1 17 9 7 8 15 38
9 58 81 73 0 0 0 0 0 7 16 13 0 0 0 0 0 0 76 199 876 1100 997 1075 1111 1040 1026 1237 1228 828 472 199 210 164 46 60 53 0 5 0 0 1 2 0 0 19 33 7 21
35 69 36 50 45 0 0 58 47 26 2 8 0 0 0 0 0 2 33 472 607 688 758 999 805 761 703 904 1163 839 305 180 86 143 133 100 61 15 3 3 2 0 6 2 4 9 28 18 28
40 42 72 0 1 16 0 0 0 1 109 76 5 0 0 0 0 0 83 124 278 420 439 946 489 594 788 1032 1071 539 217 78 165 153 84 48 57 25 13 2 4 1 7 1 7 22 29 21 12

GFSSGP_con_mucape_093.txt.gz
CAPE
0 0 0 0 0 0 0 0 0 0 0 0 0 0 0 0 85 485 1312 1178 1174 1254 1432 1477 1648 1882 1998 1954 1755 1748 1951 2079 2151 2200 2192 2193 2188 2219 2136 2082 2243 2516 2620 2238 1917 1805 1597 1639 1692
0 0 0 0 0 0 0 0 0 0 0 0 0 0 0 0 535 888 1493 1148 1091 1243 1327 1428 1604 1794 1889 1949 1964 1865 2111 2221 2249 2292 2315 2273 2314 2307 2205 2098 2166 2383 2450 2196 1991 1911 1764 1692 1527
0 0 0 0 0 0 0 0 0 0 0 0 0 0 0 0 437 568 1450 1361 1059 947 1236 1400 1507 1733 1785 1782 1907 1999 2108 2164 2224 2265 2428 2357 2389 2338 2251 1980 2166 2451 2244 1813 1684 1829 1939 1602 1362
0 0 0 0 0 0 0 0 0 0 0 0 0 0 0 40 216 802 1396 1375 1157 989 1343 1263 1388 1622 1781 1796 1844 1970 2102 2079 2102 2215 2424 2430 2382 2362 2121 1884 2246 2150 1499 1180 1518 1795 1650 1314 1220
0 0 0 0 0 0 0 0 0 0 0 0 0 0 0 203 822 891 954 1207 1300 1458 1393 1133 1362 1629 1772 1879 1939 1997 2166 2166 2084 2157 2276 2365 2331 2194 1930 1768 1722 1443 1209 1473 1565 1527 1265 1090 1088
0 0 0 0 0 0 0 0 0 0 0 0 0 0 0 0 706 613 455 1583 1814 1817 1643 1102 1409 1631 1691 1736 1834 1953 2167 2172 1742 2070 2146 2362 2009 1777 1782 1695 1336 1155 979 1100 989 1009 1021 882 885
0 0 0 0 0 0 0 0 0 0 0 0 0 0 0 144 139 585 593 1817 2058 1897 1553 1139 1396 1576 1500 1537 1618 1876 2022 1604 1927 2430 2091 2273 1958 1584 1560 1531 1186 996 732 703 611 640 611 799 746
0 0 0 0 0 0 0 0 0 0 0 0 0 0 0 7 561 641 1012 1368 2277 2214 1981 1173 1271 1408 1313 1341 1494 1745 1730 1414 1686 2130 2107 2178 1969 1629 1319 1189 1102 929 692 667 696 577 442 667 561
0 0 0 0 0 0 0 0 0 0 0 0 0 0 0 0 44 678 1153 1836 1886 2530 2188 1960 1420 1289 1214 1146 1308 1568 1722 1720 1598 1617 1886 1917 1804 1525 1226 961 997 835 515 561 637 595 631 598 460
0 0 0 0 0 0 0 0 0 0 0 0 0 0 0 0 1 118 257 1842 2054 2305 2548 2273 1909 1676 1475 1377 1174 1362 1604 1604 1727 1741 1643 1409 1465 1317 1110 895 752 624 445 426 632 616 536 432 370
0 0 0 0 0 0 0 0 0 0 0 0 0 0 0 0 0 120 300 835 2026 2330 2698 2451 2455 2226 1992 1771 1438 1174 1297 1374 1509 1444 1232 1152 1298 1181 1067 861 716 558 521 421 465 297 221 228 229
0 0 0 0 0 0 0 0 0 0 0 0 0 0 0 0 0 0 0 216 1684 2280 2656 2576 2350 2443 2163 1605 1515 1369 1395 1300 1329 1446 1327 1070 1285 1148 1047 929 713 548 529 322 195 158 99 173 234
0 0 0 0 0 0 0 0 0 0 0 0 0 0 0 0 0 0 0 0 0 1846 2337 2523 2332 2072 2081 1942 1771 1614 1774 1498 1494 1442 1554 1157 1153 1197 1108 841 570 457 362 279 168 110 99 74 205
0 0 0 0 0 0 0 0 0 0 0 0 0 0 0 0 0 0 0 0 0 2 2264 2509 2501 2426 1892 1994 1853 2005 1987 1751 1866 1788 1642 1417 1168 1045 1125 915 543 468 271 140 102 96 62 31 192
0 0 0 0 0 0 0 0 0 0 0 0 0 0 0 0 0 0 0 0 0 0 880 2472 2651 2484 2164 2016 2078 1913 2111 1983 1890 1789 1614 1382 1198 1061 1015 837 602 495 304 208 143 63 32 15 87
0 0 0 0 0 0 0 0 0 0 0 0 0 0 0 0 0 0 0 0 0 0 0 2111 2552 2482 2229 1993 2208 1943 1673 1566 1602 1619 1583 1349 1327 1129 1000 802 560 489 423 219 111 60 38 12 12
0 0 0 0 0 0 0 0 0 0 0 0 0 0 0 0 0 0 0 0 0 0 0 1882 2482 2502 2245 2259 2217 1964 1713 1230 1292 1221 1312 1313 1047 1058 945 756 547 539 352 169 109 49 28 14 33
0 0 0 0 0 0 0 0 0 0 0 0 0 0 0 0 0 0 0 0 0 0 0 1730 2286 2372 2191 2199 2103 1961 1412 1057 1251 1144 963 1095 941 1027 789 622 498 438 273 205 121 36 20 21 55
0 0 0 0 0 0 0 0 0 0 0 0 0 0 0 0 0 0 0 0 0 0 0 1675 2028 2175 2131 2034 1772 1762 1772 1506 1022 991 839 687 786 880 739 516 375 395 251 165 97 20 27 45 36
0 0 0 0 0 0 0 0 0 0 0 0 0 0 0 0 0 0 0 0 0 0 0 1702 2098 2146 2100 1804 1939 1950 1703 1402 857 888 703 1092 785 784 675 456 338 282 204 146 66 23 49 67 47
0 0 0 0 0 0 0 0 0 0 0 0 0 0 0 0 0 0 0 0 0 0 17 1868 2111 2215 2103 1891 1848 1686 1486 1217 677 501 412 963 534 634 499 439 389 323 220 136 99 97 86 51 29
0 0 0 0 0 0 0 0 0 0 0 0 0 0 0 78 44 2 0 0 0 0 1235 1854 2045 2126 2048 1913 1870 1681 1498 1298 636 394 250 251 706 651 313 300 228 212 211 201 150 102 50 35 29
0 2 0 0 0 0 0 0 0 0 0 0 114 137 147 122 82 79 65 57 0 23 2000 2037 2038 1976 1893 1892 1731 1526 1511 1067 550 390 306 216 205 184 294 255 205 163 140 115 124 102 73 42 18
0 0 1 0 0 0 0 0 0 0 0 182 132 54 77 95 107 130 127 114 78 20 1897 2132 1979 1904 1862 1734 1551 1448 1231 705 534 383 276 263 265 257 231 185 324 68 170 89 137 105 82 51 22
0 2 0 0 0 0 0 1 0 22 114 149 65 30 13 83 91 87 100 149 117 55 295 1868 1987 1889 1874 1788 1450 1391 1096 958 497 295 371 367 381 202 103 150 77 95 75 31 38 86 85 58 51
0 0 4 0 0 0 7 0 0 64 56 41 19 2 4 9 59 19 49 98 170 632 400 1243 1711 1871 1738 1833 1640 1364 1493 1017 521 371 236 187 46 20 38 10 3 3 4 88 51 59 42 51 16
0 0 23 16 0 0 0 0 7 31 26 0 0 4 13 0 0 6 33 87 369 740 1020 1396 1671 1545 1502 1501 1322 1233 1127 809 507 375 234 87 33 52 0 0 0 0 0 0 1 34 23 38 17
8 1 30 30 105 0 0 0 0 23 1 0 0 0 0 0 1 5 35 103 378 454 917 812 951 1132 1241 1182 1146 1018 1041 827 638 369 199 86 55 6 0 2 0 0 0 1 3 44 32 49 17
91 25 62 60 24 0 0 58 28 5 0 0 0 0 0 0 0 0 6 137 226 297 298 310 343 380 691 981 1109 1119 1242 838 514 277 166 60 71 25 2 1 0 0 9 7 10 9 14 35 23
33 1 14 21 8 39 0 0 4 0 0 0 14 2 0 0 0 0 3 39 177 183 287 237 369 553 494 829 968 1189 884 947 427 210 130 105 70 30 19 2 4 0 1 11 7 1 0 12 1

GFSSGP_con_mucape_096.txt.gz
CAPE
0 0 0 0 0 0 0 0 0 0 0 0 0 0 0 0 22 95 1036 1085 996 1149 1455 1654 1685 1753 1816 1837 1774 1818 1965 2100 2092 2048 2046 2121 2203 2141 2156 2266 2404 2502 2495 2054 1828 1791 1722 1629 1703
0 0 0 0 0 0 0 0 0 0 0 0 0 0 0 72 890 1335 1275 1206 1115 1292 1438 1637 1765 1848 1870 1830 1829 1931 2144 2187 2223 2201 2210 2237 2263 2208 2146 2197 2346 2511 2553 2128 1818 1624 1737 1691 1587
0 0 0 0 0 0 0 0 0 0 0 0 0 0 0 153 1200 1248 1176 1148 1307 1361 1409 1538 1759 1912 2009 1871 1812 1939 2121 2152 2183 2221 2350 2399 2397 2327 2225 2137 2290 2612 2353 2208 1740 1799 1696 1582 1311
0 0 0 0 0 0 0 0 0 0 0 0 0 0 0 130 937 1165 1073 1051 1074 1312 1385 1549 1625 1782 1955 2036 1956 1950 1991 1979 1994 2169 2380 2498 2493 2456 2121 2023 2069 2387 2154 1990 1990 1633 1613 1216 1101
0 0 0 0 0 0 0 0 0 0 0 0 0 0 0 502 996 1297 1120 775 756 1135 1170 1429 1572 1682 1852 2013 2030 1999 1975 1922 1943 2136 2275 2384 2481 2393 2120 1945 2086 2083 1887 1869 2061 1755 1344 1127 1041
0 0 0 0 0 0 0 0 0 0 0 0 0 0 0 808 1389 1404 1177 812 897 1143 1025 1175 1440 1631 1791 1885 1791 1868 2005 1952 1987 2078 2147 2308 2260 2146 1940 1861 1785 1675 1530 1525 1612 1405 1247 1110 1055
0 0 0 0 0 0 0 0 0 0 0 0 0 0 0 901 1039 1437 1274 1273 1246 1235 1029 1195 1433 1599 1652 1709 1736 1866 2034 2071 1758 1873 2006 2160 1949 1748 1747 1741 1566 1434 1375 1239 1310 1216 1105 1065 958
0 0 0 0 0 0 0 0 0 0 0 0 0 0 0 796 959 1287 1568 1557 1490 1536 1027 1085 1366 1480 1469 1526 1711 1866 2078 1702 1449 1565 1669 2065 1896 1560 1538 1444 1312 1170 1093 1036 1046 927 828 884 703
0 0 0 0 0 0 0 0 0 0 0 0 0 0 2 429 735 1435 1656 1878 1648 1563 1389 1070 1167 1309 1276 1336 1593 1818 1707 1460 1382 1717 1714 2079 1945 1737 1434 1287 1094 890 680 832 785 686 514 693 553
0 0 0 0 0 0 0 0 0 0 0 0 0 0 11 695 889 1118 1592 1871 2009 1782 1625 1156 1106 1237 1183 1198 1459 1705 1634 1503 1509 1522 1834 2067 1953 1734 1365 1191 949 695 524 546 636 560 478 556 519
0 0 0 0 0 0 0 0 0 0 0 0 0 0 0 0 109 893 1418 1710 1971 2021 1910 1776 1204 1094 1099 1151 1226 1478 1714 1714 1616 1621 1861 1836 1751 1632 1365 1086 919 712 500 500 650 733 602 544 534
0 0 0 0 0 0 0 0 0 0 0 0 0 0 0 0 0 0 0 1649 1746 2162 2178 2133 2009 1337 1225 1379 1056 1074 1312 1307 1624 1699 1639 1454 1531 1455 1294 1040 898 760 654 636 567 622 590 493 359
0 0 0 0 0 0 0 0 0 0 0 0 0 0 0 0 0 0 0 99 1771 1997 2509 2400 2354 1897 1597 1680 1539 1043 1049 1198 1318 1349 1195 1197 1374 1226 1108 1051 910 798 738 512 561 503 205 259 250
0 0 0 0 0 0 0 0 0 0 0 0 0 0 0 0 0 0 0 0 20 1942 2475 2525 2516 2387 2101 1922 1612 1373 1156 1059 1050 1245 1260 1039 1246 1134 1002 979 943 876 682 491 509 232 100 59 173
0 0 0 0 0 0 0 0 0 0 0 0 0 0 0 0 0 0 0 0 0 1 2149 2579 2595 2623 2298 2076 1723 1624 1384 1461 1259 1210 1336 1263 1112 1114 1013 950 941 845 625 491 276 134 77 44 162
0 0 0 0 0 0 0 0 0 0 0 0 0 0 0 0 0 0 0 0 0 0 693 2428 2410 2538 2307 2100 1889 1885 1640 1811 1600 1697 1507 1543 1417 1226 1116 1070 998 777 601 445 273 156 88 54 39
0 0 0 0 0 0 0 0 0 0 0 0 0 0 0 0 0 0 0 0 0 0 0 2101 2338 2393 2452 2113 1670 1809 1879 2047 1834 1831 1719 1587 1460 1258 1110 1037 1029 851 570 473 313 107 118 59 32
0 0 0 0 0 0 0 0 0 0 0 0 0 0 0 0 0 0 0 0 0 0 0 1523 2192 2269 2316 2230 1652 1819 2023 2021 1807 1638 1663 1550 1315 1286 1159 1040 921 667 530 438 298 215 89 55 56
0 0 0 0 0 0 0 0 0 0 0 0 0 0 0 0 0 0 0 0 0 0 0 1303 2082 2135 2236 2245 1657 1581 1875 1745 1601 1360 1036 1202 1213 1008 1045 993 919 705 542 423 292 216 137 74 32
0 0 0 0 0 0 0 0 0 0 0 0 0 0 0 0 0 0 0 0 0 0 0 321 1870 2034 2103 2096 1925 1497 1611 1657 1543 975 984 840 935 763 945 759 662 593 513 427 333 199 94 53 25
0 0 0 0 0 0 0 0 0 0 0 0 0 0 0 0 0 0 0 0 0 0 0 374 1668 1862 1917 2033 1830 1521 1442 1416 1127 998 755 598 483 438 1300 735 621 508 427 542 368 166 119 38 26
0 0 0 0 0 0 0 0 0 0 0 0 0 0 71 113 94 61 32 28 7 1 0 66 1609 1756 1830 1933 1872 1401 1348 1333 1311 966 576 376 754 1060 711 712 578 397 320 273 238 164 79 47 43
0 0 0 0 0 0 0 0 0 0 0 0 0 140 108 123 191 167 136 100 83 31 61 1146 1698 1826 1836 1922 1822 1695 1481 1476 1118 910 507 302 270 544 751 522 494 402 281 196 126 125 84 78 76
0 0 0 0 0 0 0 0 0 0 0 3 106 104 86 37 73 97 157 192 139 119 1150 1544 1867 1941 1789 1779 1765 1679 1613 1366 1075 940 551 195 139 189 609 300 235 269 151 143 136 105 86 61 79
0 0 0 0 0 0 0 0 0 0 0 15 63 53 35 51 3 37 126 197 208 242 455 1810 1835 1794 1843 1786 1790 1558 1502 1301 1183 1060 410 237 105 84 167 253 186 168 195 127 62 107 103 102 76
0 0 0 0 0 0 0 0 0 38 54 54 42 19 3 4 1 1 22 79 211 358 309 1426 1717 1667 1492 1619 1408 1272 1541 1413 1196 614 417 251 179 133 152 209 214 158 102 46 45 53 88 37 56
0 0 0 2 1 0 0 0 62 44 30 26 0 0 0 0 0 1 26 60 133 193 530 427 1457 1439 1321 1233 1217 1393 1166 1061 803 718 431 276 292 301 235 117 82 21 30 17 74 56 54 53 16
14 2 7 7 0 0 0 2 26 0 5 8 0 0 0 0 0 0 4 49 120 142 203 618 949 820 802 856 921 1046 1111 898 866 791 380 424 397 128 79 40 11 21 3 1 0 7 29 41 22
6 13 16 20 3 0 0 3 38 6 0 0 0 0 0 0 0 0 0 12 139 107 154 161 530 530 334 278 463 829 892 820 663 502 387 357 162 7 39 23 17 11 2 4 4 9 7 50 12
0 0 49 70 6 2 33 0 0 0 0 0 1 0 0 0 0 0 0 0 24 59 73 124 352 93 17 0 227 435 618 569 906 592 387 293 84 28 73 36 6 1 0 1 12 9 2 4 18

GFSSGP_con_mucape_099.txt.gz
CAPE
0 0 0 0 0 0 0 0 0 0 0 0 0 0 0 0 0 0 852 1122 996 1187 1520 1530 1662 1813 1818 1775 1724 1767 1906 1953 1979 2062 2113 2104 2134 2207 2264 2277 2301 2539 2539 2047 1757 1758 1726 1713 1494
0 0 0 0 0 0 0 0 0 0 0 0 0 0 0 0 714 1145 1173 1112 1099 1306 1529 1600 1702 1839 1895 1837 1828 1895 2111 2098 2047 2079 2194 2213 2213 2309 2352 2311 2303 2525 2485 2119 1852 1849 1755 1750 1487
0 0 0 0 0 0 0 0 0 0 0 0 0 0 0 0 896 1175 1157 1112 1178 1414 1615 1676 1692 1821 1929 1899 1903 1941 2082 2054 2029 2070 2242 2296 2289 2383 2468 2205 2303 2544 2528 2215 1859 1801 1742 1537 1366
0 0 0 0 0 0 0 0 0 0 0 0 0 0 0 238 1208 1185 1399 1295 1267 1439 1599 1734 1721 1791 1892 1947 1966 1993 1963 1918 1891 2022 2249 2394 2422 2417 2391 1992 2417 2602 2544 2467 2194 1870 1574 1174 1126
0 0 0 0 0 0 0 0 0 0 0 0 0 0 0 563 929 1231 1280 1283 1231 1414 1526 1740 1812 1845 1957 2049 2013 1967 1839 1812 1887 2036 2194 2347 2426 2367 2159 1971 2173 2396 2481 2266 2279 1847 1359 1135 1087
0 0 0 0 0 0 0 0 0 0 0 0 0 0 0 532 1290 1194 1078 1036 1136 1248 1407 1603 1796 1875 1959 2074 1978 1902 1794 1782 1863 1983 2063 2277 2276 2156 1978 1968 2080 1935 1798 1944 1794 1468 1292 1167 1132
0 0 0 0 0 0 0 0 0 0 0 0 0 0 0 1098 1364 1200 850 724 1015 1118 1332 1477 1612 1659 1729 1851 1923 1921 1833 1797 1837 1949 1986 2072 2021 1948 1834 1895 1849 1646 1546 1676 1601 1390 1232 1178 1083
0 0 0 0 0 0 0 0 0 0 0 0 0 0 0 831 1406 1337 1145 1011 906 877 1007 1200 1442 1562 1608 1609 1630 1770 1870 1837 1882 1952 1940 2004 1877 1770 1690 1673 1580 1442 1369 1459 1535 1337 1203 1157 953
0 0 0 0 0 0 0 0 0 0 0 0 0 0 0 51 966 1481 1480 1341 1080 850 905 1073 1270 1366 1471 1509 1599 1743 1885 1909 1632 1778 1704 1881 1790 1614 1565 1471 1295 1171 1058 1090 1353 1202 1104 1053 848
0 0 0 0 0 0 0 0 0 0 0 0 0 0 18 123 1003 1486 1607 1547 1366 1127 868 981 1143 1256 1290 1345 1552 1708 1912 1703 1315 1309 1368 1765 1830 1591 1408 1380 1164 886 819 832 961 848 875 862 755
0 0 0 0 0 0 0 0 0 0 0 0 0 0 0 0 487 1392 1596 1648 1644 1512 1259 1005 1103 1158 1148 1199 1441 1641 1731 1550 1199 1390 1506 1876 1844 1753 1410 1333 1084 836 703 565 481 541 431 629 760
0 0 0 0 0 0 0 0 0 0 0 0 0 0 0 0 0 541 1349 1702 1826 1802 1563 1429 1105 1077 1050 1050 1206 1595 1451 1742 1525 1355 1446 1980 1927 1761 1506 1280 1145 886 773 571 436 374 408 522 771
0 0 0 0 0 0 0 0 0 0 0 0 0 0 0 0 0 0 0 18 1796 1844 1903 1733 1467 1110 968 985 899 1100 1416 1592 2086 1507 1610 1929 1867 1654 1524 1240 1083 969 853 665 438 390 425 523 667
0 0 0 0 0 0 0 0 0 0 0 0 0 0 0 0 0 0 0 0 23 1692 2062 2148 1950 1724 1448 1167 891 762 1004 1390 1491 1380 1495 1731 1639 1539 1460 1296 1084 947 906 773 553 419 514 572 348
0 0 0 0 0 0 0 0 0 0 0 0 0 0 0 0 0 0 0 0 0 28 1854 2275 2303 2172 2032 1719 1351 1177 776 907 999 1216 1413 1407 1303 1410 1298 1176 1053 959 894 809 704 355 339 206 105
0 0 0 0 0 0 0 0 0 0 0 0 0 0 0 0 0 0 0 0 0 0 343 2150 2364 2397 2396 2172 1757 1508 1008 922 861 1001 1185 1151 1039 1197 1107 943 794 893 877 841 756 338 237 42 75
0 0 0 0 0 0 0 0 0 0 0 0 0 0 0 0 0 0 0 0 0 0 0 1483 2321 2420 2526 2510 2262 1896 1273 1134 956 921 933 1145 1073 1026 1012 896 767 981 862 846 690 416 281 99 49
0 0 0 0 0 0 0 0 0 0 0 0 0 0 0 0 0 0 0 0 0 0 0 33 1915 2283 2495 2600 2401 2143 1625 1470 1309 1274 1195 1193 1366 1304 1198 1129 1057 1152 917 699 622 563 332 110 63
0 0 0 0 0 0 0 0 0 0 0 0 0 0 0 0 0 0 0 0 0 0 0 0 1418 2040 2127 2287 2353 2149 1834 1712 1560 1709 1580 1656 1615 1540 1422 1242 1103 1036 971 988 620 357 318 136 125
0 0 0 0 0 0 0 0 0 0 0 0 0 0 0 0 0 0 0 0 0 0 0 0 1005 1833 1959 1956 2033 1898 1876 1570 1332 1588 1689 1789 1639 1455 1255 1129 1075 999 884 1038 745 330 167 149 108
0 0 0 0 0 0 0 0 0 0 0 0 0 0 0 0 0 0 0 0 0 0 0 0 816 1741 1924 1913 1808 1793 1579 1418 1423 1608 1553 1607 1390 1303 1097 758 923 920 1089 781 680 358 218 115 57
0 0 0 0 0 0 0 0 0 0 0 0 0 0 0 0 0 1 2 3 0 0 0 0 577 1750 1911 1931 1651 1502 1574 1314 1246 1210 1250 1265 883 963 587 611 870 652 780 704 782 387 281 192 132
0 0 0 0 0 0 0 0 0 0 0 0 0 26 32 22 57 79 59 66 135 185 74 317 115 1508 1789 1919 1732 1623 1582 1241 1000 976 1061 856 659 700 489 308 996 410 506 734 538 490 372 135 71
0 0 0 0 0 0 0 0 0 0 0 0 8 23 19 31 33 16 10 22 80 396 261 892 627 1398 1777 1912 1769 1502 1402 1383 1008 875 949 817 559 302 341 775 558 699 344 426 498 543 150 100 85
0 0 0 0 0 0 0 0 0 0 0 13 30 17 13 18 40 13 0 0 45 161 330 929 1349 1713 1877 1844 1722 1557 1416 1365 1021 1017 1018 813 535 261 213 341 269 292 459 427 311 126 75 100 55
0 0 0 0 0 0 0 0 0 4 10 3 4 0 0 0 0 0 0 0 26 60 267 349 1522 1907 1895 1708 1579 1360 1388 1447 1224 1185 968 818 483 239 74 105 197 103 331 357 145 109 73 34 51
0 0 0 1 0 0 0 0 0 0 0 1 0 1 0 0 0 0 0 0 14 122 120 247 1033 1888 1815 1436 1364 1325 1229 1194 1168 995 931 994 492 196 76 59 71 234 227 109 103 67 42 50 51
0 0 0 16 0 0 0 0 0 0 1 2 0 0 0 0 0 0 0 1 65 170 102 127 547 1399 1354 1222 1017 977 750 751 831 960 1025 628 308 150 100 125 148 202 99 17 14 20 12 39 36
0 0 0 3 23 0 0 0 9 1 3 6 0 0 0 0 0 0 0 6 25 134 105 94 170 302 548 519 529 598 454 436 712 755 606 394 177 178 228 178 88 8 9 0 2 0 0 6 28
0 0 0 0 0 1 2 0 39 0 1 0 0 0 0 0 0 0 0 0 16 105 64 132 175 197 145 112 150 175 164 81 540 558 490 209 270 257 71 30 36 0 7 2 2 0 2 10 4

GFSSGP_con_mucape_102.txt.gz
CAPE
0 0 0 0 0 0 0 0 0 0 0 0 0 0 0 0 0 0 765 1069 894 1148 1384 1515 1609 1893 1808 1716 1632 1744 1896 1999 2066 2156 2209 2291 2254 2231 2145 2132 2208 2561 2371 1998 1839 1922 1992 1821 1689
0 0 0 0 0 0 0 0 0 0 0 0 0 0 0 0 178 892 1125 1083 1013 1307 1404 1555 1752 1944 1865 1729 1748 1855 2046 2094 2105 2115 2180 2250 2294 2291 2203 2156 2359 2521 2477 2145 1895 1946 1918 1923 1546
0 0 0 0 0 0 0 0 0 0 0 0 0 0 0 0 344 957 1063 1179 1162 1403 1438 1586 1860 1943 1902 1845 1879 1947 1983 1945 2017 2065 2210 2267 2361 2428 2361 2239 2381 2505 2561 2407 1982 2021 2105 1527 1303
0 0 0 0 0 0 0 0 0 0 0 0 0 0 0 0 680 1024 1215 1217 1353 1505 1566 1709 1897 1970 1958 1980 2016 2036 1878 1767 1819 2008 2236 2348 2459 2538 2364 2174 2421 2635 2660 2582 2425 2324 1767 1267 1226
0 0 0 0 0 0 0 0 0 0 0 0 0 0 0 0 734 1168 1314 1290 1381 1562 1614 1732 1902 1970 2002 2124 2121 2027 1823 1675 1759 1967 2141 2257 2399 2493 2239 2061 2323 2265 2526 2499 2388 1943 1396 1195 1191
0 0 0 0 0 0 0 0 0 0 0 0 0 0 0 4 1008 1315 1442 1250 1340 1494 1618 1699 1856 1919 1972 2035 2007 1962 1814 1694 1721 1865 2037 2240 2240 2179 2090 2027 2200 2181 2263 2186 1974 1433 1242 1199 1217
0 0 0 0 0 0 0 0 0 0 0 0 0 0 0 2 701 1223 1441 1151 1304 1428 1574 1699 1810 1876 1896 1885 1882 1908 1824 1773 1736 1751 1878 2049 2021 1912 1956 1981 1995 1820 1695 1686 1523 1237 1148 1220 1193
0 0 0 0 0 0 0 0 0 0 0 0 0 0 0 0 158 1188 1033 1029 1192 1383 1537 1731 1842 1916 1879 1809 1801 1864 1854 1823 1784 1755 1762 1857 1862 1805 1762 1791 1788 1581 1453 1587 1403 1170 1133 1153 1116
0 0 0 0 0 0 0 0 0 0 0 0 0 0 0 0 1105 1277 986 780 999 1196 1414 1540 2118 2053 1743 1810 1907 1887 1910 1904 1860 1828 1795 1796 1749 1758 1666 1636 1620 1347 1192 1444 1343 1135 1059 1083 1084
0 0 0 0 0 0 0 0 0 0 0 0 0 0 0 6 741 1301 1295 786 813 826 1079 1257 1531 2032 1745 1513 1538 1640 1859 1892 1929 1883 1844 1799 1730 1657 1612 1549 1523 1267 988 1211 1263 1129 1035 1068 1013
0 0 0 0 0 0 0 0 0 0 0 0 0 0 0 0 0 814 1399 1420 1070 846 751 886 1089 1536 1408 1486 1455 1621 2295 1838 1913 1682 1686 1657 1789 1661 1530 1465 1429 1184 855 832 1068 995 858 942 951
0 0 0 0 0 0 0 0 0 0 0 0 0 0 0 0 0 0 664 1527 1580 1619 1256 796 963 1015 1224 1223 1387 1774 2292 1640 1706 1565 1289 1348 1750 1784 1539 1437 1362 1140 875 747 791 870 785 736 846
0 0 0 0 0 0 0 0 0 0 0 0 0 0 0 0 0 0 0 9 372 1551 1756 1639 1069 1110 1185 1161 1165 1207 1632 1811 1427 1093 1297 1260 1572 1863 1647 1436 1349 1149 884 721 640 438 448 318 594
0 0 0 0 0 0 0 0 0 0 0 0 0 0 0 0 0 0 0 0 0 73 1443 1826 1829 1539 1299 1050 967 1056 1155 1028 1509 2093 1625 1562 2031 2171 1709 1596 1338 1239 1016 851 757 550 373 309 452
0 0 0 0 0 0 0 0 0 0 0 0 0 0 0 0 0 0 0 0 0 0 21 1517 1915 1935 1680 1372 1040 863 862 806 1049 1748 1989 1600 1669 1794 1632 1615 1387 1232 1164 1007 801 620 459 242 439
0 0 0 0 0 0 0 0 0 0 0 0 0 0 0 0 0 0 0 0 0 0 0 358 1731 1893 2025 1817 1490 1147 1121 1032 1092 1520 1834 1538 1548 1817 1696 1484 1354 1295 1185 1064 807 717 507 302 346
0 0 0 0 0 0 0 0 0 0 0 0 0 0 0 0 0 0 0 0 0 0 0 0 997 1935 1870 2012 1991 1608 1373 1160 1098 830 952 1109 1463 1619 1502 1410 1182 1156 1107 1025 909 799 641 290 217
0 0 0 0 0 0 0 0 0 0 0 0 0 0 0 0 0 0 0 0 0 0 0 0 2 1649 1959 1905 2019 1924 1680 1364 1438 1042 918 979 1227 1263 1178 1155 1064 1405 809 765 803 788 663 433 233
0 0 0 0 0 0 0 0 0 0 0 0 0 0 0 0 0 0 0 0 0 0 0 0 0 758 1925 2016 1966 2033 1881 1775 1657 1308 899 840 969 1047 1018 975 922 908 827 688 695 873 558 532 297
0 0 0 0 0 0 0 0 0 0 0 0 0 0 0 0 0 0 0 0 0 0 0 0 0 143 1851 1854 1874 1821 1688 1613 1546 1523 1044 853 904 987 1126 1100 1099 1041 900 764 841 1120 535 387 377
0 0 0 0 0 0 0 0 0 0 0 0 0 0 0 0 0 0 0 0 0 0 0 0 0 2 1571 1813 1961 1861 1838 1580 1744 1665 1371 1256 1323 1332 1346 1370 1098 1282 1627 610 928 995 905 331 316
0 0 0 0 0 0 0 0 0 0 0 0 0 0 0 0 0 0 0 0 0 0 40 0 0 0 873 1743 1797 1505 1516 1383 1154 1504 1813 1413 1568 1671 1674 1606 1379 1224 766 642 800 921 794 546 249
0 0 0 0 0 0 0 0 0 0 0 0 0 0 0 0 0 0 0 0 0 0 0 188 88 141 11 1704 1702 1558 1428 1356 1106 1126 1274 1153 1333 1432 1688 1453 1296 665 316 795 806 661 1009 288 255
0 0 0 0 0 0 0 0 0 0 0 0 0 0 0 0 0 0 0 0 0 0 0 17 277 483 105 1640 1745 1533 1365 1335 1275 1050 1266 1188 1300 1652 1309 1181 844 324 291 583 708 785 720 325 193
0 0 0 0 0 0 0 0 0 0 0 0 0 0 0 0 0 0 0 0 0 0 0 47 54 476 474 1247 1709 1577 1407 1335 1214 1057 987 1139 1102 1276 873 718 441 187 289 210 155 596 565 258 110
0 0 0 0 0 0 0 0 0 0 0 0 0 0 0 0 0 0 0 0 0 0 7 34 51 251 884 1390 1694 1685 1620 1374 1271 1139 1051 909 855 957 683 534 304 233 354 262 349 165 389 260 125
0 0 0 0 0 0 0 0 0 0 0 0 0 0 0 0 0 0 0 5 1 1 0 27 53 215 1077 1898 2134 1848 1746 1417 1299 1146 1097 900 792 775 649 404 172 251 300 163 114 512 335 101 154
0 0 0 0 0 0 0 0 0 0 5 8 0 0 0 0 0 0 0 0 0 3 23 71 89 130 937 1504 1770 1786 1392 1478 1165 1175 1051 899 766 621 528 299 131 83 102 52 268 173 138 84 57
0 0 0 0 0 0 0 0 8 13 3 1 0 0 0 0 0 0 0 0 8 5 44 111 101 118 629 1310 1349 1419 1388 1133 898 966 886 649 520 536 415 144 94 65 56 131 173 94 30 12 16
0 0 0 0 0 0 0 0 0 0 0 0 0 0 0 0 0 0 0 0 7 5 31 67 77 81 82 387 267 495 453 340 316 346 409 437 541 284 99 107 189 73 138 52 16 4 1 1 5

GFSSGP_con_mucape_105.txt.gz
CAPE
0 0 0 0 0 0 0 0 0 0 0 0 0 0 0 0 0 0 695 967 1066 1415 1810 1828 1751 1784 1777 1714 1679 1730 2120 2406 2491 2417 2206 2136 2136 2111 2119 2142 2325 2533 2598 2300 1990 1936 1889 1944 1846
0 0 0 0 0 0 0 0 0 0 0 0 0 0 0 0 0 240 1432 1222 1227 1596 1861 1997 1777 1807 1858 1777 1788 1890 2205 2392 2451 2519 2422 2272 2226 2171 2218 2176 2378 2557 2572 2399 2004 2061 2221 1992 1519
0 0 0 0 0 0 0 0 0 0 0 0 0 0 0 0 1 992 1282 1442 1365 1661 1811 1939 1843 1822 1879 1886 1866 1947 2101 2133 2248 2401 2553 2452 2402 2397 2376 2273 2451 2557 2592 2544 2167 2282 2384 1614 1286
0 0 0 0 0 0 0 0 0 0 0 0 0 0 0 0 91 829 1456 1504 1640 1816 1850 1760 1883 1824 1904 1943 2025 2032 1945 1865 1942 2179 2508 2614 2609 2563 2420 2329 2513 2769 2689 2661 2620 2473 1934 1285 1182
0 0 0 0 0 0 0 0 0 0 0 0 0 0 0 0 290 1313 1487 1606 1771 1987 2025 2106 1876 1873 1913 2041 2122 2030 1821 1767 1851 2049 2245 2459 2600 2572 2338 2361 2469 2647 2649 2625 2572 2273 1524 1220 1217
0 0 0 0 0 0 0 0 0 0 0 0 0 0 0 0 1 1223 1479 1585 1817 2048 2131 2239 1926 1925 1939 2006 2022 1860 1718 1733 1839 1973 2100 2353 2471 2392 2185 2260 2350 2373 2424 2371 2125 1701 1369 1272 1264
0 0 0 0 0 0 0 0 0 0 0 0 0 0 0 0 201 936 1278 1348 1687 1914 2108 2244 2310 2159 1936 1974 1918 1793 1660 1674 1779 1898 2009 2168 2227 2231 2104 2201 2254 2169 2130 2099 1930 1370 1227 1281 1228
0 0 0 0 0 0 0 0 0 0 0 0 0 0 0 0 717 1001 1047 1340 1257 1489 1978 1931 1971 2372 2203 2404 1877 1832 1697 1662 1716 1772 1888 2019 2005 2035 2062 2099 2192 2012 2008 1895 1701 1220 1144 1200 1162
0 0 0 0 0 0 0 0 0 0 0 0 0 0 0 0 595 1312 1176 1199 1245 1214 1475 1539 1725 2168 2031 2231 2160 1845 1780 1736 1728 1739 1747 1945 2230 2303 2243 2058 2080 1843 1641 1688 1540 1145 1071 1154 1159
0 0 0 0 0 0 0 0 0 0 0 0 0 0 0 0 0 258 1418 1386 1207 1299 1274 1843 2201 2336 2293 1868 2243 2359 2078 2274 2319 2262 2185 2162 2260 2279 2051 1932 1817 1742 1350 1543 1378 1155 1066 1189 1680
0 0 0 0 0 0 0 0 0 0 0 0 0 0 0 0 0 0 150 1638 1262 1099 1186 1157 1776 2112 2038 1999 1850 1952 1878 1969 2177 2345 2489 2264 2206 2296 2180 2144 2182 2294 1349 1909 1484 1413 1607 1647 1773
0 0 0 0 0 0 0 0 0 0 0 0 0 0 0 0 0 0 0 346 1692 1550 1276 1224 961 1399 1947 1802 1516 1622 1906 2110 2128 2314 2506 2455 1987 2044 2175 2064 2316 2322 1919 1879 1895 1824 1717 1666 1650
0 0 0 0 0 0 0 0 0 0 0 0 0 0 0 0 0 0 0 0 103 997 1912 1273 1056 693 1188 1755 1390 1513 1541 1631 1903 2219 2296 2455 1822 1882 1834 2167 2077 1982 1763 1675 1573 1598 1427 1503 1458
0 0 0 0 0 0 0 0 0 0 0 0 0 0 0 0 0 0 0 0 0 37 651 2029 1440 1055 1140 1116 1354 1370 1456 1557 1884 2210 2131 2148 2146 1840 1895 1692 1675 1698 1599 1438 1393 1372 1335 1275 1217
0 0 0 0 0 0 0 0 0 0 0 0 0 0 0 0 0 0 0 0 0 0 1 130 1642 1473 1467 1453 1567 1659 1500 1667 1386 1426 1442 1332 1415 2084 2195 1972 1425 1308 1265 1221 1088 1007 899 1074 819
0 0 0 0 0 0 0 0 0 0 0 0 0 0 0 0 0 0 0 0 0 0 0 0 204 1798 1817 1744 1704 1774 1651 1563 1268 1079 1218 1503 1814 2032 2322 2147 1857 1368 1286 1216 1082 972 798 737 665
0 0 0 0 0 0 0 0 0 0 0 0 0 0 0 0 0 0 0 0 0 0 0 0 0 446 1751 1884 1937 1757 1642 1442 1511 1124 1095 1600 1872 1915 1973 2121 1957 1502 1346 1234 1206 1097 900 651 507
0 0 0 0 0 0 0 0 0 0 0 0 0 0 0 0 0 0 0 0 0 0 0 0 0 0 1359 1906 1794 1699 1620 1540 1235 1007 1033 1078 1810 1908 1888 1806 1371 1142 1284 1016 1105 1003 832 743 588
0 0 0 0 0 0 0 0 0 0 0 0 0 0 0 0 0 0 0 0 0 0 0 0 0 0 0 1163 1801 1405 1106 1439 1499 1246 1326 1343 1513 1632 1566 1389 1245 1139 1093 1175 860 683 791 572 417
0 0 0 0 0 0 0 0 0 0 0 0 0 0 0 0 0 0 0 0 0 0 0 0 0 0 0 235 1541 1819 1532 1333 1471 1491 1270 1140 1118 1180 1164 1161 979 1045 900 1026 791 525 678 436 543
0 0 0 0 0 0 0 0 0 0 0 0 0 0 0 0 0 0 0 0 0 0 0 0 0 0 0 7 1361 2070 1520 1482 1488 1989 1431 1460 1394 1170 1119 1015 818 805 807 888 609 518 729 308 481
0 0 0 0 0 0 0 0 0 0 0 0 0 0 0 0 0 0 0 0 0 0 0 0 0 1 1 0 614 1615 1346 1295 1444 1835 1486 1578 1398 1055 1125 909 730 726 882 808 549 498 440 251 180
0 0 0 0 0 0 0 0 0 0 0 0 0 0 0 0 0 0 0 0 0 0 0 0 0 0 36 3 8 1476 1623 1725 1931 1976 1986 1609 1272 1182 1012 862 809 965 937 731 876 630 284 207 290
0 0 0 0 0 0 0 0 0 0 0 0 0 0 0 0 0 0 0 0 0 0 0 0 0 0 0 85 133 908 1684 1801 1716 1991 1973 1620 1580 1803 1132 1098 1201 1102 1125 1113 671 313 286 240 200
0 0 0 0 0 0 0 0 0 0 0 1 0 0 0 0 0 0 0 0 0 0 0 0 0 0 1 0 340 309 1516 1548 1756 1802 1953 1448 1023 1448 1512 1122 1115 1417 1247 1154 489 194 295 202 251
0 0 0 0 0 0 0 0 0 3 0 3 0 0 0 0 0 0 0 0 0 0 0 0 0 0 8 214 441 515 1428 1484 1748 1821 1758 1380 879 1195 1709 998 1069 1384 1047 732 430 444 311 214 263
0 0 0 0 0 0 0 0 0 2 0 0 0 0 1 0 0 0 0 0 0 4 8 0 0 2 13 458 895 1277 1536 1378 1412 1547 1726 1238 1006 1192 1383 866 992 958 836 264 238 176 200 235 41
0 0 0 0 0 0 0 0 0 0 0 0 0 0 0 0 0 0 0 0 0 0 10 15 40 18 44 312 999 1510 1503 1325 1150 1316 1244 1098 1009 905 962 745 707 620 345 190 167 171 185 168 56
0 0 0 0 0 0 0 0 4 0 0 0 0 0 0 0 0 0 0 0 0 0 5 24 61 68 66 356 597 802 1243 1228 1193 959 1227 1252 897 908 719 511 476 383 153 145 122 148 48 245 165
0 0 0 0 0 0 0 0 12 0 0 0 0 0 0 0 0 0 0 0 1 2 8 17 154 75 66 88 102 263 623 699 815 939 865 1034 759 578 485 353 343 216 101 82 73 95 65 81 66

GFSSGP_con_mucape_108.txt.gz
CAPE
0 0 0 0 0 0 0 0 0 0 0 0 0 0 0 0 0 0 150 1338 1554 1605 2307 1987 1653 1775 1872 1909 1975 2259 2499 2634 2498 2279 2174 2272 2281 2243 2346 2418 2485 2713 2762 2587 2065 2141 2180 2450 2439
0 0 0 0 0 0 0 0 0 0 0 0 0 0 0 0 0 0 532 1668 1563 1811 2144 2111 1607 1723 1844 1891 1997 2269 2665 2778 2676 2474 2406 2421 2409 2373 2406 2397 2467 2768 2883 2766 2138 2240 2259 2262 1773
0 0 0 0 0 0 0 0 0 0 0 0 0 0 0 0 0 25 975 1744 1526 1823 1979 2304 1665 1647 1786 1837 1968 2174 2474 2571 2634 2553 2616 2573 2560 2567 2543 2409 2586 2890 2941 2826 2286 2492 2581 1687 1459
0 0 0 0 0 0 0 0 0 0 0 0 0 0 0 0 0 0 1078 1692 1733 1863 2097 2083 1662 1615 1749 1893 1965 2113 2169 2274 2427 2544 2674 2684 2702 2742 2578 2424 2721 3018 2962 2940 2855 2890 2294 1405 1264
0 0 0 0 0 0 0 0 0 0 0 0 0 0 0 0 0 139 1808 1902 1683 1977 2372 2538 1697 1649 1787 1983 2055 2044 1936 2059 2282 2498 2617 2704 2796 2754 2516 2451 2722 2921 2919 2920 2891 2616 1733 1334 1236
0 0 0 0 0 0 0 0 0 0 0 0 0 0 0 0 0 58 1781 2209 2049 2202 2563 2698 1833 1735 1819 1954 1976 1868 1747 1799 2074 2347 2479 2693 2700 2531 2443 2475 2581 2584 2658 2631 2574 2140 1538 1373 1311
0 0 0 0 0 0 0 0 0 0 0 0 0 0 0 0 0 55 1437 2272 2489 2550 2749 2929 2705 2198 1830 1905 1889 1816 1658 1665 1841 2085 2307 2487 2484 2335 2359 2502 2476 2445 2352 2409 2203 1945 1438 1404 1351
0 0 0 0 0 0 0 0 0 0 0 0 0 0 0 0 0 0 859 2215 2436 2603 2900 3022 2963 2601 2744 2477 1839 1731 1620 1604 1765 1885 2044 2242 2301 2263 2190 2310 2356 2260 2235 2203 2042 1663 1359 1357 1279
0 0 0 0 0 0 0 0 0 0 0 0 0 0 0 0 0 0 0 1644 2283 2261 2530 2614 2501 2641 2580 2842 2440 1820 1628 1581 1671 1814 1906 2126 2269 2603 2507 2184 2072 2136 2041 1924 1901 1488 1214 1265 1223
0 0 0 0 0 0 0 0 0 0 0 0 0 0 0 0 0 0 0 0 2010 2242 2197 2106 2122 2399 2612 2664 2875 2658 2598 2326 2226 2178 2299 2311 2313 2493 2218 2093 2124 2103 1870 1715 1641 1434 1128 1222 1641
0 0 0 0 0 0 0 0 0 0 0 0 0 0 0 0 0 0 0 0 829 1966 2211 2215 2090 2052 2160 2213 2634 2617 2843 2665 2720 2730 2780 2495 2486 2655 2510 2590 2571 2605 1766 2088 1642 1781 1824 1634 1650
0 0 0 0 0 0 0 0 0 0 0 0 0 0 0 0 0 0 0 0 46 1912 1883 2167 2194 2301 2210 1998 2524 2581 2622 2571 2500 2595 3008 2860 2745 2624 2538 2393 2506 2487 2397 2116 2109 1881 1813 1710 1700
0 0 0 0 0 0 0 0 0 0 0 0 0 0 0 0 0 0 0 0 0 310 654 1846 1956 2143 1987 1814 2201 2239 2209 2158 2273 2729 2786 2968 2637 2730 2528 2304 2289 2419 2210 2183 2187 1924 1915 1779 1770
0 0 0 0 0 0 0 0 0 0 0 0 0 0 0 0 0 0 0 0 0 42 156 290 1719 1957 1892 1852 2107 2023 2116 2013 2207 2329 2343 3151 2680 2564 2363 2442 2430 2428 2321 2206 2115 2026 1967 1792 1606
0 0 0 0 0 0 0 0 0 0 0 0 0 0 0 0 0 0 0 0 0 0 2 173 305 2156 2086 1887 1897 1919 1800 1919 1843 2086 2353 2542 2651 2548 2408 2293 2362 2375 2299 2352 2247 2098 1901 1772 1397
0 0 0 0 0 0 0 0 0 0 0 0 0 0 0 0 0 0 0 0 0 0 0 0 43 206 459 1860 2121 2125 1963 1951 1898 1891 2057 2485 2416 2371 2316 1966 2076 2259 2419 2341 2156 1891 1686 1793 1552
0 0 0 0 0 0 0 0 0 0 0 0 0 0 0 0 0 0 0 0 0 0 0 0 0 1 4 767 1670 2130 2343 2217 2089 2040 1953 1982 2117 1919 1872 1958 1826 2494 2161 1987 1913 1779 1753 1569 1325
0 0 0 0 0 0 0 0 0 0 0 0 0 0 0 0 0 0 0 0 0 0 0 0 0 0 0 16 1021 1445 1968 2240 2363 2219 2004 1828 1792 1655 1822 1754 1958 1991 1862 1726 1796 1488 1555 1347 1198
0 0 0 0 0 0 0 0 0 0 0 0 0 0 0 0 0 0 0 0 0 0 0 0 0 0 0 0 95 907 1652 1858 1781 2235 2183 1919 1815 1760 1671 1764 1689 1900 1862 1384 1626 1438 1287 1124 915
0 0 0 0 0 0 0 0 0 0 0 0 0 0 0 0 0 0 0 0 0 0 0 0 0 0 0 0 0 313 1039 1257 1457 1778 2136 2028 1681 1741 1615 1760 1565 1834 1843 1343 1193 995 850 839 963
0 0 0 0 0 0 0 0 0 0 0 0 0 0 0 0 0 0 0 0 0 0 0 0 0 0 0 1 0 0 770 1344 1329 1477 1844 1874 1998 1796 1600 1642 1703 1781 1521 1377 1251 876 930 501 446
0 0 0 0 0 0 0 0 0 0 0 0 0 0 0 0 0 0 0 0 0 0 0 0 0 0 0 0 0 2 203 1082 1410 1515 1515 1587 1694 2067 1762 1712 1744 1804 1391 1378 1403 902 1096 913 515
0 0 0 0 0 0 0 0 0 0 0 0 0 0 0 0 0 0 0 0 0 0 0 0 0 0 0 0 0 0 30 1116 1435 1439 1658 1653 1667 2191 1902 1946 1869 1778 1459 1239 1322 1117 1249 1379 1065
0 0 0 0 0 0 0 0 0 0 0 0 4 0 0 0 0 0 0 0 0 0 0 0 0 0 0 0 0 0 0 262 1667 1742 1846 1725 1756 2307 2010 1879 1876 1845 1347 1089 1232 1524 1472 1124 1147
0 0 3 0 0 0 0 0 0 0 0 0 3 4 0 0 0 0 0 0 0 0 0 0 0 0 0 0 0 0 0 69 830 2009 2090 1931 1975 1994 1972 2048 1694 1449 1346 1663 1545 1731 1512 1320 1236
0 0 5 0 0 0 0 0 0 5 6 0 1 0 0 0 0 0 0 0 0 0 0 0 0 0 0 0 0 0 0 37 799 1669 1693 1888 1948 1631 1900 2014 1679 1381 1544 1390 1503 1502 1349 1166 1281
0 0 0 0 0 0 0 0 19 7 5 17 0 0 0 0 0 0 0 0 0 0 0 0 0 1 6 19 29 13 230 397 996 2042 1655 1656 2104 1769 1926 1864 1708 1929 1186 979 1121 1271 1194 835 951
0 0 0 0 0 0 0 0 0 0 5 0 0 0 0 0 0 0 0 0 0 0 0 0 0 6 91 27 36 122 523 706 1462 1922 1822 1614 2149 1847 1467 1415 1398 1462 1259 931 868 988 883 521 720
0 0 0 0 0 0 0 0 18 0 0 0 0 0 0 0 0 0 0 0 0 0 0 0 0 10 71 28 139 125 911 1059 1269 1577 1857 1722 1838 1553 1460 1179 1096 1339 784 619 478 462 532 516 579
0 0 0 0 0 0 0 0 18 8 0 0 0 0 0 0 0 0 0 0 0 0 0 0 0 0 31 35 89 140 486 773 673 1013 1294 1315 1373 1660 975 1159 1151 1227 825 431 423 438 345 378 341

GFSSGP_con_mucape_111.txt.gz
CAPE
0 0 0 0 0 0 0 0 0 0 0 0 0 0 0 0 0 0 310 1791 1682 1301 2689 1917 1648 1929 2052 2243 2331 2344 2347 2323 2370 2352 2345 2419 2427 2427 2496 2528 2498 2678 2956 2862 2449 2451 2387 2339 2796
0 0 0 0 0 0 0 0 0 0 0 0 0 0 0 0 0 0 181 935 1795 1550 2645 2162 1604 1886 2037 2175 2359 2480 2648 2657 2533 2468 2506 2607 2554 2581 2672 2593 2553 2842 2998 2783 2260 2275 2538 2777 2361
0 0 0 0 0 0 0 0 0 0 0 0 0 0 0 0 0 0 0 836 1876 1833 2322 2470 1603 1756 1973 2086 2368 2574 2767 2711 2579 2523 2646 2745 2699 2725 2760 2578 2635 2994 3126 2808 2364 2480 2815 2154 1734
0 0 0 0 0 0 0 0 0 0 0 0 0 0 0 0 0 0 699 1322 1966 1888 1962 2152 1534 1630 1864 2026 2255 2540 2623 2625 2482 2508 2705 2833 2837 2833 2722 2542 2806 3100 3281 3234 2925 2933 2438 1617 1496
0 0 0 0 0 0 0 0 0 0 0 0 0 0 0 0 0 0 971 1846 1969 1914 2191 2560 1562 1542 1811 2055 2169 2277 2397 2495 2494 2525 2634 2770 2864 2850 2630 2505 2868 3153 3187 3165 3078 2917 2228 1476 1381
0 0 0 0 0 0 0 0 0 0 0 0 0 0 0 0 0 0 576 2363 2278 2026 2440 3151 1686 1543 1699 1878 1890 1954 2130 2312 2476 2554 2559 2754 2794 2702 2511 2519 2769 2905 2853 2847 2770 2548 1925 1464 1373
0 0 0 0 0 0 0 0 0 0 0 0 0 0 0 0 0 0 240 2343 2817 2389 2706 3092 2629 2014 1632 1718 1664 1702 1826 2070 2340 2527 2575 2692 2618 2441 2430 2533 2684 2750 2660 2598 2494 2273 1631 1493 1400
0 0 0 0 0 0 0 0 0 0 0 0 0 0 0 0 0 0 0 1695 2830 2970 3049 3267 3144 2652 2391 2118 1639 1596 1594 1690 1971 2300 2484 2543 2443 2324 2312 2423 2483 2607 2494 2494 2318 2145 1569 1420 1338
0 0 0 0 0 0 0 0 0 0 0 0 0 0 0 0 0 0 0 371 2653 2806 3033 3338 3447 3186 3023 2727 2130 1662 1529 1501 1657 1947 2187 2510 2832 2919 2735 2367 2277 2259 2281 2228 2175 1965 1499 1303 1266
0 0 0 0 0 0 0 0 0 0 0 0 0 0 0 0 0 0 0 0 695 2795 2889 3028 2756 2952 2970 2891 2980 2357 2194 1901 1897 1896 2188 2397 2392 2475 2345 2142 2001 2133 2080 2012 1888 1831 1364 1217 1557
0 0 0 0 0 0 0 0 0 0 0 0 0 0 0 0 0 0 0 0 0 1574 2917 2657 2617 2665 2813 2696 3015 2849 2725 2474 2492 2329 2401 2310 2478 2780 2392 2664 2414 2613 1933 2386 1845 1944 1862 1628 1579
0 0 0 0 0 0 0 0 0 0 0 0 0 0 0 0 0 0 0 0 0 546 2305 2798 2670 2943 2855 2842 2807 2658 2553 2731 2721 2612 3371 3248 2786 3013 2674 1987 2382 2966 2770 2402 2390 2081 2074 1986 1838
0 0 0 0 0 0 0 0 0 0 0 0 0 0 0 0 0 0 0 0 0 0 733 2282 2623 2632 2807 2976 2519 2553 2557 2834 2625 2702 2967 3053 2267 3055 2273 2427 2058 2806 2583 2557 2552 2253 2178 2115 1909
0 0 0 0 0 0 0 0 0 0 0 0 0 0 0 0 0 0 0 0 0 0 0 0 1381 2345 2479 2513 2461 2455 2758 2410 2425 2567 2484 3258 2552 2635 2251 2356 2101 1757 2362 2725 2359 2215 2086 2095 2088
0 0 0 0 0 0 0 0 0 0 0 0 0 0 0 0 0 0 0 0 0 0 0 0 201 491 2008 2224 2202 2229 1910 2228 2049 2159 2792 3369 2743 3194 2931 2410 2247 1896 1971 3225 2873 2742 2229 2123 1837
0 0 0 0 0 0 0 0 0 0 0 0 0 0 0 0 0 0 0 0 0 0 0 0 0 25 417 1775 1721 2045 2058 1993 1839 1964 2458 2980 2676 2860 3397 2546 2593 2351 2249 2290 2775 2587 2335 2053 1929
0 0 0 0 0 0 0 0 0 0 0 0 0 0 0 0 0 0 0 0 0 0 0 0 0 0 0 40 619 1892 2549 2256 2154 2383 2345 2993 3041 2710 3141 2773 2318 2475 2338 2421 2407 2565 2416 2087 1999
0 0 0 0 0 0 0 0 0 0 0 0 0 0 0 0 0 0 0 0 0 0 0 0 0 0 0 0 5 501 1135 1871 2480 2615 2696 3018 2594 2831 3147 2748 2566 2368 2317 2419 2416 2476 2289 2095 1711
0 0 0 0 0 0 0 0 0 0 0 0 0 0 0 0 0 0 0 0 0 0 0 0 0 0 0 0 0 0 799 1237 1902 2296 2891 3362 2855 2655 2971 2708 2397 2398 1892 2244 1970 2226 1897 1841 1888
0 0 0 0 0 0 0 0 0 0 0 0 0 0 0 0 8 7 0 0 0 0 0 0 0 0 0 0 0 13 26 310 919 1791 2160 2885 3257 2980 2750 2794 2367 2491 1872 1756 1729 1764 1886 1685 1849
0 0 0 0 0 0 0 0 0 0 0 0 0 0 0 3 1 0 0 0 0 0 0 0 0 0 0 0 0 0 12 61 690 1365 1425 2193 2981 3122 2777 2192 2535 2623 1850 1542 1697 1930 1738 1521 1426
1 0 0 0 0 0 0 0 0 0 0 0 0 7 12 0 0 0 0 0 0 0 0 0 0 0 0 0 0 0 0 0 46 1209 1272 1821 2383 2690 2722 2693 2105 2732 2116 1922 1643 1729 1667 1472 765
0 31 5 0 0 0 0 0 0 0 1 1 23 40 8 0 0 0 0 0 0 0 0 0 0 0 0 0 0 0 0 0 10 457 1729 2047 2148 2441 1867 2032 2303 2555 2340 2261 1955 1494 1725 1567 1250
2 0 6 17 14 3 0 0 0 5 0 45 76 18 12 0 0 0 0 0 0 0 0 0 0 0 0 0 0 0 0 0 0 84 739 2163 2086 2362 1935 1770 1724 2286 2374 1913 2196 2133 1684 1800 1493
2 0 12 34 20 7 3 0 0 15 205 158 54 15 6 0 0 0 0 0 0 0 0 0 0 0 0 0 0 0 0 0 0 0 268 1137 1953 2208 2169 1539 1797 1856 1998 2014 2275 2088 1193 1849 1735
0 0 0 0 3 4 3 0 63 165 51 19 2 1 0 0 0 0 0 0 0 0 0 0 0 0 0 0 0 0 0 0 0 0 6 808 1938 2093 2354 1577 1698 1907 2010 2314 2140 1995 1408 1451 1616
0 0 2 0 15 0 6 45 205 51 29 1 0 0 0 0 0 0 0 0 0 0 0 0 0 0 0 0 0 0 0 0 0 0 0 300 1606 2030 2495 1846 2008 1767 1985 2104 1964 1990 2149 1542 636
0 0 0 0 0 0 0 0 30 81 13 0 0 0 0 0 0 0 0 0 0 0 0 0 0 0 0 0 0 0 16 32 41 61 57 214 1781 2029 2290 2332 1657 1795 1561 1687 1819 1824 1835 1877 1405
0 0 0 0 0 0 0 19 242 104 20 0 0 0 0 0 0 0 0 0 0 0 0 0 0 0 0 0 0 1 63 50 74 273 385 787 1729 1865 1764 1851 1609 1461 1625 1431 2013 1808 1612 1258 893
0 0 0 0 0 0 0 0 135 46 14 0 0 0 0 0 1 0 0 0 0 0 0 0 0 0 0 0 0 0 57 29 52 131 364 915 1299 1597 1746 1705 1429 1281 1525 1531 1649 1619 1468 1015 823

GFSSGP_con_mucape_114.txt.gz
CAPE
0 0 0 0 0 0 0 0 0 0 0 0 0 0 0 0 0 0 876 1290 1705 2593 2025 1630 1710 1954 2188 2376 2378 2323 2215 2321 2385 2363 2403 2457 2399 2409 2474 2477 2434 2761 3003 2975 2496 2356 2300 2377 2370
0 0 0 0 0 0 0 0 0 0 0 0 0 0 0 0 0 0 0 459 1633 2624 1991 1907 1666 1903 2122 2282 2371 2423 2458 2489 2483 2499 2529 2557 2532 2556 2584 2466 2352 2570 3098 3054 2593 2574 2732 2675 2606
0 0 0 0 0 0 0 0 0 0 0 0 0 0 0 0 0 0 53 1117 1758 2071 2683 2171 1654 1824 2059 2229 2362 2440 2517 2517 2466 2499 2676 2698 2638 2702 2711 2465 2445 2800 3094 3040 2406 2491 2807 2480 2010
0 0 0 0 0 0 0 0 0 0 0 0 0 0 0 0 0 0 246 1320 1902 2098 2817 2086 1675 1733 1967 2246 2413 2543 2530 2379 2315 2430 2700 2805 2747 2810 2761 2451 2618 2954 3139 3055 2809 2800 2485 1786 1511
0 0 0 0 0 0 0 0 0 0 0 0 0 0 0 0 0 0 285 1859 1995 2412 2719 2274 2000 1637 1887 2271 2471 2508 2438 2311 2278 2394 2596 2743 2792 2803 2643 2417 2648 2960 3125 3114 3036 2793 2191 1419 1341
0 0 0 0 0 0 0 0 0 0 0 0 0 0 0 0 0 0 217 2052 2807 2976 3327 2103 1820 1588 1781 2023 2218 2326 2363 2362 2314 2361 2486 2678 2687 2648 2520 2397 2626 2725 2764 2844 2787 2601 2277 1482 1287
0 0 0 0 0 0 0 0 0 0 0 0 0 0 0 0 0 0 0 2407 3016 3090 3763 2998 2199 1739 1602 1712 1886 2065 2232 2319 2353 2342 2380 2506 2515 2466 2347 2383 2570 2514 2605 2582 2504 2393 2070 1477 1296
0 0 0 0 0 0 0 0 0 0 0 0 0 0 0 0 0 0 0 2102 3072 3410 3926 3688 2783 2206 1997 1741 1528 1703 1925 2107 2291 2361 2359 2383 2390 2342 2206 2203 2405 2510 2389 2391 2305 2254 1911 1415 1255
0 0 0 0 0 0 0 0 0 0 0 0 0 0 0 0 0 0 0 19 3225 3358 3766 3943 3166 2687 2504 2210 1659 1415 1542 1745 2035 2226 2333 2392 2455 2286 2151 2184 2112 2273 2203 2216 2254 2118 1960 1376 1219
0 0 0 0 0 0 0 0 0 0 0 0 0 0 0 0 0 0 0 0 1518 3166 3335 3612 3351 3061 2991 2344 2108 1878 1707 1689 1844 2028 2150 2529 2594 2551 2345 2272 2016 2054 2051 2099 2005 1964 1852 1431 1285
0 0 0 0 0 0 0 0 0 0 0 0 0 0 0 0 0 0 0 0 0 170 3027 3183 2703 2561 3027 2929 2612 2039 2041 1789 1834 1974 2184 2138 2288 2535 2284 2215 1958 2078 1979 1923 1837 1769 1733 1467 1332
0 0 0 0 0 0 0 0 0 0 0 0 0 0 0 0 0 0 0 0 0 0 2645 3057 2562 2507 2391 2408 2914 2803 2453 2273 2206 2113 2360 2207 2108 2125 2383 2020 2179 2173 2036 2015 1990 1842 1761 1644 1644
0 0 0 0 0 0 0 0 0 0 0 0 0 0 0 0 0 0 0 0 0 0 1168 2255 2313 2569 2329 2564 2605 2806 2546 2611 2636 2495 2638 2518 2239 2398 2403 2083 2230 2311 2146 2107 1953 1940 1935 1858 1762
0 0 0 0 0 0 0 0 0 0 0 0 0 0 0 0 0 0 0 0 0 0 0 563 1745 1971 2591 2651 2638 2504 2955 2776 2510 2497 2765 2748 2547 2015 2414 2189 2248 2411 2312 2162 2011 1783 1541 1842 1774
0 0 0 0 0 0 0 0 0 0 0 0 0 0 0 0 0 0 0 0 0 0 0 0 0 137 906 1931 2058 1998 2468 2455 2654 2534 2427 2506 2752 2354 2299 2471 1986 1861 2318 2119 2058 2175 2041 1946 1778
0 0 0 0 0 0 0 0 0 0 0 0 0 0 0 0 0 0 0 0 0 0 0 0 0 0 698 1154 1946 2280 2009 2234 1961 2299 2369 2243 2655 2278 2722 2228 2296 2431 1818 2331 2246 2146 1750 1857 1910
0 0 0 0 0 0 0 0 0 0 0 0 0 0 0 0 0 0 0 0 0 0 0 0 0 0 0 285 1268 1306 1682 2270 1897 1726 2172 2164 2063 2716 2329 2447 2220 2162 2453 2108 2332 2048 1843 1918 1697
0 0 0 0 0 2 1 0 0 0 0 0 0 0 0 0 0 0 0 0 0 0 0 0 0 0 0 0 29 298 567 1259 2082 2186 1924 2131 2213 2211 2411 2372 2542 2062 2123 2168 2167 2026 2106 1897 1691
0 0 0 0 0 0 0 0 0 0 0 0 0 0 0 0 15 5 3 0 0 0 0 0 0 0 0 0 0 0 0 78 1122 1804 2201 2426 2358 2403 2289 2327 2531 2333 1867 1834 1887 2101 1927 1944 1914
1 0 0 4 0 0 0 0 0 0 0 0 0 0 0 0 12 1 0 0 0 0 0 0 0 0 0 0 0 0 0 0 43 389 1077 1876 2433 2385 2504 2452 2440 2347 1995 1645 1834 2195 1949 1709 1785
8 12 26 7 0 3 6 4 0 0 0 0 0 0 19 33 18 0 0 0 0 0 0 0 0 0 0 0 0 0 0 0 1 19 258 1253 1664 2544 2023 2261 2307 2197 1969 1607 1793 1955 1858 1421 1358
32 15 44 24 29 33 8 17 17 0 0 0 0 117 44 0 0 0 0 0 0 0 0 0 0 0 0 0 0 0 0 0 0 0 4 401 892 1118 2145 1948 2247 2057 2063 1610 1403 1731 1633 1318 1145
51 52 34 1 7 13 0 0 7 0 4 0 83 84 0 0 0 0 0 0 0 0 0 0 0 0 0 0 0 0 0 0 0 0 0 2 422 840 1752 1975 2098 2065 2093 1888 1390 1639 1537 1271 1075
0 0 22 83 8 2 0 4 2 1 53 0 224 17 0 0 0 0 0 0 0 0 0 0 0 0 0 0 0 0 0 0 0 0 0 0 0 490 1260 1732 1928 1959 1793 1885 1673 1494 1540 1273 1260
0 0 0 25 0 0 0 0 0 371 364 258 62 3 0 0 0 0 0 0 0 0 0 0 0 0 0 0 0 0 0 0 0 0 0 0 0 0 374 1318 1584 1760 1801 1867 1882 1768 1509 1401 1245
0 0 0 0 0 12 1 15 221 220 183 54 20 0 15 0 0 0 0 0 0 0 0 0 0 0 0 0 0 0 0 0 0 0 0 0 0 0 1 1063 1201 912 1522 1569 1665 1677 1682 1487 1334
0 7 27 0 0 0 0 80 168 48 0 7 9 6 1 0 0 0 0 0 0 0 0 0 0 0 0 0 0 0 0 0 0 0 0 0 0 0 0 247 1361 1553 1692 1524 1600 1742 1608 1550 1276
0 0 0 0 0 0 5 17 8 58 0 0 0 0 0 0 0 0 0 0 0 0 0 0 0 0 0 0 0 0 0 0 0 0 0 0 0 0 0 0 1050 1843 1746 1703 1703 1666 1467 1391 1278
0 0 0 0 0 0 0 12 101 50 17 0 5 6 0 0 0 0 0 0 0 0 0 0 0 0 0 0 0 0 0 0 0 0 103 165 31 18 0 0 823 1594 1569 1655 1698 1602 1452 1381 1325
0 6 0 0 0 0 0 0 191 127 87 18 0 0 0 0 0 0 0 0 0 0 0 0 0 0 0 0 0 0 0 0 0 7 96 171 202 453 387 222 948 1255 1348 1336 1532 1575 1456 1392 1140

GFSSGP_con_mucape_117.txt.gz
CAPE
0 0 0 0 0 0 0 0 0 0 0 0 0 0 0 0 2 417 636 1498 2043 1775 1561 1678 1818 2083 2224 2281 1969 1967 2167 2288 2291 2305 2310 2255 2238 2258 2235 2194 2222 2555 2779 2546 2357 2282 2146 2233 1997
0 0 0 0 0 0 0 0 0 0 0 0 0 0 0 0 0 0 397 1227 2242 2114 1498 1583 1741 1981 2161 2209 2192 2039 2309 2414 2381 2407 2401 2296 2301 2333 2361 2233 2330 2658 2987 2805 2231 2275 2444 2385 2438
0 0 0 0 0 0 0 0 0 0 0 0 0 0 0 0 0 0 942 1215 1994 2534 2049 1667 1670 1871 2089 2163 2234 2117 2238 2287 2327 2381 2502 2420 2441 2477 2446 2192 2178 2513 3149 3050 2592 2562 2561 2371 2125
0 0 0 0 0 0 0 0 0 0 0 0 0 0 0 0 0 7 966 1458 1578 2687 2565 1944 1614 1753 2020 2170 2241 2235 2190 2131 2148 2268 2510 2524 2591 2608 2407 2104 2250 2773 3075 3041 2730 2661 2443 2088 1567
0 0 0 0 0 0 0 0 0 0 0 0 0 0 0 0 0 46 1137 2047 1982 2528 2474 2020 1557 1690 1975 2222 2294 2297 2226 2070 2049 2227 2397 2413 2558 2591 2296 2069 2277 2699 2856 2847 2664 2560 2056 1373 1236
0 0 0 0 0 0 0 0 0 0 0 0 0 0 0 0 0 0 1484 2025 2397 2334 2419 2124 1964 1666 1926 2192 2294 2323 2247 2053 1994 2167 2326 2389 2364 2344 2190 2098 2199 2540 2692 2441 2562 2400 2117 1447 1144
0 0 0 0 0 0 0 0 0 0 0 0 0 0 0 0 0 0 1513 2178 2513 2738 2264 2175 1970 1710 1768 2017 2184 2188 2144 2046 2011 2095 2263 2375 2272 2209 2125 2119 2188 2471 2505 2441 2444 2352 2102 1679 1146
0 0 0 0 0 0 0 0 0 0 0 0 0 0 0 0 0 0 0 2441 2534 3035 3020 2663 2607 2169 1608 1677 1984 2107 2136 2171 2135 2127 2167 2289 2242 2192 2120 2061 2185 2404 2387 2324 2232 2180 1965 1505 1153
0 0 0 0 0 0 0 0 0 0 0 0 0 0 0 0 0 0 0 1473 2877 2676 3273 3025 2856 2538 1668 1391 1570 1789 1952 2091 2164 2178 2133 2202 2165 2208 2077 1950 2042 2286 2217 2182 2092 2080 1869 1474 1149
0 0 0 0 0 0 0 0 0 0 0 0 0 0 0 0 0 0 0 0 2767 2812 2913 3019 2949 2630 1725 1666 1299 1335 1549 1749 1985 2154 2148 2085 2090 2084 2011 1880 1911 2028 2039 2020 2048 1983 1844 1585 1168
0 0 0 0 0 0 0 0 0 0 0 0 0 0 0 0 0 0 0 0 0 1441 2802 3071 3013 2720 2057 1931 1564 1197 1266 1317 1576 1919 2007 2090 2091 2074 1867 1786 1696 1895 1854 1842 1915 1742 1734 1581 1250
0 0 0 0 0 0 0 0 0 0 0 0 0 0 0 0 0 0 0 0 0 0 2933 3068 3054 2694 2592 2359 2166 1773 1410 1217 1263 1554 1873 1904 2163 2308 2177 2029 2034 1773 1908 1755 1611 1573 1593 1492 1252
0 0 0 0 0 0 0 0 0 0 0 0 0 0 0 0 0 0 0 0 0 0 2612 2649 2671 2494 2299 2362 2588 2599 2122 1614 1439 1459 1653 1860 1802 1936 2233 2184 2117 1967 1770 1756 1637 1570 1505 1443 1378
0 0 0 0 0 0 0 0 0 0 0 0 0 0 0 0 0 0 0 0 0 0 737 635 2083 2385 2094 1736 1799 2130 2358 2077 1841 1790 1791 1998 1922 1659 1742 1908 1925 1869 1795 1733 1642 1742 1638 1560 1357
0 0 0 0 0 0 0 0 0 0 0 0 0 0 0 0 0 0 0 0 0 0 0 0 10 406 1142 1067 1044 1168 1031 1651 2032 2044 2320 2235 2132 2327 1834 2059 1878 1956 1970 1972 1888 1593 1708 1600 1363
0 0 0 0 0 0 0 0 0 0 0 0 0 0 0 0 0 0 0 0 0 0 0 0 0 0 0 633 529 444 988 1069 1302 1419 1986 2462 2398 2123 2318 1686 2011 1706 2044 2049 1956 1818 1627 1438 1267
0 0 0 0 0 0 0 0 0 0 0 0 0 0 0 0 0 0 0 0 0 0 0 0 0 0 0 0 382 764 679 691 1051 1236 1792 1750 2017 2352 2185 2027 2040 1910 1760 2030 2093 1851 1706 1521 1236
0 0 0 0 0 0 0 0 0 0 0 0 0 0 0 0 0 0 0 0 0 0 0 0 0 0 0 0 0 291 1087 912 556 798 1160 1522 1578 1614 2199 2155 2096 1944 1845 1929 1949 1802 1697 1515 1405
0 0 0 0 0 0 0 0 0 0 0 0 0 0 0 0 1 0 0 0 0 0 0 0 0 0 0 0 0 0 2 754 971 339 863 911 1181 1513 1675 2106 1911 2029 1831 1515 1950 2019 1712 1641 1434
0 0 0 0 0 0 0 0 0 0 0 0 0 0 0 55 75 38 0 0 0 0 0 0 0 0 0 0 0 0 0 0 0 0 202 481 690 1089 1296 1509 1803 1787 1743 1276 1581 1762 1894 1732 1751
0 0 0 0 2 0 0 0 0 0 0 0 0 0 0 101 76 26 0 0 0 0 0 0 0 0 0 0 0 0 0 0 0 0 0 194 339 545 960 1310 1346 1461 1417 1277 1233 1257 1706 1626 1594
0 3 40 21 4 0 0 0 0 0 0 0 0 41 34 74 73 16 0 0 0 0 0 0 0 0 0 0 0 0 0 0 0 0 0 0 71 386 433 897 893 1375 1187 1047 1081 1003 1234 1393 1196
1 35 20 15 19 4 0 0 0 0 0 9 31 37 38 57 45 40 1 0 0 0 0 0 0 0 0 0 0 0 0 0 0 0 0 0 0 0 245 563 518 776 1089 978 925 846 1364 1171 1064
14 8 2 24 5 6 0 0 0 0 51 172 103 53 46 24 16 20 21 11 1 0 0 0 0 0 0 0 0 0 0 0 0 0 0 0 0 0 0 166 526 479 940 1253 1168 1067 1082 1326 1250
10 8 0 0 0 0 0 0 0 154 142 105 66 51 49 19 10 11 8 3 0 0 0 0 0 0 0 0 0 0 0 0 0 0 0 0 0 0 0 0 29 394 570 1075 1250 993 1081 1137 1252
2 1 0 0 0 0 0 0 1 6 22 16 3 4 8 49 40 1 0 0 0 0 0 0 0 0 0 0 0 0 0 0 0 0 0 0 0 0 0 0 0 0 221 769 962 902 966 1188 1217
0 1 0 0 0 0 0 0 46 0 0 6 1 7 6 11 15 0 0 0 0 0 0 0 0 0 0 0 0 0 0 0 0 0 0 0 0 0 0 0 0 0 0 496 963 886 712 1410 1497
12 0 0 0 0 0 0 0 56 2 0 0 0 0 0 0 0 0 0 0 0 0 0 0 0 0 0 0 0 0 0 0 0 0 0 0 0 0 0 0 0 0 0 136 913 776 811 1076 1336
0 0 0 0 0 0 0 0 30 32 32 0 0 1 0 0 0 0 0 0 0 0 0 0 0 0 0 0 0 0 0 0 0 0 0 0 0 0 0 0 0 0 0 0 966 991 802 943 1051
0 0 0 0 0 0 0 0 124 37 17 0 0 0 0 0 0 0 0 0 0 0 0 0 0 0 0 0 0 0 0 0 0 0 0 1 10 0 6 4 90 144 0 0 889 1416 1104 964 1098

GFSSGP_con_mucape_120.txt.gz
CAPE
0 0 0 0 0 0 0 0 0 0 0 0 0 0 0 0 3 439 896 1860 1562 1564 1652 1867 1993 2050 2012 1967 1970 2009 2160 2220 2187 2222 2105 2057 2113 2199 2225 2345 2553 2816 2929 2629 2469 2324 2160 2156 2010
0 0 0 0 0 0 0 0 0 0 0 0 0 0 0 6 27 112 927 1923 1717 1596 1601 1741 1932 2060 2078 1909 1930 2074 2342 2362 2319 2325 2203 2139 2154 2158 2130 2112 2260 2675 2920 2648 2396 2220 2319 2373 2062
0 0 0 0 0 0 0 0 0 0 0 0 0 0 0 0 0 432 1036 2007 2051 1944 1616 1645 1826 1996 2106 2003 1887 2022 2237 2223 2255 2301 2325 2277 2350 2410 2348 2127 2317 2850 3106 2759 2324 2617 2739 2260 1968
0 0 0 0 0 0 0 0 0 0 0 0 0 0 0 0 0 714 1334 2008 2207 2238 2085 1722 1723 1895 2037 2106 1984 1983 2059 2020 2072 2191 2329 2367 2432 2537 2361 2080 2368 2798 3274 3237 3017 2898 2398 2051 1693
0 0 0 0 0 0 0 0 0 0 0 0 0 0 0 0 141 997 1778 1761 2137 2432 2527 2093 1808 1788 2006 2160 2172 2016 1952 1902 1973 2149 2238 2318 2429 2389 2144 1957 2161 2618 3118 2967 2787 2519 2131 1727 1325
0 0 0 0 0 0 0 0 0 0 0 0 0 0 0 0 8 1034 1499 2120 2189 2350 2554 2179 1879 1690 1934 2113 2148 2134 1991 1885 1928 2074 2178 2301 2315 2148 1937 1871 2001 2403 2593 2477 2385 2350 1864 1231 1168
0 0 0 0 0 0 0 0 0 0 0 0 0 0 0 0 0 853 1408 2415 2309 2373 2399 2124 1865 1725 1831 1987 2101 2172 2116 1920 1861 1975 2094 2155 2089 1981 1866 1862 1934 2252 2376 2208 2337 2290 2032 1522 1098
0 0 0 0 0 0 0 0 0 0 0 0 0 0 0 0 0 4 1738 2313 2551 2376 2282 2161 2021 1917 1697 1855 2038 2142 2167 2011 1807 1879 2011 2046 1927 1910 1860 1795 1882 2103 2358 2335 2260 2220 2067 1701 1189
0 0 0 0 0 0 0 0 0 0 0 0 0 0 0 0 0 0 1681 2270 2779 2735 2687 2479 2352 2317 2145 1736 1887 2033 2028 1966 1850 1850 1948 2055 1961 1914 1908 1784 1810 1926 2185 2217 2101 2054 1937 1585 1156
0 0 0 0 0 0 0 0 0 0 0 0 0 0 0 0 0 0 0 131 2487 2756 2913 2808 2686 2560 2353 1818 1607 1889 2008 2062 2046 2027 2000 1991 1985 1953 1921 1834 1757 1854 2033 2097 2006 1886 1829 1529 1152
0 0 0 0 0 0 0 0 0 0 0 0 0 0 0 0 0 0 0 0 213 2251 2715 3036 2889 2774 2497 1855 1314 1495 1642 1769 1936 2060 1990 2268 1940 1974 1946 1787 1675 1656 1851 1823 1826 1816 1791 1574 1272
0 0 0 0 0 0 0 0 0 0 0 0 0 0 0 0 0 0 0 0 0 0 1 2887 2955 2928 2702 2160 1460 1149 1277 1371 1505 1720 1898 1922 1938 1931 1845 1717 1527 1488 1455 1575 1638 1689 1615 1528 1322
0 0 0 0 0 0 0 0 0 0 0 0 0 0 0 0 0 0 0 0 0 14 583 2693 2906 2687 2330 2337 2176 1395 1149 1080 1066 1194 1602 1774 1798 1802 1877 1630 1462 1259 1366 1546 1507 1512 1399 1347 1309
0 0 0 0 0 0 0 0 0 0 0 0 0 0 0 0 0 0 0 0 0 0 406 2151 2168 1842 2105 1971 2227 2295 2202 2134 1359 997 1076 1486 1434 1562 1705 1964 1740 1655 1518 1509 1582 1417 1239 1177 1168
0 0 0 0 0 0 0 0 0 0 0 0 0 0 0 0 0 0 0 0 0 0 0 677 1130 1305 1380 1497 1320 1411 1848 2081 1605 1468 1194 1168 1462 1352 1409 1693 2226 2088 1940 1757 1485 1410 1289 1190 1214
0 0 0 0 0 0 0 0 0 0 0 0 0 0 0 0 0 0 0 0 0 0 0 0 76 134 0 454 998 869 815 904 868 883 998 1296 1374 1473 1365 1405 1576 1665 1889 1738 1509 1495 1429 1324 1360
0 0 0 0 0 0 0 0 0 0 0 0 0 0 0 0 0 0 0 0 0 0 0 0 0 0 0 0 5 569 418 66 263 109 198 822 137 947 1368 1471 1685 1827 1782 1725 1611 1587 1536 1402 1406
0 0 0 0 0 0 0 0 0 0 0 0 0 0 0 0 0 0 0 0 0 0 0 0 0 0 0 0 0 0 13 304 281 261 188 290 487 28 731 839 1351 1382 1476 1670 1654 1665 1732 1697 1195
0 0 0 0 0 0 0 0 0 0 0 0 0 0 0 3 34 0 0 0 0 0 0 0 0 0 0 0 0 0 0 0 26 400 468 241 281 523 600 718 1043 852 945 1083 1335 1525 1599 1501 1236
0 0 0 0 0 0 0 0 0 0 0 0 0 8 2 52 43 9 8 0 0 0 0 0 0 0 0 0 0 0 0 0 0 0 0 292 243 264 428 394 530 829 991 912 818 792 823 1158 1072
0 0 0 0 0 0 0 0 0 0 0 0 0 0 4 73 108 47 48 13 2 0 0 0 0 0 0 0 0 0 0 0 0 0 0 0 0 0 207 361 337 397 574 677 699 547 525 371 642
0 0 0 0 0 0 0 0 0 0 0 0 0 2 62 120 108 41 11 24 27 0 0 0 0 0 0 0 0 0 0 0 0 0 0 0 0 0 2 173 291 296 459 507 650 555 487 439 196
0 4 9 4 0 1 0 0 0 0 0 0 0 7 16 56 96 126 106 41 14 11 6 7 0 0 0 0 0 0 0 0 0 0 0 0 0 0 0 0 80 243 330 375 460 757 634 390 157
2 7 6 2 1 0 0 0 0 0 28 0 21 26 25 55 67 87 101 62 3 0 0 1 0 0 0 0 0 0 0 0 0 0 0 0 0 0 0 0 0 0 110 274 301 431 642 561 304
6 12 0 0 0 0 0 0 0 1 36 36 15 0 11 14 25 32 74 33 0 0 0 0 0 0 0 0 0 0 0 0 0 0 0 0 0 0 0 0 0 0 0 0 70 228 677 697 514
2 13 2 0 0 0 0 0 0 2 4 0 0 2 26 1 3 43 27 0 0 0 0 0 0 0 0 0 0 0 0 0 0 0 0 0 0 0 0 0 0 0 0 0 0 8 356 811 707
0 0 2 2 0 0 0 0 3 0 1 0 0 0 0 0 0 33 0 3 1 0 0 0 0 0 0 0 0 0 0 0 0 0 0 0 0 0 0 0 0 0 0 0 0 0 0 549 796
0 0 0 0 0 0 0 0 0 2 4 2 0 2 0 0 0 0 0 0 0 0 0 0 0 0 0 0 0 0 0 0 0 0 0 0 0 0 0 0 0 0 0 0 0 0 0 172 699
0 0 0 0 0 0 0 0 3 2 0 0 0 0 0 0 0 0 0 0 0 0 0 0 0 0 0 0 0 0 0 0 0 0 0 0 0 0 0 0 0 0 0 0 0 0 0 5 540
0 0 0 0 0 0 0 0 27 0 0 0 0 0 0 0 0 0 0 0 0 0 0 0 0 0 0 0 0 0 0 0 0 0 0 0 0 0 0 0 0 0 1 4 4 3 0 0 600

GFSSGP_con_mucape_123.txt.gz
CAPE
0 0 0 0 0 0 0 0 0 0 0 0 0 0 0 2 0 37 989 1644 1486 1444 1785 1810 1855 1956 2005 1994 1967 2000 2078 2182 2250 2223 2258 2343 2427 2493 2536 2594 2713 2865 2964 2620 2373 2184 2123 1966 1777
0 0 0 0 0 0 0 0 0 0 0 0 0 0 0 27 226 695 922 1720 1474 1535 1758 1894 1827 1901 1960 1934 1993 2098 2314 2296 2281 2192 2191 2335 2421 2475 2535 2550 2649 2846 2929 2566 2243 2100 2057 2183 1784
0 0 0 0 0 0 0 0 0 0 0 0 0 0 0 0 18 571 967 1747 1497 1499 1661 1811 1910 1883 1875 1827 1925 2068 2250 2213 2234 2166 2227 2273 2401 2490 2482 2361 2570 2911 3024 2541 2252 2105 2477 1987 1626
0 0 0 0 0 0 0 0 0 0 0 0 0 0 0 0 1 902 1193 1892 1753 1585 1538 1670 1916 1951 1919 1835 1870 2012 2106 1996 2036 2100 2224 2299 2374 2396 2244 2077 2485 2907 2969 2711 2681 2919 2252 1779 1397
0 0 0 0 0 0 0 0 0 0 0 0 0 0 0 20 1086 1587 1489 2030 2018 1966 1876 1724 1752 1899 2000 2033 1931 1906 1955 1855 1898 2046 2079 2222 2418 2435 2134 2061 2479 2924 3023 3045 2830 2457 1939 1611 1312
0 0 0 0 0 0 0 0 0 0 0 0 0 0 0 0 96 1190 1811 1955 2108 2168 2257 2101 1851 1797 1962 2076 1921 1761 1810 1780 1817 1913 1921 2109 2149 2136 1998 1983 2119 2550 2861 2522 2292 2062 1812 1418 1117
0 0 0 0 0 0 0 0 0 0 0 0 0 0 0 0 1 712 1595 2097 2136 2165 2350 2301 2020 1806 1909 2002 2037 1857 1765 1700 1760 1840 1860 1914 1830 1763 1794 1851 1907 2340 2506 2161 2117 1944 1467 1084 1012
0 0 0 0 0 0 0 0 0 0 0 0 0 0 0 0 0 137 1577 2155 2176 2215 2360 2325 2078 1835 1774 1886 1992 2013 1933 1759 1716 1783 1849 1786 1716 1685 1618 1621 1760 2134 2293 2149 2058 1988 1674 1233 884
0 0 0 0 0 0 0 0 0 0 0 0 0 0 0 0 0 0 1490 2136 2515 2296 2300 2278 2168 2007 1882 1847 1827 2034 2051 1979 1782 1751 1814 1798 1607 1643 1627 1559 1647 1906 2252 2121 2049 2014 1824 1515 1079
0 0 0 0 0 0 0 0 0 0 0 0 0 0 0 0 0 0 45 1396 2350 2660 2420 2400 2320 2252 2199 2209 2000 1980 2067 2082 1917 1693 1693 1821 1704 1679 1689 1652 1643 1795 2054 2261 2128 1969 1815 1555 1140
0 0 0 0 0 0 0 0 0 0 0 0 0 0 0 0 0 0 0 0 0 2211 2732 2679 2598 2546 2582 2494 2233 1846 1877 1974 1875 1780 1705 1973 2136 1826 1804 1785 1674 1661 1810 2042 2124 1936 1776 1577 1192
0 0 0 0 0 0 0 0 0 0 0 0 0 0 0 0 0 0 0 0 0 0 0 856 2812 2893 2827 2659 2307 1859 1647 1792 2070 2587 2887 2910 2575 2370 2186 1814 1654 1572 1558 1724 1982 1886 1677 1600 1323
0 0 0 0 0 0 0 0 0 0 0 0 0 0 0 0 0 0 0 0 0 0 912 1453 2294 3010 2882 2581 2255 1887 1388 1396 1554 1681 2044 2413 2597 2227 1986 1725 1625 1540 1406 1479 1659 1732 1564 1533 1441
0 0 0 0 0 0 0 0 0 0 0 0 0 0 0 0 0 0 0 0 0 50 868 1703 2919 3283 2755 2344 2017 1632 1220 1032 1115 1197 1261 1732 1606 1560 1593 1522 1578 1574 1463 1329 1339 1347 1386 1386 1325
0 0 0 0 0 0 0 0 0 0 0 0 0 0 0 0 0 0 0 0 0 0 102 959 1291 1285 1601 1827 1690 1496 1140 1247 1283 1117 1230 1079 1244 1455 1394 1456 1619 1625 1591 1405 1272 1363 1415 1394 1258
0 0 0 0 0 0 0 0 0 0 0 0 0 0 0 0 0 0 0 0 0 0 10 182 970 1097 1217 852 1137 1292 973 741 620 735 786 1108 899 1246 1427 1414 1266 1414 1545 1739 1746 1641 1494 1447 1360
0 0 0 0 0 0 0 0 0 0 0 0 0 0 0 0 0 0 0 0 0 0 0 12 137 423 534 146 157 529 576 295 137 59 159 241 213 394 480 1081 546 708 950 1254 1497 1553 1534 1319 1269
0 0 0 0 0 0 0 0 0 0 0 0 0 0 0 0 0 0 0 0 0 0 0 0 0 0 0 0 0 0 0 0 25 57 44 9 95 56 146 67 58 7 276 486 1036 1157 1301 1163 1073
0 0 0 0 0 0 0 0 0 0 0 0 0 0 0 0 0 0 0 0 1 1 0 0 0 0 0 0 0 0 0 0 0 0 0 100 152 149 99 198 53 34 113 109 459 852 1068 1030 774
0 0 0 0 0 0 0 0 0 0 0 0 0 0 0 0 0 3 1 9 12 9 0 0 0 0 0 0 0 0 0 0 0 0 0 0 0 0 72 55 75 30 15 154 151 656 789 764 660
0 0 0 0 0 0 0 0 0 0 0 0 0 0 0 0 0 1 6 17 19 37 8 0 0 0 0 0 0 0 0 0 0 0 0 0 0 0 0 0 56 80 138 243 204 528 412 390 377
0 0 0 0 0 0 0 0 0 0 0 0 0 0 0 0 1 3 18 30 76 90 58 12 2 0 0 0 0 0 0 0 0 0 0 0 0 0 0 0 0 0 0 128 167 145 369 205 36
0 0 0 0 0 0 0 0 0 0 0 0 0 0 0 0 25 50 67 93 110 124 80 34 18 7 10 10 0 0 0 0 0 0 0 0 0 0 0 0 0 0 0 0 23 109 150 546 78
0 0 0 0 0 0 0 0 0 0 2 0 0 0 0 22 14 48 34 97 110 109 120 56 0 0 0 0 0 0 0 0 0 0 0 0 0 0 0 0 0 0 0 0 0 0 0 109 441
0 1 0 0 0 0 0 0 0 0 1 0 1 2 11 15 16 9 32 18 37 63 14 0 0 0 0 0 0 0 0 0 0 0 0 0 0 0 0 0 0 0 0 0 0 0 0 0 119
0 1 0 0 0 0 0 0 0 0 2 2 2 6 0 0 0 0 0 0 4 9 0 0 0 0 0 0 0 0 0 0 0 0 0 0 0 0 0 0 0 0 0 0 0 0 0 0 0
0 0 24 23 1 0 0 0 0 1 0 0 0 0 0 0 0 0 0 0 1 0 0 0 0 0 0 0 0 0 0 0 0 0 0 0 0 0 0 0 0 0 0 0 0 0 0 0 0
0 2 0 4 0 0 0 0 0 0 4 0 0 0 0 0 0 0 0 0 0 0 0 0 0 0 0 0 0 0 0 0 0 0 0 0 0 0 0 0 0 0 0 0 0 0 0 0 0
0 0 1 11 0 0 0 0 0 0 0 0 0 0 0 0 0 0 0 0 0 0 0 0 0 0 0 0 0 0 0 0 0 0 0 0 0 0 0 0 0 0 0 0 0 0 0 0 0
0 0 1 0 0 0 0 0 0 5 0 0 0 0 0 0 0 0 0 0 0 0 0 0 0 0 0 0 0 0 0 0 0 0 0 0 0 0 0 0 0 0 0 0 0 0 0 0 1